<?xml version="1.0" encoding="UTF-8" standalone="no" ?>
<gpx xmlns="http://www.topografix.com/GPX/1/1" xmlns:xsi="http://www.w3.org/2001/XMLSchema-instance" xsi:schemaLocation="http://www.topografix.com/GPX/1/1 http://www.topografix.com/GPX/1/1/gpx.xsd" version="1.1" creator="VisuGPX - https://www.visugpx.com">
  <metadata>
    <name>-la colle st Michel - Tartonne 3éme étape</name>
    <desc><![CDATA[07.08.2018]]></desc>
  </metadata>
  <trk>
    <name><![CDATA[9058427-la colle st Michel - Tartonne 3éme étape]]></name>
    <extensions>
      <line xmlns="http://www.topografix.com/GPX/gpx_style/0/2">
        <color>0000FF</color>
        <width>4</width>
      </line>
    </extensions>
    <trkseg>
      <trkpt lat="44.04695" lon="6.593">
        <ele>1432</ele>
        <time>2022-06-08T20:46:00Z</time>
      </trkpt>
      <trkpt lat="44.04693" lon="6.59299">
        <ele>1432</ele>
        <time>2022-06-08T20:46:00Z</time>
      </trkpt>
      <trkpt lat="44.04694" lon="6.59302">
        <ele>1432</ele>
        <time>2022-06-08T20:46:01Z</time>
      </trkpt>
      <trkpt lat="44.04691" lon="6.593">
        <ele>1432</ele>
        <time>2022-06-08T20:46:02Z</time>
      </trkpt>
      <trkpt lat="44.04693" lon="6.59296">
        <ele>1432</ele>
        <time>2022-06-08T20:46:03Z</time>
      </trkpt>
      <trkpt lat="44.04685" lon="6.5929">
        <ele>1431</ele>
        <time>2022-06-08T20:46:05Z</time>
      </trkpt>
      <trkpt lat="44.04681" lon="6.59296">
        <ele>1430</ele>
        <time>2022-06-08T20:46:06Z</time>
      </trkpt>
      <trkpt lat="44.04689" lon="6.59325">
        <ele>1433</ele>
        <time>2022-06-08T20:46:11Z</time>
      </trkpt>
      <trkpt lat="44.04703" lon="6.59331">
        <ele>1434</ele>
        <time>2022-06-08T20:46:15Z</time>
      </trkpt>
      <trkpt lat="44.04718" lon="6.59326">
        <ele>1436</ele>
        <time>2022-06-08T20:46:18Z</time>
      </trkpt>
      <trkpt lat="44.04741" lon="6.59323">
        <ele>1438</ele>
        <time>2022-06-08T20:46:24Z</time>
      </trkpt>
      <trkpt lat="44.04817" lon="6.59344">
        <ele>1451</ele>
        <time>2022-06-08T20:46:42Z</time>
      </trkpt>
      <trkpt lat="44.04827" lon="6.59319">
        <ele>1454</ele>
        <time>2022-06-08T20:46:47Z</time>
      </trkpt>
      <trkpt lat="44.04834" lon="6.5932">
        <ele>1455</ele>
        <time>2022-06-08T20:46:48Z</time>
      </trkpt>
      <trkpt lat="44.04848" lon="6.59329">
        <ele>1458</ele>
        <time>2022-06-08T20:46:52Z</time>
      </trkpt>
      <trkpt lat="44.04855" lon="6.59329">
        <ele>1460</ele>
        <time>2022-06-08T20:46:54Z</time>
      </trkpt>
      <trkpt lat="44.04865" lon="6.59324">
        <ele>1462</ele>
        <time>2022-06-08T20:46:56Z</time>
      </trkpt>
      <trkpt lat="44.04895" lon="6.59287">
        <ele>1471</ele>
        <time>2022-06-08T20:47:05Z</time>
      </trkpt>
      <trkpt lat="44.04898" lon="6.59275">
        <ele>1473</ele>
        <time>2022-06-08T20:47:08Z</time>
      </trkpt>
      <trkpt lat="44.04896" lon="6.59238">
        <ele>1474</ele>
        <time>2022-06-08T20:47:14Z</time>
      </trkpt>
      <trkpt lat="44.04906" lon="6.59169">
        <ele>1475</ele>
        <time>2022-06-08T20:47:26Z</time>
      </trkpt>
      <trkpt lat="44.04922" lon="6.59138">
        <ele>1477</ele>
        <time>2022-06-08T20:47:32Z</time>
      </trkpt>
      <trkpt lat="44.04942" lon="6.59112">
        <ele>1480</ele>
        <time>2022-06-08T20:47:38Z</time>
      </trkpt>
      <trkpt lat="44.04957" lon="6.59097">
        <ele>1482</ele>
        <time>2022-06-08T20:47:43Z</time>
      </trkpt>
      <trkpt lat="44.04972" lon="6.59092">
        <ele>1485</ele>
        <time>2022-06-08T20:47:46Z</time>
      </trkpt>
      <trkpt lat="44.04974" lon="6.59099">
        <ele>1486</ele>
        <time>2022-06-08T20:47:48Z</time>
      </trkpt>
      <trkpt lat="44.04969" lon="6.59111">
        <ele>1486</ele>
        <time>2022-06-08T20:47:50Z</time>
      </trkpt>
      <trkpt lat="44.04961" lon="6.59151">
        <ele>1487</ele>
        <time>2022-06-08T20:47:57Z</time>
      </trkpt>
      <trkpt lat="44.04966" lon="6.59169">
        <ele>1489</ele>
        <time>2022-06-08T20:48:00Z</time>
      </trkpt>
      <trkpt lat="44.04992" lon="6.59158">
        <ele>1494</ele>
        <time>2022-06-08T20:48:06Z</time>
      </trkpt>
      <trkpt lat="44.04996" lon="6.59159">
        <ele>1495</ele>
        <time>2022-06-08T20:48:07Z</time>
      </trkpt>
      <trkpt lat="44.05004" lon="6.59185">
        <ele>1497</ele>
        <time>2022-06-08T20:48:12Z</time>
      </trkpt>
      <trkpt lat="44.05028" lon="6.59204">
        <ele>1500</ele>
        <time>2022-06-08T20:48:19Z</time>
      </trkpt>
      <trkpt lat="44.05078" lon="6.5921">
        <ele>1506</ele>
        <time>2022-06-08T20:48:30Z</time>
      </trkpt>
      <trkpt lat="44.05102" lon="6.59207">
        <ele>1509</ele>
        <time>2022-06-08T20:48:36Z</time>
      </trkpt>
      <trkpt lat="44.05126" lon="6.59215">
        <ele>1512</ele>
        <time>2022-06-08T20:48:42Z</time>
      </trkpt>
      <trkpt lat="44.05151" lon="6.59239">
        <ele>1514</ele>
        <time>2022-06-08T20:48:49Z</time>
      </trkpt>
      <trkpt lat="44.05159" lon="6.5925">
        <ele>1515</ele>
        <time>2022-06-08T20:48:51Z</time>
      </trkpt>
      <trkpt lat="44.05173" lon="6.59279">
        <ele>1516</ele>
        <time>2022-06-08T20:48:57Z</time>
      </trkpt>
      <trkpt lat="44.05175" lon="6.59279">
        <ele>1516</ele>
        <time>2022-06-08T20:48:58Z</time>
      </trkpt>
      <trkpt lat="44.05174" lon="6.59281">
        <ele>1516</ele>
        <time>2022-06-08T20:48:58Z</time>
      </trkpt>
      <trkpt lat="44.05194" lon="6.5934">
        <ele>1518</ele>
        <time>2022-06-08T20:49:09Z</time>
      </trkpt>
      <trkpt lat="44.05217" lon="6.594">
        <ele>1518</ele>
        <time>2022-06-08T20:49:21Z</time>
      </trkpt>
      <trkpt lat="44.05235" lon="6.59434">
        <ele>1520</ele>
        <time>2022-06-08T20:49:28Z</time>
      </trkpt>
      <trkpt lat="44.05259" lon="6.59452">
        <ele>1524</ele>
        <time>2022-06-08T20:49:34Z</time>
      </trkpt>
      <trkpt lat="44.05283" lon="6.59466">
        <ele>1528</ele>
        <time>2022-06-08T20:49:40Z</time>
      </trkpt>
      <trkpt lat="44.05314" lon="6.59506">
        <ele>1532</ele>
        <time>2022-06-08T20:49:50Z</time>
      </trkpt>
      <trkpt lat="44.0533" lon="6.59531">
        <ele>1535</ele>
        <time>2022-06-08T20:49:56Z</time>
      </trkpt>
      <trkpt lat="44.05376" lon="6.59624">
        <ele>1541</ele>
        <time>2022-06-08T20:50:14Z</time>
      </trkpt>
      <trkpt lat="44.05394" lon="6.59694">
        <ele>1540</ele>
        <time>2022-06-08T20:50:27Z</time>
      </trkpt>
      <trkpt lat="44.05416" lon="6.59719">
        <ele>1541</ele>
        <time>2022-06-08T20:50:34Z</time>
      </trkpt>
      <trkpt lat="44.05443" lon="6.59731">
        <ele>1542</ele>
        <time>2022-06-08T20:50:40Z</time>
      </trkpt>
      <trkpt lat="44.05487" lon="6.59724">
        <ele>1547</ele>
        <time>2022-06-08T20:50:51Z</time>
      </trkpt>
      <trkpt lat="44.05511" lon="6.59717">
        <ele>1550</ele>
        <time>2022-06-08T20:50:56Z</time>
      </trkpt>
      <trkpt lat="44.0554" lon="6.59715">
        <ele>1551</ele>
        <time>2022-06-08T20:51:03Z</time>
      </trkpt>
      <trkpt lat="44.0557" lon="6.59716">
        <ele>1553</ele>
        <time>2022-06-08T20:51:10Z</time>
      </trkpt>
      <trkpt lat="44.05595" lon="6.59726">
        <ele>1553</ele>
        <time>2022-06-08T20:51:16Z</time>
      </trkpt>
      <trkpt lat="44.05606" lon="6.59735">
        <ele>1553</ele>
        <time>2022-06-08T20:51:19Z</time>
      </trkpt>
      <trkpt lat="44.05621" lon="6.59758">
        <ele>1552</ele>
        <time>2022-06-08T20:51:24Z</time>
      </trkpt>
      <trkpt lat="44.05633" lon="6.59814">
        <ele>1553</ele>
        <time>2022-06-08T20:51:34Z</time>
      </trkpt>
      <trkpt lat="44.05632" lon="6.59817">
        <ele>1553</ele>
        <time>2022-06-08T20:51:35Z</time>
      </trkpt>
      <trkpt lat="44.05621" lon="6.59814">
        <ele>1553</ele>
        <time>2022-06-08T20:51:37Z</time>
      </trkpt>
      <trkpt lat="44.05611" lon="6.59805">
        <ele>1552</ele>
        <time>2022-06-08T20:51:40Z</time>
      </trkpt>
      <trkpt lat="44.05609" lon="6.59806">
        <ele>1552</ele>
        <time>2022-06-08T20:51:41Z</time>
      </trkpt>
      <trkpt lat="44.05586" lon="6.59834">
        <ele>1552</ele>
        <time>2022-06-08T20:51:48Z</time>
      </trkpt>
      <trkpt lat="44.0555" lon="6.59867">
        <ele>1553</ele>
        <time>2022-06-08T20:51:58Z</time>
      </trkpt>
      <trkpt lat="44.05514" lon="6.59892">
        <ele>1553</ele>
        <time>2022-06-08T20:52:07Z</time>
      </trkpt>
      <trkpt lat="44.05425" lon="6.59944">
        <ele>1551</ele>
        <time>2022-06-08T20:52:30Z</time>
      </trkpt>
      <trkpt lat="44.0539" lon="6.59967">
        <ele>1547</ele>
        <time>2022-06-08T20:52:39Z</time>
      </trkpt>
      <trkpt lat="44.05374" lon="6.6001">
        <ele>1547</ele>
        <time>2022-06-08T20:52:47Z</time>
      </trkpt>
      <trkpt lat="44.05384" lon="6.60061">
        <ele>1545</ele>
        <time>2022-06-08T20:52:56Z</time>
      </trkpt>
      <trkpt lat="44.0542" lon="6.60096">
        <ele>1548</ele>
        <time>2022-06-08T20:53:06Z</time>
      </trkpt>
      <trkpt lat="44.05463" lon="6.60111">
        <ele>1549</ele>
        <time>2022-06-08T20:53:16Z</time>
      </trkpt>
      <trkpt lat="44.05552" lon="6.60127">
        <ele>1549</ele>
        <time>2022-06-08T20:53:37Z</time>
      </trkpt>
      <trkpt lat="44.05592" lon="6.60124">
        <ele>1550</ele>
        <time>2022-06-08T20:53:47Z</time>
      </trkpt>
      <trkpt lat="44.05642" lon="6.60109">
        <ele>1553</ele>
        <time>2022-06-08T20:53:59Z</time>
      </trkpt>
      <trkpt lat="44.05678" lon="6.60127">
        <ele>1552</ele>
        <time>2022-06-08T20:54:08Z</time>
      </trkpt>
      <trkpt lat="44.05717" lon="6.60123">
        <ele>1553</ele>
        <time>2022-06-08T20:54:17Z</time>
      </trkpt>
      <trkpt lat="44.05743" lon="6.60114">
        <ele>1554</ele>
        <time>2022-06-08T20:54:23Z</time>
      </trkpt>
      <trkpt lat="44.05762" lon="6.60154">
        <ele>1551</ele>
        <time>2022-06-08T20:54:31Z</time>
      </trkpt>
      <trkpt lat="44.05766" lon="6.60202">
        <ele>1551</ele>
        <time>2022-06-08T20:54:39Z</time>
      </trkpt>
      <trkpt lat="44.05772" lon="6.60231">
        <ele>1551</ele>
        <time>2022-06-08T20:54:44Z</time>
      </trkpt>
      <trkpt lat="44.05792" lon="6.60269">
        <ele>1552</ele>
        <time>2022-06-08T20:54:52Z</time>
      </trkpt>
      <trkpt lat="44.05796" lon="6.60293">
        <ele>1551</ele>
        <time>2022-06-08T20:54:56Z</time>
      </trkpt>
      <trkpt lat="44.05824" lon="6.60325">
        <ele>1550</ele>
        <time>2022-06-08T20:55:05Z</time>
      </trkpt>
      <trkpt lat="44.05869" lon="6.60362">
        <ele>1552</ele>
        <time>2022-06-08T20:55:17Z</time>
      </trkpt>
      <trkpt lat="44.05916" lon="6.60371">
        <ele>1555</ele>
        <time>2022-06-08T20:55:28Z</time>
      </trkpt>
      <trkpt lat="44.05942" lon="6.60353">
        <ele>1556</ele>
        <time>2022-06-08T20:55:35Z</time>
      </trkpt>
      <trkpt lat="44.05968" lon="6.60342">
        <ele>1557</ele>
        <time>2022-06-08T20:55:41Z</time>
      </trkpt>
      <trkpt lat="44.06031" lon="6.60302">
        <ele>1558</ele>
        <time>2022-06-08T20:55:57Z</time>
      </trkpt>
      <trkpt lat="44.06063" lon="6.60301">
        <ele>1559</ele>
        <time>2022-06-08T20:56:05Z</time>
      </trkpt>
      <trkpt lat="44.06102" lon="6.6031">
        <ele>1559</ele>
        <time>2022-06-08T20:56:14Z</time>
      </trkpt>
      <trkpt lat="44.06142" lon="6.60316">
        <ele>1556</ele>
        <time>2022-06-08T20:56:23Z</time>
      </trkpt>
      <trkpt lat="44.06182" lon="6.60321">
        <ele>1552</ele>
        <time>2022-06-08T20:56:33Z</time>
      </trkpt>
      <trkpt lat="44.06211" lon="6.60322">
        <ele>1549</ele>
        <time>2022-06-08T20:56:40Z</time>
      </trkpt>
      <trkpt lat="44.06257" lon="6.6032">
        <ele>1544</ele>
        <time>2022-06-08T20:56:50Z</time>
      </trkpt>
      <trkpt lat="44.06285" lon="6.60323">
        <ele>1540</ele>
        <time>2022-06-08T20:56:57Z</time>
      </trkpt>
      <trkpt lat="44.06308" lon="6.60313">
        <ele>1538</ele>
        <time>2022-06-08T20:57:02Z</time>
      </trkpt>
      <trkpt lat="44.06357" lon="6.60314">
        <ele>1531</ele>
        <time>2022-06-08T20:57:14Z</time>
      </trkpt>
      <trkpt lat="44.06379" lon="6.60308">
        <ele>1528</ele>
        <time>2022-06-08T20:57:19Z</time>
      </trkpt>
      <trkpt lat="44.06389" lon="6.60308">
        <ele>1527</ele>
        <time>2022-06-08T20:57:21Z</time>
      </trkpt>
      <trkpt lat="44.06445" lon="6.60331">
        <ele>1522</ele>
        <time>2022-06-08T20:57:35Z</time>
      </trkpt>
      <trkpt lat="44.06464" lon="6.60343">
        <ele>1519</ele>
        <time>2022-06-08T20:57:40Z</time>
      </trkpt>
      <trkpt lat="44.06471" lon="6.60344">
        <ele>1518</ele>
        <time>2022-06-08T20:57:42Z</time>
      </trkpt>
      <trkpt lat="44.06487" lon="6.60341">
        <ele>1518</ele>
        <time>2022-06-08T20:57:45Z</time>
      </trkpt>
      <trkpt lat="44.06501" lon="6.60357">
        <ele>1515</ele>
        <time>2022-06-08T20:57:50Z</time>
      </trkpt>
      <trkpt lat="44.06512" lon="6.60344">
        <ele>1519</ele>
        <time>2022-06-08T20:57:53Z</time>
      </trkpt>
      <trkpt lat="44.06519" lon="6.60331">
        <ele>1522</ele>
        <time>2022-06-08T20:57:56Z</time>
      </trkpt>
      <trkpt lat="44.06565" lon="6.60283">
        <ele>1525</ele>
        <time>2022-06-08T20:58:09Z</time>
      </trkpt>
      <trkpt lat="44.06594" lon="6.60272">
        <ele>1526</ele>
        <time>2022-06-08T20:58:16Z</time>
      </trkpt>
      <trkpt lat="44.06618" lon="6.60268">
        <ele>1528</ele>
        <time>2022-06-08T20:58:22Z</time>
      </trkpt>
      <trkpt lat="44.06646" lon="6.60273">
        <ele>1530</ele>
        <time>2022-06-08T20:58:28Z</time>
      </trkpt>
      <trkpt lat="44.06667" lon="6.6028">
        <ele>1533</ele>
        <time>2022-06-08T20:58:33Z</time>
      </trkpt>
      <trkpt lat="44.06693" lon="6.60297">
        <ele>1536</ele>
        <time>2022-06-08T20:58:40Z</time>
      </trkpt>
      <trkpt lat="44.06736" lon="6.60319">
        <ele>1542</ele>
        <time>2022-06-08T20:58:51Z</time>
      </trkpt>
      <trkpt lat="44.06823" lon="6.6037">
        <ele>1551</ele>
        <time>2022-06-08T20:59:13Z</time>
      </trkpt>
      <trkpt lat="44.06851" lon="6.60381">
        <ele>1554</ele>
        <time>2022-06-08T20:59:20Z</time>
      </trkpt>
      <trkpt lat="44.06854" lon="6.60386">
        <ele>1555</ele>
        <time>2022-06-08T20:59:21Z</time>
      </trkpt>
      <trkpt lat="44.06853" lon="6.60396">
        <ele>1555</ele>
        <time>2022-06-08T20:59:22Z</time>
      </trkpt>
      <trkpt lat="44.06862" lon="6.60428">
        <ele>1554</ele>
        <time>2022-06-08T20:59:28Z</time>
      </trkpt>
      <trkpt lat="44.0689" lon="6.60442">
        <ele>1557</ele>
        <time>2022-06-08T20:59:35Z</time>
      </trkpt>
      <trkpt lat="44.06958" lon="6.60485">
        <ele>1568</ele>
        <time>2022-06-08T20:59:53Z</time>
      </trkpt>
      <trkpt lat="44.06981" lon="6.60512">
        <ele>1569</ele>
        <time>2022-06-08T21:00:00Z</time>
      </trkpt>
      <trkpt lat="44.06995" lon="6.60543">
        <ele>1561</ele>
        <time>2022-06-08T21:00:06Z</time>
      </trkpt>
      <trkpt lat="44.06991" lon="6.60539">
        <ele>1562</ele>
        <time>2022-06-08T21:00:07Z</time>
      </trkpt>
      <trkpt lat="44.06973" lon="6.605">
        <ele>1571</ele>
        <time>2022-06-08T21:00:15Z</time>
      </trkpt>
      <trkpt lat="44.0696" lon="6.60485">
        <ele>1568</ele>
        <time>2022-06-08T21:00:19Z</time>
      </trkpt>
      <trkpt lat="44.06957" lon="6.60484">
        <ele>1568</ele>
        <time>2022-06-08T21:00:19Z</time>
      </trkpt>
      <trkpt lat="44.06958" lon="6.60493">
        <ele>1567</ele>
        <time>2022-06-08T21:00:21Z</time>
      </trkpt>
      <trkpt lat="44.06965" lon="6.60503">
        <ele>1567</ele>
        <time>2022-06-08T21:00:23Z</time>
      </trkpt>
      <trkpt lat="44.06986" lon="6.60561">
        <ele>1552</ele>
        <time>2022-06-08T21:00:34Z</time>
      </trkpt>
      <trkpt lat="44.06992" lon="6.6057">
        <ele>1550</ele>
        <time>2022-06-08T21:00:36Z</time>
      </trkpt>
      <trkpt lat="44.07001" lon="6.60576">
        <ele>1551</ele>
        <time>2022-06-08T21:00:39Z</time>
      </trkpt>
      <trkpt lat="44.0701" lon="6.60577">
        <ele>1553</ele>
        <time>2022-06-08T21:00:41Z</time>
      </trkpt>
      <trkpt lat="44.07041" lon="6.60589">
        <ele>1559</ele>
        <time>2022-06-08T21:00:48Z</time>
      </trkpt>
      <trkpt lat="44.07057" lon="6.60609">
        <ele>1559</ele>
        <time>2022-06-08T21:00:53Z</time>
      </trkpt>
      <trkpt lat="44.07062" lon="6.60648">
        <ele>1550</ele>
        <time>2022-06-08T21:01:00Z</time>
      </trkpt>
      <trkpt lat="44.07069" lon="6.60676">
        <ele>1546</ele>
        <time>2022-06-08T21:01:05Z</time>
      </trkpt>
      <trkpt lat="44.07082" lon="6.60707">
        <ele>1544</ele>
        <time>2022-06-08T21:01:11Z</time>
      </trkpt>
      <trkpt lat="44.07093" lon="6.60724">
        <ele>1546</ele>
        <time>2022-06-08T21:01:15Z</time>
      </trkpt>
      <trkpt lat="44.07097" lon="6.60741">
        <ele>1545</ele>
        <time>2022-06-08T21:01:18Z</time>
      </trkpt>
      <trkpt lat="44.0711" lon="6.60774">
        <ele>1545</ele>
        <time>2022-06-08T21:01:24Z</time>
      </trkpt>
      <trkpt lat="44.07114" lon="6.60802">
        <ele>1541</ele>
        <time>2022-06-08T21:01:29Z</time>
      </trkpt>
      <trkpt lat="44.0712" lon="6.60815">
        <ele>1541</ele>
        <time>2022-06-08T21:01:31Z</time>
      </trkpt>
      <trkpt lat="44.07119" lon="6.60824">
        <ele>1539</ele>
        <time>2022-06-08T21:01:33Z</time>
      </trkpt>
      <trkpt lat="44.07095" lon="6.60882">
        <ele>1524</ele>
        <time>2022-06-08T21:01:44Z</time>
      </trkpt>
      <trkpt lat="44.07066" lon="6.6093">
        <ele>1505</ele>
        <time>2022-06-08T21:01:55Z</time>
      </trkpt>
      <trkpt lat="44.07065" lon="6.60971">
        <ele>1497</ele>
        <time>2022-06-08T21:02:02Z</time>
      </trkpt>
      <trkpt lat="44.07081" lon="6.60983">
        <ele>1505</ele>
        <time>2022-06-08T21:02:06Z</time>
      </trkpt>
      <trkpt lat="44.07153" lon="6.60999">
        <ele>1524</ele>
        <time>2022-06-08T21:02:23Z</time>
      </trkpt>
      <trkpt lat="44.07164" lon="6.61006">
        <ele>1525</ele>
        <time>2022-06-08T21:02:26Z</time>
      </trkpt>
      <trkpt lat="44.0723" lon="6.61066">
        <ele>1522</ele>
        <time>2022-06-08T21:02:44Z</time>
      </trkpt>
      <trkpt lat="44.07276" lon="6.61091">
        <ele>1522</ele>
        <time>2022-06-08T21:02:56Z</time>
      </trkpt>
      <trkpt lat="44.07312" lon="6.61094">
        <ele>1528</ele>
        <time>2022-06-08T21:03:04Z</time>
      </trkpt>
      <trkpt lat="44.07317" lon="6.61098">
        <ele>1528</ele>
        <time>2022-06-08T21:03:05Z</time>
      </trkpt>
      <trkpt lat="44.07321" lon="6.61113">
        <ele>1528</ele>
        <time>2022-06-08T21:03:08Z</time>
      </trkpt>
      <trkpt lat="44.0732" lon="6.61127">
        <ele>1527</ele>
        <time>2022-06-08T21:03:10Z</time>
      </trkpt>
      <trkpt lat="44.07314" lon="6.61143">
        <ele>1525</ele>
        <time>2022-06-08T21:03:13Z</time>
      </trkpt>
      <trkpt lat="44.07278" lon="6.6118">
        <ele>1519</ele>
        <time>2022-06-08T21:03:24Z</time>
      </trkpt>
      <trkpt lat="44.07102" lon="6.61274">
        <ele>1517</ele>
        <time>2022-06-08T21:04:08Z</time>
      </trkpt>
      <trkpt lat="44.07059" lon="6.61305">
        <ele>1520</ele>
        <time>2022-06-08T21:04:19Z</time>
      </trkpt>
      <trkpt lat="44.07032" lon="6.61353">
        <ele>1532</ele>
        <time>2022-06-08T21:04:29Z</time>
      </trkpt>
      <trkpt lat="44.07026" lon="6.6136">
        <ele>1533</ele>
        <time>2022-06-08T21:04:31Z</time>
      </trkpt>
      <trkpt lat="44.06971" lon="6.61345">
        <ele>1519</ele>
        <time>2022-06-08T21:04:44Z</time>
      </trkpt>
      <trkpt lat="44.06928" lon="6.61357">
        <ele>1517</ele>
        <time>2022-06-08T21:04:55Z</time>
      </trkpt>
      <trkpt lat="44.06913" lon="6.61369">
        <ele>1516</ele>
        <time>2022-06-08T21:04:59Z</time>
      </trkpt>
      <trkpt lat="44.06915" lon="6.61371">
        <ele>1518</ele>
        <time>2022-06-08T21:04:59Z</time>
      </trkpt>
      <trkpt lat="44.0692" lon="6.61363">
        <ele>1517</ele>
        <time>2022-06-08T21:05:01Z</time>
      </trkpt>
      <trkpt lat="44.06918" lon="6.61358">
        <ele>1516</ele>
        <time>2022-06-08T21:05:02Z</time>
      </trkpt>
      <trkpt lat="44.06886" lon="6.61363">
        <ele>1506</ele>
        <time>2022-06-08T21:05:09Z</time>
      </trkpt>
      <trkpt lat="44.0689" lon="6.61361">
        <ele>1507</ele>
        <time>2022-06-08T21:05:10Z</time>
      </trkpt>
      <trkpt lat="44.06893" lon="6.6137">
        <ele>1510</ele>
        <time>2022-06-08T21:05:12Z</time>
      </trkpt>
      <trkpt lat="44.06901" lon="6.61376">
        <ele>1514</ele>
        <time>2022-06-08T21:05:14Z</time>
      </trkpt>
      <trkpt lat="44.06906" lon="6.61396">
        <ele>1519</ele>
        <time>2022-06-08T21:05:18Z</time>
      </trkpt>
      <trkpt lat="44.0691" lon="6.61401">
        <ele>1522</ele>
        <time>2022-06-08T21:05:19Z</time>
      </trkpt>
      <trkpt lat="44.06908" lon="6.61401">
        <ele>1521</ele>
        <time>2022-06-08T21:05:20Z</time>
      </trkpt>
      <trkpt lat="44.06915" lon="6.61401">
        <ele>1524</ele>
        <time>2022-06-08T21:05:21Z</time>
      </trkpt>
      <trkpt lat="44.06914" lon="6.6139">
        <ele>1521</ele>
        <time>2022-06-08T21:05:23Z</time>
      </trkpt>
      <trkpt lat="44.06919" lon="6.61381">
        <ele>1521</ele>
        <time>2022-06-08T21:05:25Z</time>
      </trkpt>
      <trkpt lat="44.06955" lon="6.6141">
        <ele>1535</ele>
        <time>2022-06-08T21:05:35Z</time>
      </trkpt>
      <trkpt lat="44.06954" lon="6.61408">
        <ele>1534</ele>
        <time>2022-06-08T21:05:35Z</time>
      </trkpt>
      <trkpt lat="44.06962" lon="6.61409">
        <ele>1536</ele>
        <time>2022-06-08T21:05:37Z</time>
      </trkpt>
      <trkpt lat="44.06985" lon="6.61416">
        <ele>1543</ele>
        <time>2022-06-08T21:05:42Z</time>
      </trkpt>
      <trkpt lat="44.0701" lon="6.61431">
        <ele>1553</ele>
        <time>2022-06-08T21:05:49Z</time>
      </trkpt>
      <trkpt lat="44.07015" lon="6.61437">
        <ele>1555</ele>
        <time>2022-06-08T21:05:50Z</time>
      </trkpt>
      <trkpt lat="44.07027" lon="6.61442">
        <ele>1558</ele>
        <time>2022-06-08T21:05:53Z</time>
      </trkpt>
      <trkpt lat="44.07041" lon="6.61439">
        <ele>1560</ele>
        <time>2022-06-08T21:05:57Z</time>
      </trkpt>
      <trkpt lat="44.07053" lon="6.61444">
        <ele>1563</ele>
        <time>2022-06-08T21:05:59Z</time>
      </trkpt>
      <trkpt lat="44.07073" lon="6.61457">
        <ele>1569</ele>
        <time>2022-06-08T21:06:05Z</time>
      </trkpt>
      <trkpt lat="44.07087" lon="6.61459">
        <ele>1572</ele>
        <time>2022-06-08T21:06:08Z</time>
      </trkpt>
      <trkpt lat="44.07106" lon="6.61468">
        <ele>1576</ele>
        <time>2022-06-08T21:06:13Z</time>
      </trkpt>
      <trkpt lat="44.07126" lon="6.61498">
        <ele>1584</ele>
        <time>2022-06-08T21:06:19Z</time>
      </trkpt>
      <trkpt lat="44.07139" lon="6.61531">
        <ele>1588</ele>
        <time>2022-06-08T21:06:26Z</time>
      </trkpt>
      <trkpt lat="44.07144" lon="6.61538">
        <ele>1589</ele>
        <time>2022-06-08T21:06:27Z</time>
      </trkpt>
      <trkpt lat="44.07153" lon="6.61546">
        <ele>1590</ele>
        <time>2022-06-08T21:06:30Z</time>
      </trkpt>
      <trkpt lat="44.07181" lon="6.61559">
        <ele>1593</ele>
        <time>2022-06-08T21:06:37Z</time>
      </trkpt>
      <trkpt lat="44.07222" lon="6.61571">
        <ele>1594</ele>
        <time>2022-06-08T21:06:47Z</time>
      </trkpt>
      <trkpt lat="44.07274" lon="6.61575">
        <ele>1594</ele>
        <time>2022-06-08T21:06:59Z</time>
      </trkpt>
      <trkpt lat="44.07322" lon="6.61595">
        <ele>1595</ele>
        <time>2022-06-08T21:07:10Z</time>
      </trkpt>
      <trkpt lat="44.07344" lon="6.61611">
        <ele>1596</ele>
        <time>2022-06-08T21:07:16Z</time>
      </trkpt>
      <trkpt lat="44.07368" lon="6.6162">
        <ele>1597</ele>
        <time>2022-06-08T21:07:22Z</time>
      </trkpt>
      <trkpt lat="44.0738" lon="6.61617">
        <ele>1597</ele>
        <time>2022-06-08T21:07:25Z</time>
      </trkpt>
      <trkpt lat="44.074" lon="6.6162">
        <ele>1598</ele>
        <time>2022-06-08T21:07:30Z</time>
      </trkpt>
      <trkpt lat="44.0743" lon="6.61631">
        <ele>1600</ele>
        <time>2022-06-08T21:07:37Z</time>
      </trkpt>
      <trkpt lat="44.07455" lon="6.61634">
        <ele>1602</ele>
        <time>2022-06-08T21:07:43Z</time>
      </trkpt>
      <trkpt lat="44.07472" lon="6.61639">
        <ele>1603</ele>
        <time>2022-06-08T21:07:47Z</time>
      </trkpt>
      <trkpt lat="44.07482" lon="6.61637">
        <ele>1604</ele>
        <time>2022-06-08T21:07:49Z</time>
      </trkpt>
      <trkpt lat="44.07488" lon="6.61633">
        <ele>1604</ele>
        <time>2022-06-08T21:07:51Z</time>
      </trkpt>
      <trkpt lat="44.07517" lon="6.6163">
        <ele>1607</ele>
        <time>2022-06-08T21:07:58Z</time>
      </trkpt>
      <trkpt lat="44.0754" lon="6.61622">
        <ele>1608</ele>
        <time>2022-06-08T21:08:03Z</time>
      </trkpt>
      <trkpt lat="44.07562" lon="6.61618">
        <ele>1610</ele>
        <time>2022-06-08T21:08:08Z</time>
      </trkpt>
      <trkpt lat="44.07583" lon="6.61605">
        <ele>1611</ele>
        <time>2022-06-08T21:08:14Z</time>
      </trkpt>
      <trkpt lat="44.07593" lon="6.61602">
        <ele>1613</ele>
        <time>2022-06-08T21:08:16Z</time>
      </trkpt>
      <trkpt lat="44.07625" lon="6.61597">
        <ele>1619</ele>
        <time>2022-06-08T21:08:23Z</time>
      </trkpt>
      <trkpt lat="44.07653" lon="6.61598">
        <ele>1626</ele>
        <time>2022-06-08T21:08:30Z</time>
      </trkpt>
      <trkpt lat="44.0767" lon="6.6159">
        <ele>1629</ele>
        <time>2022-06-08T21:08:34Z</time>
      </trkpt>
      <trkpt lat="44.0768" lon="6.61588">
        <ele>1630</ele>
        <time>2022-06-08T21:08:37Z</time>
      </trkpt>
      <trkpt lat="44.07729" lon="6.61557">
        <ele>1633</ele>
        <time>2022-06-08T21:08:49Z</time>
      </trkpt>
      <trkpt lat="44.07759" lon="6.61552">
        <ele>1638</ele>
        <time>2022-06-08T21:08:56Z</time>
      </trkpt>
      <trkpt lat="44.0777" lon="6.61553">
        <ele>1640</ele>
        <time>2022-06-08T21:08:59Z</time>
      </trkpt>
      <trkpt lat="44.07807" lon="6.61549">
        <ele>1644</ele>
        <time>2022-06-08T21:09:07Z</time>
      </trkpt>
      <trkpt lat="44.07824" lon="6.61545">
        <ele>1646</ele>
        <time>2022-06-08T21:09:11Z</time>
      </trkpt>
      <trkpt lat="44.07872" lon="6.61554">
        <ele>1656</ele>
        <time>2022-06-08T21:09:23Z</time>
      </trkpt>
      <trkpt lat="44.07912" lon="6.61555">
        <ele>1662</ele>
        <time>2022-06-08T21:09:32Z</time>
      </trkpt>
      <trkpt lat="44.07933" lon="6.6155">
        <ele>1664</ele>
        <time>2022-06-08T21:09:37Z</time>
      </trkpt>
      <trkpt lat="44.07988" lon="6.61546">
        <ele>1670</ele>
        <time>2022-06-08T21:09:50Z</time>
      </trkpt>
      <trkpt lat="44.07991" lon="6.61543">
        <ele>1670</ele>
        <time>2022-06-08T21:09:51Z</time>
      </trkpt>
      <trkpt lat="44.08039" lon="6.61539">
        <ele>1679</ele>
        <time>2022-06-08T21:10:02Z</time>
      </trkpt>
      <trkpt lat="44.08053" lon="6.61542">
        <ele>1682</ele>
        <time>2022-06-08T21:10:05Z</time>
      </trkpt>
      <trkpt lat="44.08082" lon="6.61542">
        <ele>1688</ele>
        <time>2022-06-08T21:10:12Z</time>
      </trkpt>
      <trkpt lat="44.08093" lon="6.61545">
        <ele>1691</ele>
        <time>2022-06-08T21:10:15Z</time>
      </trkpt>
      <trkpt lat="44.08123" lon="6.61542">
        <ele>1696</ele>
        <time>2022-06-08T21:10:22Z</time>
      </trkpt>
      <trkpt lat="44.08164" lon="6.61544">
        <ele>1705</ele>
        <time>2022-06-08T21:10:31Z</time>
      </trkpt>
      <trkpt lat="44.08173" lon="6.61548">
        <ele>1707</ele>
        <time>2022-06-08T21:10:34Z</time>
      </trkpt>
      <trkpt lat="44.08183" lon="6.61548">
        <ele>1709</ele>
        <time>2022-06-08T21:10:36Z</time>
      </trkpt>
      <trkpt lat="44.08201" lon="6.6154">
        <ele>1712</ele>
        <time>2022-06-08T21:10:40Z</time>
      </trkpt>
      <trkpt lat="44.08226" lon="6.61536">
        <ele>1717</ele>
        <time>2022-06-08T21:10:46Z</time>
      </trkpt>
      <trkpt lat="44.08233" lon="6.61537">
        <ele>1718</ele>
        <time>2022-06-08T21:10:48Z</time>
      </trkpt>
      <trkpt lat="44.08242" lon="6.61547">
        <ele>1722</ele>
        <time>2022-06-08T21:10:51Z</time>
      </trkpt>
      <trkpt lat="44.08251" lon="6.61552">
        <ele>1724</ele>
        <time>2022-06-08T21:10:53Z</time>
      </trkpt>
      <trkpt lat="44.08257" lon="6.61554">
        <ele>1725</ele>
        <time>2022-06-08T21:10:54Z</time>
      </trkpt>
      <trkpt lat="44.08268" lon="6.61549">
        <ele>1727</ele>
        <time>2022-06-08T21:10:57Z</time>
      </trkpt>
      <trkpt lat="44.0827" lon="6.61557">
        <ele>1728</ele>
        <time>2022-06-08T21:10:58Z</time>
      </trkpt>
      <trkpt lat="44.08288" lon="6.61559">
        <ele>1732</ele>
        <time>2022-06-08T21:11:03Z</time>
      </trkpt>
      <trkpt lat="44.08297" lon="6.61558">
        <ele>1734</ele>
        <time>2022-06-08T21:11:05Z</time>
      </trkpt>
      <trkpt lat="44.08308" lon="6.61553">
        <ele>1735</ele>
        <time>2022-06-08T21:11:07Z</time>
      </trkpt>
      <trkpt lat="44.08338" lon="6.61548">
        <ele>1740</ele>
        <time>2022-06-08T21:11:14Z</time>
      </trkpt>
      <trkpt lat="44.08343" lon="6.6155">
        <ele>1741</ele>
        <time>2022-06-08T21:11:16Z</time>
      </trkpt>
      <trkpt lat="44.0836" lon="6.61546">
        <ele>1743</ele>
        <time>2022-06-08T21:11:20Z</time>
      </trkpt>
      <trkpt lat="44.08368" lon="6.6155">
        <ele>1744</ele>
        <time>2022-06-08T21:11:22Z</time>
      </trkpt>
      <trkpt lat="44.08379" lon="6.61551">
        <ele>1746</ele>
        <time>2022-06-08T21:11:24Z</time>
      </trkpt>
      <trkpt lat="44.08402" lon="6.6154">
        <ele>1748</ele>
        <time>2022-06-08T21:11:30Z</time>
      </trkpt>
      <trkpt lat="44.08416" lon="6.6154">
        <ele>1750</ele>
        <time>2022-06-08T21:11:33Z</time>
      </trkpt>
      <trkpt lat="44.0846" lon="6.61532">
        <ele>1752</ele>
        <time>2022-06-08T21:11:44Z</time>
      </trkpt>
      <trkpt lat="44.08463" lon="6.61525">
        <ele>1752</ele>
        <time>2022-06-08T21:11:45Z</time>
      </trkpt>
      <trkpt lat="44.08464" lon="6.61527">
        <ele>1753</ele>
        <time>2022-06-08T21:11:45Z</time>
      </trkpt>
      <trkpt lat="44.08462" lon="6.61524">
        <ele>1752</ele>
        <time>2022-06-08T21:11:46Z</time>
      </trkpt>
      <trkpt lat="44.08465" lon="6.61529">
        <ele>1753</ele>
        <time>2022-06-08T21:11:47Z</time>
      </trkpt>
      <trkpt lat="44.08483" lon="6.61526">
        <ele>1754</ele>
        <time>2022-06-08T21:11:51Z</time>
      </trkpt>
      <trkpt lat="44.08519" lon="6.61504">
        <ele>1756</ele>
        <time>2022-06-08T21:12:01Z</time>
      </trkpt>
      <trkpt lat="44.08519" lon="6.61507">
        <ele>1756</ele>
        <time>2022-06-08T21:12:01Z</time>
      </trkpt>
      <trkpt lat="44.08523" lon="6.61506">
        <ele>1757</ele>
        <time>2022-06-08T21:12:02Z</time>
      </trkpt>
      <trkpt lat="44.08519" lon="6.61504">
        <ele>1756</ele>
        <time>2022-06-08T21:12:03Z</time>
      </trkpt>
      <trkpt lat="44.08522" lon="6.61508">
        <ele>1757</ele>
        <time>2022-06-08T21:12:04Z</time>
      </trkpt>
      <trkpt lat="44.08522" lon="6.61505">
        <ele>1756</ele>
        <time>2022-06-08T21:12:04Z</time>
      </trkpt>
      <trkpt lat="44.08526" lon="6.61503">
        <ele>1757</ele>
        <time>2022-06-08T21:12:05Z</time>
      </trkpt>
      <trkpt lat="44.08523" lon="6.61505">
        <ele>1757</ele>
        <time>2022-06-08T21:12:06Z</time>
      </trkpt>
      <trkpt lat="44.08526" lon="6.61505">
        <ele>1757</ele>
        <time>2022-06-08T21:12:07Z</time>
      </trkpt>
      <trkpt lat="44.08519" lon="6.61502">
        <ele>1756</ele>
        <time>2022-06-08T21:12:09Z</time>
      </trkpt>
      <trkpt lat="44.08522" lon="6.61504">
        <ele>1756</ele>
        <time>2022-06-08T21:12:09Z</time>
      </trkpt>
      <trkpt lat="44.08518" lon="6.61504">
        <ele>1756</ele>
        <time>2022-06-08T21:12:10Z</time>
      </trkpt>
      <trkpt lat="44.08519" lon="6.61502">
        <ele>1756</ele>
        <time>2022-06-08T21:12:11Z</time>
      </trkpt>
      <trkpt lat="44.08522" lon="6.61505">
        <ele>1756</ele>
        <time>2022-06-08T21:12:12Z</time>
      </trkpt>
      <trkpt lat="44.08524" lon="6.61503">
        <ele>1757</ele>
        <time>2022-06-08T21:12:12Z</time>
      </trkpt>
      <trkpt lat="44.08524" lon="6.61509">
        <ele>1757</ele>
        <time>2022-06-08T21:12:13Z</time>
      </trkpt>
      <trkpt lat="44.08524" lon="6.61506">
        <ele>1757</ele>
        <time>2022-06-08T21:12:14Z</time>
      </trkpt>
      <trkpt lat="44.08534" lon="6.61499">
        <ele>1757</ele>
        <time>2022-06-08T21:12:16Z</time>
      </trkpt>
      <trkpt lat="44.08582" lon="6.61473">
        <ele>1759</ele>
        <time>2022-06-08T21:12:28Z</time>
      </trkpt>
      <trkpt lat="44.08639" lon="6.61438">
        <ele>1765</ele>
        <time>2022-06-08T21:12:43Z</time>
      </trkpt>
      <trkpt lat="44.08659" lon="6.61433">
        <ele>1767</ele>
        <time>2022-06-08T21:12:48Z</time>
      </trkpt>
      <trkpt lat="44.08672" lon="6.61427">
        <ele>1768</ele>
        <time>2022-06-08T21:12:51Z</time>
      </trkpt>
      <trkpt lat="44.08785" lon="6.61361">
        <ele>1783</ele>
        <time>2022-06-08T21:13:19Z</time>
      </trkpt>
      <trkpt lat="44.08806" lon="6.61352">
        <ele>1784</ele>
        <time>2022-06-08T21:13:25Z</time>
      </trkpt>
      <trkpt lat="44.08857" lon="6.61336">
        <ele>1785</ele>
        <time>2022-06-08T21:13:37Z</time>
      </trkpt>
      <trkpt lat="44.08893" lon="6.61331">
        <ele>1786</ele>
        <time>2022-06-08T21:13:45Z</time>
      </trkpt>
      <trkpt lat="44.08893" lon="6.61325">
        <ele>1786</ele>
        <time>2022-06-08T21:13:46Z</time>
      </trkpt>
      <trkpt lat="44.08896" lon="6.61326">
        <ele>1786</ele>
        <time>2022-06-08T21:13:47Z</time>
      </trkpt>
      <trkpt lat="44.08938" lon="6.61308">
        <ele>1786</ele>
        <time>2022-06-08T21:13:57Z</time>
      </trkpt>
      <trkpt lat="44.08964" lon="6.61294">
        <ele>1785</ele>
        <time>2022-06-08T21:14:04Z</time>
      </trkpt>
      <trkpt lat="44.09025" lon="6.61273">
        <ele>1781</ele>
        <time>2022-06-08T21:14:18Z</time>
      </trkpt>
      <trkpt lat="44.09052" lon="6.61246">
        <ele>1777</ele>
        <time>2022-06-08T21:14:26Z</time>
      </trkpt>
      <trkpt lat="44.09088" lon="6.61222">
        <ele>1775</ele>
        <time>2022-06-08T21:14:35Z</time>
      </trkpt>
      <trkpt lat="44.09169" lon="6.61208">
        <ele>1766</ele>
        <time>2022-06-08T21:14:55Z</time>
      </trkpt>
      <trkpt lat="44.09206" lon="6.61209">
        <ele>1759</ele>
        <time>2022-06-08T21:15:03Z</time>
      </trkpt>
      <trkpt lat="44.09249" lon="6.61189">
        <ele>1753</ele>
        <time>2022-06-08T21:15:14Z</time>
      </trkpt>
      <trkpt lat="44.0926" lon="6.61193">
        <ele>1751</ele>
        <time>2022-06-08T21:15:16Z</time>
      </trkpt>
      <trkpt lat="44.09269" lon="6.61186">
        <ele>1751</ele>
        <time>2022-06-08T21:15:19Z</time>
      </trkpt>
      <trkpt lat="44.09306" lon="6.61205">
        <ele>1742</ele>
        <time>2022-06-08T21:15:28Z</time>
      </trkpt>
      <trkpt lat="44.09376" lon="6.61227">
        <ele>1725</ele>
        <time>2022-06-08T21:15:45Z</time>
      </trkpt>
      <trkpt lat="44.09415" lon="6.6122">
        <ele>1721</ele>
        <time>2022-06-08T21:15:54Z</time>
      </trkpt>
      <trkpt lat="44.09446" lon="6.6121">
        <ele>1716</ele>
        <time>2022-06-08T21:16:01Z</time>
      </trkpt>
      <trkpt lat="44.09457" lon="6.6121">
        <ele>1713</ele>
        <time>2022-06-08T21:16:04Z</time>
      </trkpt>
      <trkpt lat="44.09463" lon="6.61203">
        <ele>1713</ele>
        <time>2022-06-08T21:16:06Z</time>
      </trkpt>
      <trkpt lat="44.09511" lon="6.61179">
        <ele>1703</ele>
        <time>2022-06-08T21:16:18Z</time>
      </trkpt>
      <trkpt lat="44.09613" lon="6.61148">
        <ele>1683</ele>
        <time>2022-06-08T21:16:42Z</time>
      </trkpt>
      <trkpt lat="44.09621" lon="6.6114">
        <ele>1684</ele>
        <time>2022-06-08T21:16:44Z</time>
      </trkpt>
      <trkpt lat="44.09642" lon="6.61131">
        <ele>1682</ele>
        <time>2022-06-08T21:16:50Z</time>
      </trkpt>
      <trkpt lat="44.09651" lon="6.61138">
        <ele>1677</ele>
        <time>2022-06-08T21:16:52Z</time>
      </trkpt>
      <trkpt lat="44.0966" lon="6.61141">
        <ele>1673</ele>
        <time>2022-06-08T21:16:54Z</time>
      </trkpt>
      <trkpt lat="44.09689" lon="6.61142">
        <ele>1665</ele>
        <time>2022-06-08T21:17:01Z</time>
      </trkpt>
      <trkpt lat="44.09712" lon="6.61139">
        <ele>1661</ele>
        <time>2022-06-08T21:17:06Z</time>
      </trkpt>
      <trkpt lat="44.09719" lon="6.61136">
        <ele>1660</ele>
        <time>2022-06-08T21:17:08Z</time>
      </trkpt>
      <trkpt lat="44.09737" lon="6.61137">
        <ele>1655</ele>
        <time>2022-06-08T21:17:12Z</time>
      </trkpt>
      <trkpt lat="44.09763" lon="6.61133">
        <ele>1647</ele>
        <time>2022-06-08T21:17:18Z</time>
      </trkpt>
      <trkpt lat="44.09779" lon="6.61127">
        <ele>1642</ele>
        <time>2022-06-08T21:17:22Z</time>
      </trkpt>
      <trkpt lat="44.09789" lon="6.61119">
        <ele>1640</ele>
        <time>2022-06-08T21:17:25Z</time>
      </trkpt>
      <trkpt lat="44.09811" lon="6.61123">
        <ele>1628</ele>
        <time>2022-06-08T21:17:30Z</time>
      </trkpt>
      <trkpt lat="44.09829" lon="6.61122">
        <ele>1620</ele>
        <time>2022-06-08T21:17:34Z</time>
      </trkpt>
      <trkpt lat="44.09848" lon="6.61116">
        <ele>1609</ele>
        <time>2022-06-08T21:17:39Z</time>
      </trkpt>
      <trkpt lat="44.09858" lon="6.6111">
        <ele>1603</ele>
        <time>2022-06-08T21:17:41Z</time>
      </trkpt>
      <trkpt lat="44.09862" lon="6.61111">
        <ele>1600</ele>
        <time>2022-06-08T21:17:42Z</time>
      </trkpt>
      <trkpt lat="44.09877" lon="6.61102">
        <ele>1590</ele>
        <time>2022-06-08T21:17:46Z</time>
      </trkpt>
      <trkpt lat="44.09872" lon="6.61081">
        <ele>1597</ele>
        <time>2022-06-08T21:17:50Z</time>
      </trkpt>
      <trkpt lat="44.09846" lon="6.61069">
        <ele>1621</ele>
        <time>2022-06-08T21:17:56Z</time>
      </trkpt>
      <trkpt lat="44.09843" lon="6.61063">
        <ele>1626</ele>
        <time>2022-06-08T21:17:57Z</time>
      </trkpt>
      <trkpt lat="44.09848" lon="6.61044">
        <ele>1627</ele>
        <time>2022-06-08T21:18:01Z</time>
      </trkpt>
      <trkpt lat="44.09863" lon="6.61028">
        <ele>1617</ele>
        <time>2022-06-08T21:18:05Z</time>
      </trkpt>
      <trkpt lat="44.09879" lon="6.61005">
        <ele>1609</ele>
        <time>2022-06-08T21:18:11Z</time>
      </trkpt>
      <trkpt lat="44.09905" lon="6.60984">
        <ele>1590</ele>
        <time>2022-06-08T21:18:18Z</time>
      </trkpt>
      <trkpt lat="44.09921" lon="6.60955">
        <ele>1583</ele>
        <time>2022-06-08T21:18:24Z</time>
      </trkpt>
      <trkpt lat="44.09933" lon="6.6094">
        <ele>1577</ele>
        <time>2022-06-08T21:18:28Z</time>
      </trkpt>
      <trkpt lat="44.09941" lon="6.60922">
        <ele>1576</ele>
        <time>2022-06-08T21:18:31Z</time>
      </trkpt>
      <trkpt lat="44.09942" lon="6.6091">
        <ele>1580</ele>
        <time>2022-06-08T21:18:33Z</time>
      </trkpt>
      <trkpt lat="44.09951" lon="6.60906">
        <ele>1574</ele>
        <time>2022-06-08T21:18:35Z</time>
      </trkpt>
      <trkpt lat="44.09952" lon="6.60901">
        <ele>1575</ele>
        <time>2022-06-08T21:18:36Z</time>
      </trkpt>
      <trkpt lat="44.09968" lon="6.60883">
        <ele>1570</ele>
        <time>2022-06-08T21:18:41Z</time>
      </trkpt>
      <trkpt lat="44.09973" lon="6.6088">
        <ele>1567</ele>
        <time>2022-06-08T21:18:42Z</time>
      </trkpt>
      <trkpt lat="44.09982" lon="6.6088">
        <ele>1560</ele>
        <time>2022-06-08T21:18:44Z</time>
      </trkpt>
      <trkpt lat="44.09996" lon="6.60872">
        <ele>1552</ele>
        <time>2022-06-08T21:18:48Z</time>
      </trkpt>
      <trkpt lat="44.10002" lon="6.60865">
        <ele>1551</ele>
        <time>2022-06-08T21:18:50Z</time>
      </trkpt>
      <trkpt lat="44.10017" lon="6.60835">
        <ele>1555</ele>
        <time>2022-06-08T21:18:56Z</time>
      </trkpt>
      <trkpt lat="44.10024" lon="6.60836">
        <ele>1552</ele>
        <time>2022-06-08T21:18:58Z</time>
      </trkpt>
      <trkpt lat="44.10019" lon="6.60835">
        <ele>1554</ele>
        <time>2022-06-08T21:18:59Z</time>
      </trkpt>
      <trkpt lat="44.10026" lon="6.60838">
        <ele>1550</ele>
        <time>2022-06-08T21:19:00Z</time>
      </trkpt>
      <trkpt lat="44.1004" lon="6.6085">
        <ele>1538</ele>
        <time>2022-06-08T21:19:04Z</time>
      </trkpt>
      <trkpt lat="44.1005" lon="6.6085">
        <ele>1534</ele>
        <time>2022-06-08T21:19:07Z</time>
      </trkpt>
      <trkpt lat="44.10058" lon="6.60845">
        <ele>1532</ele>
        <time>2022-06-08T21:19:09Z</time>
      </trkpt>
      <trkpt lat="44.10055" lon="6.6085">
        <ele>1531</ele>
        <time>2022-06-08T21:19:10Z</time>
      </trkpt>
      <trkpt lat="44.1006" lon="6.6085">
        <ele>1529</ele>
        <time>2022-06-08T21:19:11Z</time>
      </trkpt>
      <trkpt lat="44.1006" lon="6.60855">
        <ele>1527</ele>
        <time>2022-06-08T21:19:12Z</time>
      </trkpt>
      <trkpt lat="44.10069" lon="6.60855">
        <ele>1522</ele>
        <time>2022-06-08T21:19:14Z</time>
      </trkpt>
      <trkpt lat="44.10074" lon="6.60852">
        <ele>1522</ele>
        <time>2022-06-08T21:19:15Z</time>
      </trkpt>
      <trkpt lat="44.10075" lon="6.60855">
        <ele>1520</ele>
        <time>2022-06-08T21:19:16Z</time>
      </trkpt>
      <trkpt lat="44.10097" lon="6.60859">
        <ele>1507</ele>
        <time>2022-06-08T21:19:21Z</time>
      </trkpt>
      <trkpt lat="44.10058" lon="6.60893">
        <ele>1509</ele>
        <time>2022-06-08T21:19:32Z</time>
      </trkpt>
      <trkpt lat="44.1005" lon="6.60896">
        <ele>1513</ele>
        <time>2022-06-08T21:19:34Z</time>
      </trkpt>
      <trkpt lat="44.10042" lon="6.60938">
        <ele>1499</ele>
        <time>2022-06-08T21:19:41Z</time>
      </trkpt>
      <trkpt lat="44.10023" lon="6.60971">
        <ele>1498</ele>
        <time>2022-06-08T21:19:48Z</time>
      </trkpt>
      <trkpt lat="44.10012" lon="6.6098">
        <ele>1502</ele>
        <time>2022-06-08T21:19:51Z</time>
      </trkpt>
      <trkpt lat="44.1001" lon="6.60985">
        <ele>1502</ele>
        <time>2022-06-08T21:19:52Z</time>
      </trkpt>
      <trkpt lat="44.10013" lon="6.60992">
        <ele>1497</ele>
        <time>2022-06-08T21:19:53Z</time>
      </trkpt>
      <trkpt lat="44.10016" lon="6.60992">
        <ele>1495</ele>
        <time>2022-06-08T21:19:54Z</time>
      </trkpt>
      <trkpt lat="44.10013" lon="6.61007">
        <ele>1493</ele>
        <time>2022-06-08T21:19:57Z</time>
      </trkpt>
      <trkpt lat="44.10014" lon="6.61025">
        <ele>1491</ele>
        <time>2022-06-08T21:20:00Z</time>
      </trkpt>
      <trkpt lat="44.10012" lon="6.61041">
        <ele>1491</ele>
        <time>2022-06-08T21:20:02Z</time>
      </trkpt>
      <trkpt lat="44.09998" lon="6.61053">
        <ele>1501</ele>
        <time>2022-06-08T21:20:06Z</time>
      </trkpt>
      <trkpt lat="44.10005" lon="6.61058">
        <ele>1495</ele>
        <time>2022-06-08T21:20:08Z</time>
      </trkpt>
      <trkpt lat="44.10005" lon="6.61061">
        <ele>1495</ele>
        <time>2022-06-08T21:20:08Z</time>
      </trkpt>
      <trkpt lat="44.10013" lon="6.6105">
        <ele>1490</ele>
        <time>2022-06-08T21:20:11Z</time>
      </trkpt>
      <trkpt lat="44.10016" lon="6.61051">
        <ele>1487</ele>
        <time>2022-06-08T21:20:12Z</time>
      </trkpt>
      <trkpt lat="44.1003" lon="6.61023">
        <ele>1480</ele>
        <time>2022-06-08T21:20:18Z</time>
      </trkpt>
      <trkpt lat="44.10031" lon="6.61057">
        <ele>1475</ele>
        <time>2022-06-08T21:20:23Z</time>
      </trkpt>
      <trkpt lat="44.10023" lon="6.6107">
        <ele>1480</ele>
        <time>2022-06-08T21:20:26Z</time>
      </trkpt>
      <trkpt lat="44.10024" lon="6.61079">
        <ele>1478</ele>
        <time>2022-06-08T21:20:28Z</time>
      </trkpt>
      <trkpt lat="44.1003" lon="6.6108">
        <ele>1473</ele>
        <time>2022-06-08T21:20:29Z</time>
      </trkpt>
      <trkpt lat="44.10046" lon="6.61072">
        <ele>1462</ele>
        <time>2022-06-08T21:20:33Z</time>
      </trkpt>
      <trkpt lat="44.10052" lon="6.61083">
        <ele>1455</ele>
        <time>2022-06-08T21:20:35Z</time>
      </trkpt>
      <trkpt lat="44.10051" lon="6.61071">
        <ele>1458</ele>
        <time>2022-06-08T21:20:37Z</time>
      </trkpt>
      <trkpt lat="44.10057" lon="6.61076">
        <ele>1452</ele>
        <time>2022-06-08T21:20:39Z</time>
      </trkpt>
      <trkpt lat="44.10059" lon="6.61081">
        <ele>1450</ele>
        <time>2022-06-08T21:20:40Z</time>
      </trkpt>
      <trkpt lat="44.1006" lon="6.61097">
        <ele>1452</ele>
        <time>2022-06-08T21:20:43Z</time>
      </trkpt>
      <trkpt lat="44.10076" lon="6.61101">
        <ele>1439</ele>
        <time>2022-06-08T21:20:46Z</time>
      </trkpt>
      <trkpt lat="44.10084" lon="6.61122">
        <ele>1435</ele>
        <time>2022-06-08T21:20:50Z</time>
      </trkpt>
      <trkpt lat="44.10094" lon="6.61123">
        <ele>1429</ele>
        <time>2022-06-08T21:20:53Z</time>
      </trkpt>
      <trkpt lat="44.10099" lon="6.61121">
        <ele>1425</ele>
        <time>2022-06-08T21:20:54Z</time>
      </trkpt>
      <trkpt lat="44.101" lon="6.61118">
        <ele>1424</ele>
        <time>2022-06-08T21:20:55Z</time>
      </trkpt>
      <trkpt lat="44.10119" lon="6.61119">
        <ele>1413</ele>
        <time>2022-06-08T21:20:59Z</time>
      </trkpt>
      <trkpt lat="44.10108" lon="6.61112">
        <ele>1419</ele>
        <time>2022-06-08T21:21:02Z</time>
      </trkpt>
      <trkpt lat="44.1012" lon="6.61111">
        <ele>1411</ele>
        <time>2022-06-08T21:21:05Z</time>
      </trkpt>
      <trkpt lat="44.10125" lon="6.61116">
        <ele>1408</ele>
        <time>2022-06-08T21:21:06Z</time>
      </trkpt>
      <trkpt lat="44.10128" lon="6.6112">
        <ele>1407</ele>
        <time>2022-06-08T21:21:07Z</time>
      </trkpt>
      <trkpt lat="44.10128" lon="6.61127">
        <ele>1408</ele>
        <time>2022-06-08T21:21:08Z</time>
      </trkpt>
      <trkpt lat="44.10133" lon="6.61139">
        <ele>1406</ele>
        <time>2022-06-08T21:21:10Z</time>
      </trkpt>
      <trkpt lat="44.10131" lon="6.61156">
        <ele>1409</ele>
        <time>2022-06-08T21:21:13Z</time>
      </trkpt>
      <trkpt lat="44.1014" lon="6.6121">
        <ele>1407</ele>
        <time>2022-06-08T21:21:23Z</time>
      </trkpt>
      <trkpt lat="44.10147" lon="6.61226">
        <ele>1403</ele>
        <time>2022-06-08T21:21:26Z</time>
      </trkpt>
      <trkpt lat="44.10155" lon="6.61231">
        <ele>1397</ele>
        <time>2022-06-08T21:21:28Z</time>
      </trkpt>
      <trkpt lat="44.10151" lon="6.61231">
        <ele>1400</ele>
        <time>2022-06-08T21:21:29Z</time>
      </trkpt>
      <trkpt lat="44.10155" lon="6.61235">
        <ele>1397</ele>
        <time>2022-06-08T21:21:30Z</time>
      </trkpt>
      <trkpt lat="44.10151" lon="6.61232">
        <ele>1400</ele>
        <time>2022-06-08T21:21:31Z</time>
      </trkpt>
      <trkpt lat="44.10154" lon="6.61245">
        <ele>1398</ele>
        <time>2022-06-08T21:21:33Z</time>
      </trkpt>
      <trkpt lat="44.10166" lon="6.6126">
        <ele>1389</ele>
        <time>2022-06-08T21:21:37Z</time>
      </trkpt>
      <trkpt lat="44.10171" lon="6.6125">
        <ele>1385</ele>
        <time>2022-06-08T21:21:39Z</time>
      </trkpt>
      <trkpt lat="44.10173" lon="6.61237">
        <ele>1383</ele>
        <time>2022-06-08T21:21:41Z</time>
      </trkpt>
      <trkpt lat="44.10168" lon="6.61191">
        <ele>1386</ele>
        <time>2022-06-08T21:21:49Z</time>
      </trkpt>
      <trkpt lat="44.10173" lon="6.61149">
        <ele>1381</ele>
        <time>2022-06-08T21:21:56Z</time>
      </trkpt>
      <trkpt lat="44.10177" lon="6.61146">
        <ele>1379</ele>
        <time>2022-06-08T21:21:57Z</time>
      </trkpt>
      <trkpt lat="44.10186" lon="6.61179">
        <ele>1374</ele>
        <time>2022-06-08T21:22:03Z</time>
      </trkpt>
      <trkpt lat="44.10194" lon="6.61193">
        <ele>1369</ele>
        <time>2022-06-08T21:22:06Z</time>
      </trkpt>
      <trkpt lat="44.10201" lon="6.61198">
        <ele>1364</ele>
        <time>2022-06-08T21:22:08Z</time>
      </trkpt>
      <trkpt lat="44.10203" lon="6.61169">
        <ele>1363</ele>
        <time>2022-06-08T21:22:13Z</time>
      </trkpt>
      <trkpt lat="44.102" lon="6.61144">
        <ele>1364</ele>
        <time>2022-06-08T21:22:17Z</time>
      </trkpt>
      <trkpt lat="44.10214" lon="6.61109">
        <ele>1354</ele>
        <time>2022-06-08T21:22:24Z</time>
      </trkpt>
      <trkpt lat="44.1022" lon="6.61103">
        <ele>1351</ele>
        <time>2022-06-08T21:22:26Z</time>
      </trkpt>
      <trkpt lat="44.10224" lon="6.61116">
        <ele>1348</ele>
        <time>2022-06-08T21:22:28Z</time>
      </trkpt>
      <trkpt lat="44.10235" lon="6.6112">
        <ele>1342</ele>
        <time>2022-06-08T21:22:31Z</time>
      </trkpt>
      <trkpt lat="44.10242" lon="6.61111">
        <ele>1338</ele>
        <time>2022-06-08T21:22:33Z</time>
      </trkpt>
      <trkpt lat="44.10245" lon="6.61111">
        <ele>1336</ele>
        <time>2022-06-08T21:22:34Z</time>
      </trkpt>
      <trkpt lat="44.10254" lon="6.61122">
        <ele>1333</ele>
        <time>2022-06-08T21:22:36Z</time>
      </trkpt>
      <trkpt lat="44.10255" lon="6.61155">
        <ele>1332</ele>
        <time>2022-06-08T21:22:42Z</time>
      </trkpt>
      <trkpt lat="44.10258" lon="6.61169">
        <ele>1332</ele>
        <time>2022-06-08T21:22:44Z</time>
      </trkpt>
      <trkpt lat="44.10264" lon="6.61179">
        <ele>1331</ele>
        <time>2022-06-08T21:22:47Z</time>
      </trkpt>
      <trkpt lat="44.10265" lon="6.61173">
        <ele>1332</ele>
        <time>2022-06-08T21:22:48Z</time>
      </trkpt>
      <trkpt lat="44.10279" lon="6.61152">
        <ele>1331</ele>
        <time>2022-06-08T21:22:52Z</time>
      </trkpt>
      <trkpt lat="44.10279" lon="6.61149">
        <ele>1331</ele>
        <time>2022-06-08T21:22:53Z</time>
      </trkpt>
      <trkpt lat="44.10278" lon="6.61151">
        <ele>1331</ele>
        <time>2022-06-08T21:22:53Z</time>
      </trkpt>
      <trkpt lat="44.10283" lon="6.61159">
        <ele>1331</ele>
        <time>2022-06-08T21:22:55Z</time>
      </trkpt>
      <trkpt lat="44.10297" lon="6.61163">
        <ele>1331</ele>
        <time>2022-06-08T21:22:58Z</time>
      </trkpt>
      <trkpt lat="44.1031" lon="6.61155">
        <ele>1330</ele>
        <time>2022-06-08T21:23:02Z</time>
      </trkpt>
      <trkpt lat="44.10318" lon="6.61134">
        <ele>1328</ele>
        <time>2022-06-08T21:23:06Z</time>
      </trkpt>
      <trkpt lat="44.10341" lon="6.61096">
        <ele>1327</ele>
        <time>2022-06-08T21:23:14Z</time>
      </trkpt>
      <trkpt lat="44.10357" lon="6.61029">
        <ele>1326</ele>
        <time>2022-06-08T21:23:26Z</time>
      </trkpt>
      <trkpt lat="44.1037" lon="6.61">
        <ele>1326</ele>
        <time>2022-06-08T21:23:32Z</time>
      </trkpt>
      <trkpt lat="44.10384" lon="6.60976">
        <ele>1326</ele>
        <time>2022-06-08T21:23:37Z</time>
      </trkpt>
      <trkpt lat="44.10405" lon="6.60952">
        <ele>1324</ele>
        <time>2022-06-08T21:23:43Z</time>
      </trkpt>
      <trkpt lat="44.10438" lon="6.60922">
        <ele>1321</ele>
        <time>2022-06-08T21:23:52Z</time>
      </trkpt>
      <trkpt lat="44.10457" lon="6.609">
        <ele>1320</ele>
        <time>2022-06-08T21:23:58Z</time>
      </trkpt>
      <trkpt lat="44.10478" lon="6.60883">
        <ele>1321</ele>
        <time>2022-06-08T21:24:04Z</time>
      </trkpt>
      <trkpt lat="44.10498" lon="6.60868">
        <ele>1321</ele>
        <time>2022-06-08T21:24:09Z</time>
      </trkpt>
      <trkpt lat="44.10505" lon="6.60867">
        <ele>1322</ele>
        <time>2022-06-08T21:24:11Z</time>
      </trkpt>
      <trkpt lat="44.10529" lon="6.60851">
        <ele>1325</ele>
        <time>2022-06-08T21:24:17Z</time>
      </trkpt>
      <trkpt lat="44.10545" lon="6.60852">
        <ele>1329</ele>
        <time>2022-06-08T21:24:21Z</time>
      </trkpt>
      <trkpt lat="44.10555" lon="6.60826">
        <ele>1325</ele>
        <time>2022-06-08T21:24:26Z</time>
      </trkpt>
      <trkpt lat="44.10589" lon="6.60782">
        <ele>1324</ele>
        <time>2022-06-08T21:24:37Z</time>
      </trkpt>
      <trkpt lat="44.10622" lon="6.6076">
        <ele>1331</ele>
        <time>2022-06-08T21:24:45Z</time>
      </trkpt>
      <trkpt lat="44.10647" lon="6.60724">
        <ele>1331</ele>
        <time>2022-06-08T21:24:53Z</time>
      </trkpt>
      <trkpt lat="44.10651" lon="6.60712">
        <ele>1329</ele>
        <time>2022-06-08T21:24:56Z</time>
      </trkpt>
      <trkpt lat="44.10667" lon="6.60699">
        <ele>1332</ele>
        <time>2022-06-08T21:25:00Z</time>
      </trkpt>
      <trkpt lat="44.10673" lon="6.60698">
        <ele>1334</ele>
        <time>2022-06-08T21:25:01Z</time>
      </trkpt>
      <trkpt lat="44.10673" lon="6.60691">
        <ele>1332</ele>
        <time>2022-06-08T21:25:03Z</time>
      </trkpt>
      <trkpt lat="44.10697" lon="6.60647">
        <ele>1329</ele>
        <time>2022-06-08T21:25:12Z</time>
      </trkpt>
      <trkpt lat="44.1072" lon="6.60616">
        <ele>1329</ele>
        <time>2022-06-08T21:25:19Z</time>
      </trkpt>
      <trkpt lat="44.1076" lon="6.60553">
        <ele>1322</ele>
        <time>2022-06-08T21:25:33Z</time>
      </trkpt>
      <trkpt lat="44.10836" lon="6.60458">
        <ele>1321</ele>
        <time>2022-06-08T21:25:57Z</time>
      </trkpt>
      <trkpt lat="44.10865" lon="6.60444">
        <ele>1322</ele>
        <time>2022-06-08T21:26:04Z</time>
      </trkpt>
      <trkpt lat="44.10887" lon="6.60446">
        <ele>1329</ele>
        <time>2022-06-08T21:26:10Z</time>
      </trkpt>
      <trkpt lat="44.10917" lon="6.60446">
        <ele>1337</ele>
        <time>2022-06-08T21:26:17Z</time>
      </trkpt>
      <trkpt lat="44.10922" lon="6.60444">
        <ele>1339</ele>
        <time>2022-06-08T21:26:18Z</time>
      </trkpt>
      <trkpt lat="44.10928" lon="6.60435">
        <ele>1338</ele>
        <time>2022-06-08T21:26:20Z</time>
      </trkpt>
      <trkpt lat="44.10958" lon="6.6034">
        <ele>1327</ele>
        <time>2022-06-08T21:26:37Z</time>
      </trkpt>
      <trkpt lat="44.10975" lon="6.60312">
        <ele>1327</ele>
        <time>2022-06-08T21:26:43Z</time>
      </trkpt>
      <trkpt lat="44.11" lon="6.60281">
        <ele>1330</ele>
        <time>2022-06-08T21:26:51Z</time>
      </trkpt>
      <trkpt lat="44.11009" lon="6.60273">
        <ele>1331</ele>
        <time>2022-06-08T21:26:54Z</time>
      </trkpt>
      <trkpt lat="44.11016" lon="6.60273">
        <ele>1333</ele>
        <time>2022-06-08T21:26:55Z</time>
      </trkpt>
      <trkpt lat="44.11035" lon="6.60281">
        <ele>1340</ele>
        <time>2022-06-08T21:27:00Z</time>
      </trkpt>
      <trkpt lat="44.11043" lon="6.60277">
        <ele>1341</ele>
        <time>2022-06-08T21:27:02Z</time>
      </trkpt>
      <trkpt lat="44.11048" lon="6.60264">
        <ele>1340</ele>
        <time>2022-06-08T21:27:04Z</time>
      </trkpt>
      <trkpt lat="44.11055" lon="6.60257">
        <ele>1340</ele>
        <time>2022-06-08T21:27:07Z</time>
      </trkpt>
      <trkpt lat="44.11058" lon="6.60222">
        <ele>1332</ele>
        <time>2022-06-08T21:27:12Z</time>
      </trkpt>
      <trkpt lat="44.1108" lon="6.60171">
        <ele>1328</ele>
        <time>2022-06-08T21:27:22Z</time>
      </trkpt>
      <trkpt lat="44.11098" lon="6.6014">
        <ele>1326</ele>
        <time>2022-06-08T21:27:29Z</time>
      </trkpt>
      <trkpt lat="44.11105" lon="6.60116">
        <ele>1322</ele>
        <time>2022-06-08T21:27:33Z</time>
      </trkpt>
      <trkpt lat="44.1112" lon="6.60096">
        <ele>1323</ele>
        <time>2022-06-08T21:27:38Z</time>
      </trkpt>
      <trkpt lat="44.11122" lon="6.60082">
        <ele>1319</ele>
        <time>2022-06-08T21:27:41Z</time>
      </trkpt>
      <trkpt lat="44.11149" lon="6.60028">
        <ele>1319</ele>
        <time>2022-06-08T21:27:52Z</time>
      </trkpt>
      <trkpt lat="44.1115" lon="6.59994">
        <ele>1312</ele>
        <time>2022-06-08T21:27:57Z</time>
      </trkpt>
      <trkpt lat="44.11142" lon="6.59986">
        <ele>1307</ele>
        <time>2022-06-08T21:28:00Z</time>
      </trkpt>
      <trkpt lat="44.11138" lon="6.59975">
        <ele>1304</ele>
        <time>2022-06-08T21:28:02Z</time>
      </trkpt>
      <trkpt lat="44.11139" lon="6.59961">
        <ele>1302</ele>
        <time>2022-06-08T21:28:04Z</time>
      </trkpt>
      <trkpt lat="44.11145" lon="6.59932">
        <ele>1300</ele>
        <time>2022-06-08T21:28:09Z</time>
      </trkpt>
      <trkpt lat="44.11154" lon="6.59914">
        <ele>1302</ele>
        <time>2022-06-08T21:28:13Z</time>
      </trkpt>
      <trkpt lat="44.11166" lon="6.5984">
        <ele>1297</ele>
        <time>2022-06-08T21:28:26Z</time>
      </trkpt>
      <trkpt lat="44.11185" lon="6.59795">
        <ele>1297</ele>
        <time>2022-06-08T21:28:34Z</time>
      </trkpt>
      <trkpt lat="44.11193" lon="6.5977">
        <ele>1295</ele>
        <time>2022-06-08T21:28:39Z</time>
      </trkpt>
      <trkpt lat="44.11195" lon="6.5977">
        <ele>1296</ele>
        <time>2022-06-08T21:28:39Z</time>
      </trkpt>
      <trkpt lat="44.11194" lon="6.59767">
        <ele>1295</ele>
        <time>2022-06-08T21:28:40Z</time>
      </trkpt>
      <trkpt lat="44.11216" lon="6.59737">
        <ele>1298</ele>
        <time>2022-06-08T21:28:47Z</time>
      </trkpt>
      <trkpt lat="44.11229" lon="6.5973">
        <ele>1301</ele>
        <time>2022-06-08T21:28:50Z</time>
      </trkpt>
      <trkpt lat="44.11255" lon="6.59663">
        <ele>1299</ele>
        <time>2022-06-08T21:29:03Z</time>
      </trkpt>
      <trkpt lat="44.11281" lon="6.59607">
        <ele>1300</ele>
        <time>2022-06-08T21:29:14Z</time>
      </trkpt>
      <trkpt lat="44.11301" lon="6.59582">
        <ele>1304</ele>
        <time>2022-06-08T21:29:21Z</time>
      </trkpt>
      <trkpt lat="44.11315" lon="6.59548">
        <ele>1305</ele>
        <time>2022-06-08T21:29:27Z</time>
      </trkpt>
      <trkpt lat="44.11315" lon="6.59542">
        <ele>1305</ele>
        <time>2022-06-08T21:29:28Z</time>
      </trkpt>
      <trkpt lat="44.11331" lon="6.5949">
        <ele>1305</ele>
        <time>2022-06-08T21:29:38Z</time>
      </trkpt>
      <trkpt lat="44.11343" lon="6.5946">
        <ele>1306</ele>
        <time>2022-06-08T21:29:43Z</time>
      </trkpt>
      <trkpt lat="44.11371" lon="6.59413">
        <ele>1311</ele>
        <time>2022-06-08T21:29:54Z</time>
      </trkpt>
      <trkpt lat="44.11392" lon="6.59367">
        <ele>1312</ele>
        <time>2022-06-08T21:30:03Z</time>
      </trkpt>
      <trkpt lat="44.1143" lon="6.59308">
        <ele>1317</ele>
        <time>2022-06-08T21:30:16Z</time>
      </trkpt>
      <trkpt lat="44.1145" lon="6.59266">
        <ele>1317</ele>
        <time>2022-06-08T21:30:25Z</time>
      </trkpt>
      <trkpt lat="44.1146" lon="6.59238">
        <ele>1315</ele>
        <time>2022-06-08T21:30:30Z</time>
      </trkpt>
      <trkpt lat="44.11484" lon="6.59211">
        <ele>1318</ele>
        <time>2022-06-08T21:30:37Z</time>
      </trkpt>
      <trkpt lat="44.11546" lon="6.59167">
        <ele>1324</ele>
        <time>2022-06-08T21:30:53Z</time>
      </trkpt>
      <trkpt lat="44.1159" lon="6.59127">
        <ele>1326</ele>
        <time>2022-06-08T21:31:06Z</time>
      </trkpt>
      <trkpt lat="44.11625" lon="6.59142">
        <ele>1333</ele>
        <time>2022-06-08T21:31:14Z</time>
      </trkpt>
      <trkpt lat="44.11642" lon="6.59154">
        <ele>1338</ele>
        <time>2022-06-08T21:31:19Z</time>
      </trkpt>
      <trkpt lat="44.11648" lon="6.59155">
        <ele>1339</ele>
        <time>2022-06-08T21:31:20Z</time>
      </trkpt>
      <trkpt lat="44.11649" lon="6.59159">
        <ele>1340</ele>
        <time>2022-06-08T21:31:21Z</time>
      </trkpt>
      <trkpt lat="44.11646" lon="6.59154">
        <ele>1339</ele>
        <time>2022-06-08T21:31:22Z</time>
      </trkpt>
      <trkpt lat="44.11648" lon="6.59163">
        <ele>1341</ele>
        <time>2022-06-08T21:31:23Z</time>
      </trkpt>
      <trkpt lat="44.11644" lon="6.5916">
        <ele>1340</ele>
        <time>2022-06-08T21:31:24Z</time>
      </trkpt>
      <trkpt lat="44.11646" lon="6.5916">
        <ele>1340</ele>
        <time>2022-06-08T21:31:25Z</time>
      </trkpt>
      <trkpt lat="44.11646" lon="6.59157">
        <ele>1339</ele>
        <time>2022-06-08T21:31:25Z</time>
      </trkpt>
      <trkpt lat="44.11629" lon="6.59139">
        <ele>1333</ele>
        <time>2022-06-08T21:31:30Z</time>
      </trkpt>
      <trkpt lat="44.11641" lon="6.59133">
        <ele>1332</ele>
        <time>2022-06-08T21:31:33Z</time>
      </trkpt>
      <trkpt lat="44.11655" lon="6.59121">
        <ele>1330</ele>
        <time>2022-06-08T21:31:37Z</time>
      </trkpt>
      <trkpt lat="44.11675" lon="6.5909">
        <ele>1322</ele>
        <time>2022-06-08T21:31:44Z</time>
      </trkpt>
      <trkpt lat="44.11705" lon="6.59074">
        <ele>1315</ele>
        <time>2022-06-08T21:31:52Z</time>
      </trkpt>
      <trkpt lat="44.11751" lon="6.59062">
        <ele>1307</ele>
        <time>2022-06-08T21:32:03Z</time>
      </trkpt>
      <trkpt lat="44.11796" lon="6.59069">
        <ele>1309</ele>
        <time>2022-06-08T21:32:13Z</time>
      </trkpt>
      <trkpt lat="44.11808" lon="6.59066">
        <ele>1307</ele>
        <time>2022-06-08T21:32:16Z</time>
      </trkpt>
      <trkpt lat="44.11831" lon="6.59065">
        <ele>1306</ele>
        <time>2022-06-08T21:32:21Z</time>
      </trkpt>
      <trkpt lat="44.11855" lon="6.59056">
        <ele>1306</ele>
        <time>2022-06-08T21:32:27Z</time>
      </trkpt>
      <trkpt lat="44.11904" lon="6.58998">
        <ele>1289</ele>
        <time>2022-06-08T21:32:42Z</time>
      </trkpt>
      <trkpt lat="44.11922" lon="6.5898">
        <ele>1286</ele>
        <time>2022-06-08T21:32:47Z</time>
      </trkpt>
      <trkpt lat="44.11935" lon="6.5897">
        <ele>1283</ele>
        <time>2022-06-08T21:32:51Z</time>
      </trkpt>
      <trkpt lat="44.11972" lon="6.58955">
        <ele>1280</ele>
        <time>2022-06-08T21:33:00Z</time>
      </trkpt>
      <trkpt lat="44.11983" lon="6.58946">
        <ele>1277</ele>
        <time>2022-06-08T21:33:03Z</time>
      </trkpt>
      <trkpt lat="44.12001" lon="6.58945">
        <ele>1277</ele>
        <time>2022-06-08T21:33:07Z</time>
      </trkpt>
      <trkpt lat="44.12042" lon="6.58949">
        <ele>1276</ele>
        <time>2022-06-08T21:33:17Z</time>
      </trkpt>
      <trkpt lat="44.12086" lon="6.58937">
        <ele>1269</ele>
        <time>2022-06-08T21:33:27Z</time>
      </trkpt>
      <trkpt lat="44.12099" lon="6.58938">
        <ele>1267</ele>
        <time>2022-06-08T21:33:30Z</time>
      </trkpt>
      <trkpt lat="44.12111" lon="6.58935">
        <ele>1263</ele>
        <time>2022-06-08T21:33:33Z</time>
      </trkpt>
      <trkpt lat="44.12137" lon="6.58934">
        <ele>1257</ele>
        <time>2022-06-08T21:33:39Z</time>
      </trkpt>
      <trkpt lat="44.12164" lon="6.58941">
        <ele>1254</ele>
        <time>2022-06-08T21:33:45Z</time>
      </trkpt>
      <trkpt lat="44.1217" lon="6.58957">
        <ele>1259</ele>
        <time>2022-06-08T21:33:48Z</time>
      </trkpt>
      <trkpt lat="44.12175" lon="6.58956">
        <ele>1258</ele>
        <time>2022-06-08T21:33:50Z</time>
      </trkpt>
      <trkpt lat="44.12179" lon="6.58952">
        <ele>1256</ele>
        <time>2022-06-08T21:33:51Z</time>
      </trkpt>
      <trkpt lat="44.1219" lon="6.58953">
        <ele>1255</ele>
        <time>2022-06-08T21:33:53Z</time>
      </trkpt>
      <trkpt lat="44.12219" lon="6.58979">
        <ele>1259</ele>
        <time>2022-06-08T21:34:01Z</time>
      </trkpt>
      <trkpt lat="44.12226" lon="6.58999">
        <ele>1263</ele>
        <time>2022-06-08T21:34:05Z</time>
      </trkpt>
      <trkpt lat="44.12244" lon="6.58997">
        <ele>1259</ele>
        <time>2022-06-08T21:34:09Z</time>
      </trkpt>
      <trkpt lat="44.12269" lon="6.5901">
        <ele>1262</ele>
        <time>2022-06-08T21:34:16Z</time>
      </trkpt>
      <trkpt lat="44.1229" lon="6.59025">
        <ele>1267</ele>
        <time>2022-06-08T21:34:21Z</time>
      </trkpt>
      <trkpt lat="44.12327" lon="6.59039">
        <ele>1268</ele>
        <time>2022-06-08T21:34:30Z</time>
      </trkpt>
      <trkpt lat="44.12366" lon="6.59032">
        <ele>1264</ele>
        <time>2022-06-08T21:34:39Z</time>
      </trkpt>
      <trkpt lat="44.1238" lon="6.5901">
        <ele>1257</ele>
        <time>2022-06-08T21:34:44Z</time>
      </trkpt>
      <trkpt lat="44.12388" lon="6.59003">
        <ele>1255</ele>
        <time>2022-06-08T21:34:46Z</time>
      </trkpt>
      <trkpt lat="44.12417" lon="6.58994">
        <ele>1249</ele>
        <time>2022-06-08T21:34:53Z</time>
      </trkpt>
      <trkpt lat="44.12428" lon="6.58985">
        <ele>1244</ele>
        <time>2022-06-08T21:34:56Z</time>
      </trkpt>
      <trkpt lat="44.12432" lon="6.58984">
        <ele>1243</ele>
        <time>2022-06-08T21:34:57Z</time>
      </trkpt>
      <trkpt lat="44.12445" lon="6.58991">
        <ele>1245</ele>
        <time>2022-06-08T21:35:01Z</time>
      </trkpt>
      <trkpt lat="44.12463" lon="6.58989">
        <ele>1242</ele>
        <time>2022-06-08T21:35:05Z</time>
      </trkpt>
      <trkpt lat="44.12466" lon="6.58983">
        <ele>1239</ele>
        <time>2022-06-08T21:35:06Z</time>
      </trkpt>
      <trkpt lat="44.12466" lon="6.58967">
        <ele>1232</ele>
        <time>2022-06-08T21:35:09Z</time>
      </trkpt>
      <trkpt lat="44.12484" lon="6.58976">
        <ele>1234</ele>
        <time>2022-06-08T21:35:13Z</time>
      </trkpt>
      <trkpt lat="44.12501" lon="6.58975">
        <ele>1231</ele>
        <time>2022-06-08T21:35:17Z</time>
      </trkpt>
      <trkpt lat="44.12515" lon="6.5898">
        <ele>1230</ele>
        <time>2022-06-08T21:35:20Z</time>
      </trkpt>
      <trkpt lat="44.12528" lon="6.5898">
        <ele>1226</ele>
        <time>2022-06-08T21:35:24Z</time>
      </trkpt>
      <trkpt lat="44.12552" lon="6.59005">
        <ele>1228</ele>
        <time>2022-06-08T21:35:31Z</time>
      </trkpt>
      <trkpt lat="44.12549" lon="6.58999">
        <ele>1227</ele>
        <time>2022-06-08T21:35:32Z</time>
      </trkpt>
      <trkpt lat="44.12541" lon="6.58993">
        <ele>1227</ele>
        <time>2022-06-08T21:35:34Z</time>
      </trkpt>
      <trkpt lat="44.12552" lon="6.59023">
        <ele>1232</ele>
        <time>2022-06-08T21:35:40Z</time>
      </trkpt>
      <trkpt lat="44.12567" lon="6.59035">
        <ele>1230</ele>
        <time>2022-06-08T21:35:44Z</time>
      </trkpt>
      <trkpt lat="44.12581" lon="6.5904">
        <ele>1227</ele>
        <time>2022-06-08T21:35:47Z</time>
      </trkpt>
      <trkpt lat="44.12592" lon="6.59049">
        <ele>1226</ele>
        <time>2022-06-08T21:35:50Z</time>
      </trkpt>
      <trkpt lat="44.12605" lon="6.5905">
        <ele>1224</ele>
        <time>2022-06-08T21:35:53Z</time>
      </trkpt>
      <trkpt lat="44.12629" lon="6.59084">
        <ele>1224</ele>
        <time>2022-06-08T21:36:01Z</time>
      </trkpt>
      <trkpt lat="44.12674" lon="6.59104">
        <ele>1212</ele>
        <time>2022-06-08T21:36:12Z</time>
      </trkpt>
      <trkpt lat="44.12683" lon="6.59117">
        <ele>1209</ele>
        <time>2022-06-08T21:36:15Z</time>
      </trkpt>
      <trkpt lat="44.12691" lon="6.59144">
        <ele>1208</ele>
        <time>2022-06-08T21:36:20Z</time>
      </trkpt>
      <trkpt lat="44.12714" lon="6.59195">
        <ele>1203</ele>
        <time>2022-06-08T21:36:30Z</time>
      </trkpt>
      <trkpt lat="44.12719" lon="6.59198">
        <ele>1202</ele>
        <time>2022-06-08T21:36:31Z</time>
      </trkpt>
      <trkpt lat="44.12728" lon="6.59195">
        <ele>1199</ele>
        <time>2022-06-08T21:36:33Z</time>
      </trkpt>
      <trkpt lat="44.12736" lon="6.59196">
        <ele>1196</ele>
        <time>2022-06-08T21:36:35Z</time>
      </trkpt>
      <trkpt lat="44.12755" lon="6.59203">
        <ele>1191</ele>
        <time>2022-06-08T21:36:40Z</time>
      </trkpt>
      <trkpt lat="44.12791" lon="6.59226">
        <ele>1185</ele>
        <time>2022-06-08T21:36:49Z</time>
      </trkpt>
      <trkpt lat="44.128" lon="6.59241">
        <ele>1183</ele>
        <time>2022-06-08T21:36:52Z</time>
      </trkpt>
      <trkpt lat="44.12804" lon="6.59241">
        <ele>1182</ele>
        <time>2022-06-08T21:36:53Z</time>
      </trkpt>
      <trkpt lat="44.12807" lon="6.59238">
        <ele>1182</ele>
        <time>2022-06-08T21:36:54Z</time>
      </trkpt>
      <trkpt lat="44.12815" lon="6.59242">
        <ele>1180</ele>
        <time>2022-06-08T21:36:56Z</time>
      </trkpt>
      <trkpt lat="44.12824" lon="6.59238">
        <ele>1178</ele>
        <time>2022-06-08T21:36:58Z</time>
      </trkpt>
      <trkpt lat="44.12841" lon="6.59207">
        <ele>1174</ele>
        <time>2022-06-08T21:37:05Z</time>
      </trkpt>
      <trkpt lat="44.12856" lon="6.59205">
        <ele>1173</ele>
        <time>2022-06-08T21:37:08Z</time>
      </trkpt>
      <trkpt lat="44.1286" lon="6.59258">
        <ele>1177</ele>
        <time>2022-06-08T21:37:17Z</time>
      </trkpt>
      <trkpt lat="44.12884" lon="6.59258">
        <ele>1177</ele>
        <time>2022-06-08T21:37:23Z</time>
      </trkpt>
      <trkpt lat="44.12911" lon="6.59228">
        <ele>1174</ele>
        <time>2022-06-08T21:37:31Z</time>
      </trkpt>
      <trkpt lat="44.1295" lon="6.59171">
        <ele>1170</ele>
        <time>2022-06-08T21:37:44Z</time>
      </trkpt>
      <trkpt lat="44.12954" lon="6.59175">
        <ele>1171</ele>
        <time>2022-06-08T21:37:45Z</time>
      </trkpt>
      <trkpt lat="44.12951" lon="6.59196">
        <ele>1172</ele>
        <time>2022-06-08T21:37:49Z</time>
      </trkpt>
      <trkpt lat="44.12995" lon="6.59234">
        <ele>1177</ele>
        <time>2022-06-08T21:38:01Z</time>
      </trkpt>
      <trkpt lat="44.13041" lon="6.59251">
        <ele>1176</ele>
        <time>2022-06-08T21:38:12Z</time>
      </trkpt>
      <trkpt lat="44.1305" lon="6.59252">
        <ele>1175</ele>
        <time>2022-06-08T21:38:14Z</time>
      </trkpt>
      <trkpt lat="44.1306" lon="6.59251">
        <ele>1175</ele>
        <time>2022-06-08T21:38:17Z</time>
      </trkpt>
      <trkpt lat="44.13093" lon="6.5924">
        <ele>1171</ele>
        <time>2022-06-08T21:38:25Z</time>
      </trkpt>
      <trkpt lat="44.13116" lon="6.59238">
        <ele>1170</ele>
        <time>2022-06-08T21:38:30Z</time>
      </trkpt>
      <trkpt lat="44.13126" lon="6.59242">
        <ele>1169</ele>
        <time>2022-06-08T21:38:32Z</time>
      </trkpt>
      <trkpt lat="44.13142" lon="6.59239">
        <ele>1167</ele>
        <time>2022-06-08T21:38:36Z</time>
      </trkpt>
      <trkpt lat="44.13176" lon="6.59209">
        <ele>1164</ele>
        <time>2022-06-08T21:38:46Z</time>
      </trkpt>
      <trkpt lat="44.132" lon="6.59194">
        <ele>1162</ele>
        <time>2022-06-08T21:38:52Z</time>
      </trkpt>
      <trkpt lat="44.13268" lon="6.59166">
        <ele>1158</ele>
        <time>2022-06-08T21:39:08Z</time>
      </trkpt>
      <trkpt lat="44.13337" lon="6.59176">
        <ele>1160</ele>
        <time>2022-06-08T21:39:24Z</time>
      </trkpt>
      <trkpt lat="44.13349" lon="6.59176">
        <ele>1159</ele>
        <time>2022-06-08T21:39:27Z</time>
      </trkpt>
      <trkpt lat="44.13392" lon="6.59166">
        <ele>1154</ele>
        <time>2022-06-08T21:39:37Z</time>
      </trkpt>
      <trkpt lat="44.13439" lon="6.59186">
        <ele>1158</ele>
        <time>2022-06-08T21:39:49Z</time>
      </trkpt>
      <trkpt lat="44.13455" lon="6.59189">
        <ele>1159</ele>
        <time>2022-06-08T21:39:53Z</time>
      </trkpt>
      <trkpt lat="44.1348" lon="6.59185">
        <ele>1157</ele>
        <time>2022-06-08T21:39:59Z</time>
      </trkpt>
      <trkpt lat="44.13494" lon="6.59186">
        <ele>1157</ele>
        <time>2022-06-08T21:40:02Z</time>
      </trkpt>
      <trkpt lat="44.13511" lon="6.59191">
        <ele>1156</ele>
        <time>2022-06-08T21:40:06Z</time>
      </trkpt>
      <trkpt lat="44.13584" lon="6.59243">
        <ele>1158</ele>
        <time>2022-06-08T21:40:25Z</time>
      </trkpt>
      <trkpt lat="44.13595" lon="6.59269">
        <ele>1163</ele>
        <time>2022-06-08T21:40:30Z</time>
      </trkpt>
      <trkpt lat="44.13593" lon="6.59293">
        <ele>1169</ele>
        <time>2022-06-08T21:40:34Z</time>
      </trkpt>
      <trkpt lat="44.13601" lon="6.59297">
        <ele>1169</ele>
        <time>2022-06-08T21:40:36Z</time>
      </trkpt>
      <trkpt lat="44.13607" lon="6.59306">
        <ele>1170</ele>
        <time>2022-06-08T21:40:38Z</time>
      </trkpt>
      <trkpt lat="44.13639" lon="6.59328">
        <ele>1167</ele>
        <time>2022-06-08T21:40:47Z</time>
      </trkpt>
      <trkpt lat="44.13643" lon="6.59334">
        <ele>1168</ele>
        <time>2022-06-08T21:40:48Z</time>
      </trkpt>
      <trkpt lat="44.13656" lon="6.59332">
        <ele>1164</ele>
        <time>2022-06-08T21:40:51Z</time>
      </trkpt>
      <trkpt lat="44.13661" lon="6.59358">
        <ele>1168</ele>
        <time>2022-06-08T21:40:55Z</time>
      </trkpt>
      <trkpt lat="44.13665" lon="6.59365">
        <ele>1168</ele>
        <time>2022-06-08T21:40:57Z</time>
      </trkpt>
      <trkpt lat="44.13678" lon="6.59376">
        <ele>1168</ele>
        <time>2022-06-08T21:41:01Z</time>
      </trkpt>
      <trkpt lat="44.1379" lon="6.59453">
        <ele>1163</ele>
        <time>2022-06-08T21:41:30Z</time>
      </trkpt>
      <trkpt lat="44.13814" lon="6.59472">
        <ele>1164</ele>
        <time>2022-06-08T21:41:36Z</time>
      </trkpt>
      <trkpt lat="44.1386" lon="6.59518">
        <ele>1169</ele>
        <time>2022-06-08T21:41:49Z</time>
      </trkpt>
      <trkpt lat="44.13882" lon="6.59536">
        <ele>1170</ele>
        <time>2022-06-08T21:41:55Z</time>
      </trkpt>
      <trkpt lat="44.13916" lon="6.59545">
        <ele>1165</ele>
        <time>2022-06-08T21:42:03Z</time>
      </trkpt>
      <trkpt lat="44.13954" lon="6.59548">
        <ele>1162</ele>
        <time>2022-06-08T21:42:12Z</time>
      </trkpt>
      <trkpt lat="44.14086" lon="6.59551">
        <ele>1156</ele>
        <time>2022-06-08T21:42:43Z</time>
      </trkpt>
      <trkpt lat="44.14172" lon="6.59576">
        <ele>1155</ele>
        <time>2022-06-08T21:43:04Z</time>
      </trkpt>
      <trkpt lat="44.14243" lon="6.596">
        <ele>1157</ele>
        <time>2022-06-08T21:43:21Z</time>
      </trkpt>
      <trkpt lat="44.14265" lon="6.59603">
        <ele>1157</ele>
        <time>2022-06-08T21:43:26Z</time>
      </trkpt>
      <trkpt lat="44.14277" lon="6.5957">
        <ele>1153</ele>
        <time>2022-06-08T21:43:32Z</time>
      </trkpt>
      <trkpt lat="44.14305" lon="6.5947">
        <ele>1152</ele>
        <time>2022-06-08T21:43:50Z</time>
      </trkpt>
      <trkpt lat="44.1433" lon="6.59392">
        <ele>1154</ele>
        <time>2022-06-08T21:44:04Z</time>
      </trkpt>
      <trkpt lat="44.14333" lon="6.5937">
        <ele>1156</ele>
        <time>2022-06-08T21:44:08Z</time>
      </trkpt>
      <trkpt lat="44.14353" lon="6.59309">
        <ele>1161</ele>
        <time>2022-06-08T21:44:19Z</time>
      </trkpt>
      <trkpt lat="44.14371" lon="6.5929">
        <ele>1164</ele>
        <time>2022-06-08T21:44:25Z</time>
      </trkpt>
      <trkpt lat="44.14396" lon="6.59277">
        <ele>1166</ele>
        <time>2022-06-08T21:44:31Z</time>
      </trkpt>
      <trkpt lat="44.14397" lon="6.59281">
        <ele>1166</ele>
        <time>2022-06-08T21:44:32Z</time>
      </trkpt>
      <trkpt lat="44.14399" lon="6.59276">
        <ele>1166</ele>
        <time>2022-06-08T21:44:33Z</time>
      </trkpt>
      <trkpt lat="44.14399" lon="6.59286">
        <ele>1166</ele>
        <time>2022-06-08T21:44:34Z</time>
      </trkpt>
      <trkpt lat="44.14397" lon="6.59283">
        <ele>1166</ele>
        <time>2022-06-08T21:44:35Z</time>
      </trkpt>
      <trkpt lat="44.14397" lon="6.59285">
        <ele>1166</ele>
        <time>2022-06-08T21:44:35Z</time>
      </trkpt>
      <trkpt lat="44.14399" lon="6.59281">
        <ele>1166</ele>
        <time>2022-06-08T21:44:36Z</time>
      </trkpt>
      <trkpt lat="44.14397" lon="6.59274">
        <ele>1166</ele>
        <time>2022-06-08T21:44:37Z</time>
      </trkpt>
      <trkpt lat="44.14395" lon="6.59281">
        <ele>1166</ele>
        <time>2022-06-08T21:44:39Z</time>
      </trkpt>
      <trkpt lat="44.14398" lon="6.5928">
        <ele>1166</ele>
        <time>2022-06-08T21:44:39Z</time>
      </trkpt>
      <trkpt lat="44.14396" lon="6.59274">
        <ele>1166</ele>
        <time>2022-06-08T21:44:40Z</time>
      </trkpt>
      <trkpt lat="44.14383" lon="6.5925">
        <ele>1168</ele>
        <time>2022-06-08T21:44:45Z</time>
      </trkpt>
      <trkpt lat="44.14343" lon="6.59235">
        <ele>1169</ele>
        <time>2022-06-08T21:44:55Z</time>
      </trkpt>
      <trkpt lat="44.14317" lon="6.59222">
        <ele>1169</ele>
        <time>2022-06-08T21:45:02Z</time>
      </trkpt>
      <trkpt lat="44.14293" lon="6.59185">
        <ele>1173</ele>
        <time>2022-06-08T21:45:10Z</time>
      </trkpt>
      <trkpt lat="44.14289" lon="6.59183">
        <ele>1173</ele>
        <time>2022-06-08T21:45:11Z</time>
      </trkpt>
      <trkpt lat="44.14284" lon="6.59186">
        <ele>1172</ele>
        <time>2022-06-08T21:45:12Z</time>
      </trkpt>
      <trkpt lat="44.14286" lon="6.59188">
        <ele>1172</ele>
        <time>2022-06-08T21:45:13Z</time>
      </trkpt>
      <trkpt lat="44.14284" lon="6.59192">
        <ele>1171</ele>
        <time>2022-06-08T21:45:14Z</time>
      </trkpt>
      <trkpt lat="44.14286" lon="6.59185">
        <ele>1172</ele>
        <time>2022-06-08T21:45:15Z</time>
      </trkpt>
      <trkpt lat="44.14291" lon="6.59179">
        <ele>1174</ele>
        <time>2022-06-08T21:45:16Z</time>
      </trkpt>
      <trkpt lat="44.14289" lon="6.59178">
        <ele>1174</ele>
        <time>2022-06-08T21:45:17Z</time>
      </trkpt>
      <trkpt lat="44.14295" lon="6.59187">
        <ele>1173</ele>
        <time>2022-06-08T21:45:19Z</time>
      </trkpt>
      <trkpt lat="44.14299" lon="6.59183">
        <ele>1174</ele>
        <time>2022-06-08T21:45:20Z</time>
      </trkpt>
      <trkpt lat="44.14299" lon="6.59175">
        <ele>1175</ele>
        <time>2022-06-08T21:45:21Z</time>
      </trkpt>
      <trkpt lat="44.14306" lon="6.5915">
        <ele>1178</ele>
        <time>2022-06-08T21:45:26Z</time>
      </trkpt>
      <trkpt lat="44.14319" lon="6.59115">
        <ele>1182</ele>
        <time>2022-06-08T21:45:33Z</time>
      </trkpt>
      <trkpt lat="44.14314" lon="6.5906">
        <ele>1186</ele>
        <time>2022-06-08T21:45:42Z</time>
      </trkpt>
      <trkpt lat="44.14315" lon="6.59048">
        <ele>1186</ele>
        <time>2022-06-08T21:45:44Z</time>
      </trkpt>
      <trkpt lat="44.14343" lon="6.59015">
        <ele>1190</ele>
        <time>2022-06-08T21:45:52Z</time>
      </trkpt>
      <trkpt lat="44.14362" lon="6.58973">
        <ele>1195</ele>
        <time>2022-06-08T21:46:01Z</time>
      </trkpt>
      <trkpt lat="44.14373" lon="6.58955">
        <ele>1198</ele>
        <time>2022-06-08T21:46:05Z</time>
      </trkpt>
      <trkpt lat="44.14424" lon="6.58893">
        <ele>1210</ele>
        <time>2022-06-08T21:46:20Z</time>
      </trkpt>
      <trkpt lat="44.14449" lon="6.58843">
        <ele>1214</ele>
        <time>2022-06-08T21:46:31Z</time>
      </trkpt>
      <trkpt lat="44.14457" lon="6.58813">
        <ele>1218</ele>
        <time>2022-06-08T21:46:36Z</time>
      </trkpt>
      <trkpt lat="44.14457" lon="6.58804">
        <ele>1220</ele>
        <time>2022-06-08T21:46:38Z</time>
      </trkpt>
      <trkpt lat="44.14496" lon="6.58785">
        <ele>1222</ele>
        <time>2022-06-08T21:46:47Z</time>
      </trkpt>
      <trkpt lat="44.14498" lon="6.58754">
        <ele>1227</ele>
        <time>2022-06-08T21:46:52Z</time>
      </trkpt>
      <trkpt lat="44.1451" lon="6.58724">
        <ele>1234</ele>
        <time>2022-06-08T21:46:58Z</time>
      </trkpt>
      <trkpt lat="44.14529" lon="6.58705">
        <ele>1239</ele>
        <time>2022-06-08T21:47:04Z</time>
      </trkpt>
      <trkpt lat="44.14534" lon="6.58687">
        <ele>1243</ele>
        <time>2022-06-08T21:47:07Z</time>
      </trkpt>
      <trkpt lat="44.14526" lon="6.5868">
        <ele>1245</ele>
        <time>2022-06-08T21:47:09Z</time>
      </trkpt>
      <trkpt lat="44.14509" lon="6.58687">
        <ele>1243</ele>
        <time>2022-06-08T21:47:13Z</time>
      </trkpt>
      <trkpt lat="44.14484" lon="6.58708">
        <ele>1238</ele>
        <time>2022-06-08T21:47:20Z</time>
      </trkpt>
      <trkpt lat="44.14476" lon="6.58711">
        <ele>1238</ele>
        <time>2022-06-08T21:47:22Z</time>
      </trkpt>
      <trkpt lat="44.14445" lon="6.587">
        <ele>1242</ele>
        <time>2022-06-08T21:47:29Z</time>
      </trkpt>
      <trkpt lat="44.14391" lon="6.58698">
        <ele>1241</ele>
        <time>2022-06-08T21:47:42Z</time>
      </trkpt>
      <trkpt lat="44.14366" lon="6.58692">
        <ele>1241</ele>
        <time>2022-06-08T21:47:48Z</time>
      </trkpt>
      <trkpt lat="44.14337" lon="6.5867">
        <ele>1244</ele>
        <time>2022-06-08T21:47:56Z</time>
      </trkpt>
      <trkpt lat="44.14313" lon="6.58643">
        <ele>1246</ele>
        <time>2022-06-08T21:48:03Z</time>
      </trkpt>
      <trkpt lat="44.14304" lon="6.5861">
        <ele>1252</ele>
        <time>2022-06-08T21:48:09Z</time>
      </trkpt>
      <trkpt lat="44.14289" lon="6.58569">
        <ele>1257</ele>
        <time>2022-06-08T21:48:17Z</time>
      </trkpt>
      <trkpt lat="44.14272" lon="6.58544">
        <ele>1257</ele>
        <time>2022-06-08T21:48:22Z</time>
      </trkpt>
      <trkpt lat="44.14248" lon="6.5852">
        <ele>1257</ele>
        <time>2022-06-08T21:48:29Z</time>
      </trkpt>
      <trkpt lat="44.14235" lon="6.58481">
        <ele>1259</ele>
        <time>2022-06-08T21:48:36Z</time>
      </trkpt>
      <trkpt lat="44.14249" lon="6.58462">
        <ele>1262</ele>
        <time>2022-06-08T21:48:41Z</time>
      </trkpt>
      <trkpt lat="44.14338" lon="6.58465">
        <ele>1271</ele>
        <time>2022-06-08T21:49:02Z</time>
      </trkpt>
      <trkpt lat="44.14367" lon="6.58456">
        <ele>1275</ele>
        <time>2022-06-08T21:49:09Z</time>
      </trkpt>
      <trkpt lat="44.144" lon="6.58461">
        <ele>1278</ele>
        <time>2022-06-08T21:49:16Z</time>
      </trkpt>
      <trkpt lat="44.14427" lon="6.58493">
        <ele>1278</ele>
        <time>2022-06-08T21:49:25Z</time>
      </trkpt>
      <trkpt lat="44.14455" lon="6.58488">
        <ele>1280</ele>
        <time>2022-06-08T21:49:31Z</time>
      </trkpt>
      <trkpt lat="44.14531" lon="6.58425">
        <ele>1284</ele>
        <time>2022-06-08T21:49:52Z</time>
      </trkpt>
      <trkpt lat="44.14551" lon="6.58354">
        <ele>1288</ele>
        <time>2022-06-08T21:50:05Z</time>
      </trkpt>
      <trkpt lat="44.14559" lon="6.58339">
        <ele>1289</ele>
        <time>2022-06-08T21:50:08Z</time>
      </trkpt>
      <trkpt lat="44.1463" lon="6.58247">
        <ele>1296</ele>
        <time>2022-06-08T21:50:31Z</time>
      </trkpt>
      <trkpt lat="44.14635" lon="6.58217">
        <ele>1300</ele>
        <time>2022-06-08T21:50:36Z</time>
      </trkpt>
      <trkpt lat="44.14618" lon="6.58178">
        <ele>1304</ele>
        <time>2022-06-08T21:50:43Z</time>
      </trkpt>
      <trkpt lat="44.1458" lon="6.58111">
        <ele>1314</ele>
        <time>2022-06-08T21:50:58Z</time>
      </trkpt>
      <trkpt lat="44.14574" lon="6.58089">
        <ele>1318</ele>
        <time>2022-06-08T21:51:02Z</time>
      </trkpt>
      <trkpt lat="44.14576" lon="6.58083">
        <ele>1319</ele>
        <time>2022-06-08T21:51:03Z</time>
      </trkpt>
      <trkpt lat="44.14593" lon="6.58077">
        <ele>1321</ele>
        <time>2022-06-08T21:51:07Z</time>
      </trkpt>
      <trkpt lat="44.14622" lon="6.58088">
        <ele>1321</ele>
        <time>2022-06-08T21:51:14Z</time>
      </trkpt>
      <trkpt lat="44.14645" lon="6.58092">
        <ele>1322</ele>
        <time>2022-06-08T21:51:19Z</time>
      </trkpt>
      <trkpt lat="44.14669" lon="6.58082">
        <ele>1325</ele>
        <time>2022-06-08T21:51:25Z</time>
      </trkpt>
      <trkpt lat="44.14689" lon="6.58053">
        <ele>1330</ele>
        <time>2022-06-08T21:51:32Z</time>
      </trkpt>
      <trkpt lat="44.1471" lon="6.58034">
        <ele>1333</ele>
        <time>2022-06-08T21:51:38Z</time>
      </trkpt>
      <trkpt lat="44.14732" lon="6.58025">
        <ele>1334</ele>
        <time>2022-06-08T21:51:43Z</time>
      </trkpt>
      <trkpt lat="44.14759" lon="6.58035">
        <ele>1331</ele>
        <time>2022-06-08T21:51:50Z</time>
      </trkpt>
      <trkpt lat="44.14779" lon="6.5802">
        <ele>1332</ele>
        <time>2022-06-08T21:51:55Z</time>
      </trkpt>
      <trkpt lat="44.14796" lon="6.57998">
        <ele>1334</ele>
        <time>2022-06-08T21:52:00Z</time>
      </trkpt>
      <trkpt lat="44.14828" lon="6.57966">
        <ele>1335</ele>
        <time>2022-06-08T21:52:09Z</time>
      </trkpt>
      <trkpt lat="44.14837" lon="6.57941">
        <ele>1338</ele>
        <time>2022-06-08T21:52:14Z</time>
      </trkpt>
      <trkpt lat="44.14822" lon="6.57907">
        <ele>1345</ele>
        <time>2022-06-08T21:52:21Z</time>
      </trkpt>
      <trkpt lat="44.14811" lon="6.57901">
        <ele>1348</ele>
        <time>2022-06-08T21:52:24Z</time>
      </trkpt>
      <trkpt lat="44.14795" lon="6.57903">
        <ele>1350</ele>
        <time>2022-06-08T21:52:27Z</time>
      </trkpt>
      <trkpt lat="44.14775" lon="6.57914">
        <ele>1350</ele>
        <time>2022-06-08T21:52:32Z</time>
      </trkpt>
      <trkpt lat="44.14769" lon="6.57915">
        <ele>1351</ele>
        <time>2022-06-08T21:52:34Z</time>
      </trkpt>
      <trkpt lat="44.14761" lon="6.57901">
        <ele>1355</ele>
        <time>2022-06-08T21:52:37Z</time>
      </trkpt>
      <trkpt lat="44.1477" lon="6.5788">
        <ele>1358</ele>
        <time>2022-06-08T21:52:41Z</time>
      </trkpt>
      <trkpt lat="44.14777" lon="6.57871">
        <ele>1359</ele>
        <time>2022-06-08T21:52:43Z</time>
      </trkpt>
      <trkpt lat="44.14815" lon="6.5784">
        <ele>1360</ele>
        <time>2022-06-08T21:52:53Z</time>
      </trkpt>
      <trkpt lat="44.14825" lon="6.57821">
        <ele>1362</ele>
        <time>2022-06-08T21:52:57Z</time>
      </trkpt>
      <trkpt lat="44.14828" lon="6.57802">
        <ele>1365</ele>
        <time>2022-06-08T21:53:01Z</time>
      </trkpt>
      <trkpt lat="44.14851" lon="6.57738">
        <ele>1374</ele>
        <time>2022-06-08T21:53:13Z</time>
      </trkpt>
      <trkpt lat="44.14905" lon="6.57694">
        <ele>1377</ele>
        <time>2022-06-08T21:53:27Z</time>
      </trkpt>
      <trkpt lat="44.14939" lon="6.57671">
        <ele>1381</ele>
        <time>2022-06-08T21:53:36Z</time>
      </trkpt>
      <trkpt lat="44.14948" lon="6.57662">
        <ele>1383</ele>
        <time>2022-06-08T21:53:39Z</time>
      </trkpt>
      <trkpt lat="44.1495" lon="6.57656">
        <ele>1384</ele>
        <time>2022-06-08T21:53:40Z</time>
      </trkpt>
      <trkpt lat="44.14949" lon="6.57647">
        <ele>1386</ele>
        <time>2022-06-08T21:53:41Z</time>
      </trkpt>
      <trkpt lat="44.14941" lon="6.57642">
        <ele>1387</ele>
        <time>2022-06-08T21:53:43Z</time>
      </trkpt>
      <trkpt lat="44.14914" lon="6.57656">
        <ele>1384</ele>
        <time>2022-06-08T21:53:50Z</time>
      </trkpt>
      <trkpt lat="44.14872" lon="6.57687">
        <ele>1380</ele>
        <time>2022-06-08T21:54:01Z</time>
      </trkpt>
      <trkpt lat="44.14835" lon="6.577">
        <ele>1380</ele>
        <time>2022-06-08T21:54:10Z</time>
      </trkpt>
      <trkpt lat="44.14802" lon="6.57701">
        <ele>1380</ele>
        <time>2022-06-08T21:54:18Z</time>
      </trkpt>
      <trkpt lat="44.14793" lon="6.57704">
        <ele>1379</ele>
        <time>2022-06-08T21:54:20Z</time>
      </trkpt>
      <trkpt lat="44.14793" lon="6.57709">
        <ele>1379</ele>
        <time>2022-06-08T21:54:21Z</time>
      </trkpt>
      <trkpt lat="44.14789" lon="6.57706">
        <ele>1379</ele>
        <time>2022-06-08T21:54:22Z</time>
      </trkpt>
      <trkpt lat="44.14791" lon="6.57698">
        <ele>1380</ele>
        <time>2022-06-08T21:54:23Z</time>
      </trkpt>
      <trkpt lat="44.148" lon="6.57704">
        <ele>1379</ele>
        <time>2022-06-08T21:54:26Z</time>
      </trkpt>
      <trkpt lat="44.14796" lon="6.57704">
        <ele>1379</ele>
        <time>2022-06-08T21:54:26Z</time>
      </trkpt>
      <trkpt lat="44.14789" lon="6.57692">
        <ele>1380</ele>
        <time>2022-06-08T21:54:29Z</time>
      </trkpt>
      <trkpt lat="44.148" lon="6.57704">
        <ele>1379</ele>
        <time>2022-06-08T21:54:32Z</time>
      </trkpt>
      <trkpt lat="44.14796" lon="6.57711">
        <ele>1379</ele>
        <time>2022-06-08T21:54:34Z</time>
      </trkpt>
      <trkpt lat="44.14794" lon="6.57709">
        <ele>1379</ele>
        <time>2022-06-08T21:54:34Z</time>
      </trkpt>
      <trkpt lat="44.14797" lon="6.57707">
        <ele>1379</ele>
        <time>2022-06-08T21:54:35Z</time>
      </trkpt>
      <trkpt lat="44.14797" lon="6.57704">
        <ele>1379</ele>
        <time>2022-06-08T21:54:36Z</time>
      </trkpt>
      <trkpt lat="44.14793" lon="6.57705">
        <ele>1379</ele>
        <time>2022-06-08T21:54:37Z</time>
      </trkpt>
      <trkpt lat="44.14789" lon="6.57713">
        <ele>1379</ele>
        <time>2022-06-08T21:54:38Z</time>
      </trkpt>
      <trkpt lat="44.14798" lon="6.57701">
        <ele>1380</ele>
        <time>2022-06-08T21:54:41Z</time>
      </trkpt>
      <trkpt lat="44.14781" lon="6.5765">
        <ele>1383</ele>
        <time>2022-06-08T21:54:51Z</time>
      </trkpt>
      <trkpt lat="44.1477" lon="6.57593">
        <ele>1388</ele>
        <time>2022-06-08T21:55:00Z</time>
      </trkpt>
      <trkpt lat="44.14757" lon="6.57567">
        <ele>1389</ele>
        <time>2022-06-08T21:55:06Z</time>
      </trkpt>
      <trkpt lat="44.14734" lon="6.57539">
        <ele>1390</ele>
        <time>2022-06-08T21:55:13Z</time>
      </trkpt>
      <trkpt lat="44.14714" lon="6.57481">
        <ele>1398</ele>
        <time>2022-06-08T21:55:24Z</time>
      </trkpt>
      <trkpt lat="44.14706" lon="6.57476">
        <ele>1400</ele>
        <time>2022-06-08T21:55:26Z</time>
      </trkpt>
      <trkpt lat="44.14671" lon="6.57484">
        <ele>1397</ele>
        <time>2022-06-08T21:55:34Z</time>
      </trkpt>
      <trkpt lat="44.14622" lon="6.57474">
        <ele>1403</ele>
        <time>2022-06-08T21:55:46Z</time>
      </trkpt>
      <trkpt lat="44.14581" lon="6.5747">
        <ele>1406</ele>
        <time>2022-06-08T21:55:55Z</time>
      </trkpt>
      <trkpt lat="44.14555" lon="6.57457">
        <ele>1408</ele>
        <time>2022-06-08T21:56:02Z</time>
      </trkpt>
      <trkpt lat="44.14497" lon="6.57422">
        <ele>1413</ele>
        <time>2022-06-08T21:56:16Z</time>
      </trkpt>
      <trkpt lat="44.14442" lon="6.57372">
        <ele>1417</ele>
        <time>2022-06-08T21:56:32Z</time>
      </trkpt>
      <trkpt lat="44.14434" lon="6.57355">
        <ele>1418</ele>
        <time>2022-06-08T21:56:35Z</time>
      </trkpt>
      <trkpt lat="44.14439" lon="6.57349">
        <ele>1420</ele>
        <time>2022-06-08T21:56:37Z</time>
      </trkpt>
      <trkpt lat="44.14462" lon="6.57351">
        <ele>1423</ele>
        <time>2022-06-08T21:56:42Z</time>
      </trkpt>
      <trkpt lat="44.1448" lon="6.57348">
        <ele>1425</ele>
        <time>2022-06-08T21:56:46Z</time>
      </trkpt>
      <trkpt lat="44.14518" lon="6.57328">
        <ele>1434</ele>
        <time>2022-06-08T21:56:56Z</time>
      </trkpt>
      <trkpt lat="44.14533" lon="6.57323">
        <ele>1436</ele>
        <time>2022-06-08T21:56:59Z</time>
      </trkpt>
      <trkpt lat="44.14566" lon="6.57324">
        <ele>1439</ele>
        <time>2022-06-08T21:57:07Z</time>
      </trkpt>
      <trkpt lat="44.14579" lon="6.57328">
        <ele>1439</ele>
        <time>2022-06-08T21:57:10Z</time>
      </trkpt>
      <trkpt lat="44.14599" lon="6.57323">
        <ele>1440</ele>
        <time>2022-06-08T21:57:15Z</time>
      </trkpt>
      <trkpt lat="44.14602" lon="6.57317">
        <ele>1441</ele>
        <time>2022-06-08T21:57:16Z</time>
      </trkpt>
      <trkpt lat="44.14603" lon="6.57298">
        <ele>1443</ele>
        <time>2022-06-08T21:57:19Z</time>
      </trkpt>
      <trkpt lat="44.14592" lon="6.57273">
        <ele>1446</ele>
        <time>2022-06-08T21:57:24Z</time>
      </trkpt>
      <trkpt lat="44.14578" lon="6.57262">
        <ele>1447</ele>
        <time>2022-06-08T21:57:28Z</time>
      </trkpt>
      <trkpt lat="44.1456" lon="6.57262">
        <ele>1447</ele>
        <time>2022-06-08T21:57:32Z</time>
      </trkpt>
      <trkpt lat="44.14535" lon="6.57244">
        <ele>1449</ele>
        <time>2022-06-08T21:57:39Z</time>
      </trkpt>
      <trkpt lat="44.1453" lon="6.57238">
        <ele>1450</ele>
        <time>2022-06-08T21:57:40Z</time>
      </trkpt>
      <trkpt lat="44.14529" lon="6.57227">
        <ele>1452</ele>
        <time>2022-06-08T21:57:42Z</time>
      </trkpt>
      <trkpt lat="44.14533" lon="6.57219">
        <ele>1454</ele>
        <time>2022-06-08T21:57:44Z</time>
      </trkpt>
      <trkpt lat="44.1456" lon="6.57183">
        <ele>1462</ele>
        <time>2022-06-08T21:57:53Z</time>
      </trkpt>
      <trkpt lat="44.14568" lon="6.57181">
        <ele>1462</ele>
        <time>2022-06-08T21:57:54Z</time>
      </trkpt>
      <trkpt lat="44.14591" lon="6.57185">
        <ele>1461</ele>
        <time>2022-06-08T21:58:00Z</time>
      </trkpt>
      <trkpt lat="44.14603" lon="6.57184">
        <ele>1461</ele>
        <time>2022-06-08T21:58:03Z</time>
      </trkpt>
      <trkpt lat="44.14639" lon="6.57167">
        <ele>1463</ele>
        <time>2022-06-08T21:58:12Z</time>
      </trkpt>
      <trkpt lat="44.14673" lon="6.57126">
        <ele>1477</ele>
        <time>2022-06-08T21:58:22Z</time>
      </trkpt>
      <trkpt lat="44.1469" lon="6.57119">
        <ele>1479</ele>
        <time>2022-06-08T21:58:26Z</time>
      </trkpt>
      <trkpt lat="44.14712" lon="6.57112">
        <ele>1481</ele>
        <time>2022-06-08T21:58:31Z</time>
      </trkpt>
      <trkpt lat="44.14731" lon="6.57112">
        <ele>1480</ele>
        <time>2022-06-08T21:58:36Z</time>
      </trkpt>
      <trkpt lat="44.14761" lon="6.5713">
        <ele>1475</ele>
        <time>2022-06-08T21:58:44Z</time>
      </trkpt>
      <trkpt lat="44.14764" lon="6.57126">
        <ele>1476</ele>
        <time>2022-06-08T21:58:45Z</time>
      </trkpt>
      <trkpt lat="44.14764" lon="6.57121">
        <ele>1477</ele>
        <time>2022-06-08T21:58:45Z</time>
      </trkpt>
      <trkpt lat="44.14769" lon="6.57128">
        <ele>1476</ele>
        <time>2022-06-08T21:58:47Z</time>
      </trkpt>
      <trkpt lat="44.14787" lon="6.57122">
        <ele>1477</ele>
        <time>2022-06-08T21:58:51Z</time>
      </trkpt>
      <trkpt lat="44.14805" lon="6.57102">
        <ele>1481</ele>
        <time>2022-06-08T21:58:57Z</time>
      </trkpt>
      <trkpt lat="44.14809" lon="6.57087">
        <ele>1484</ele>
        <time>2022-06-08T21:58:59Z</time>
      </trkpt>
      <trkpt lat="44.14796" lon="6.57068">
        <ele>1488</ele>
        <time>2022-06-08T21:59:04Z</time>
      </trkpt>
      <trkpt lat="44.14791" lon="6.57046">
        <ele>1493</ele>
        <time>2022-06-08T21:59:08Z</time>
      </trkpt>
      <trkpt lat="44.14776" lon="6.5703">
        <ele>1497</ele>
        <time>2022-06-08T21:59:12Z</time>
      </trkpt>
      <trkpt lat="44.14734" lon="6.5703">
        <ele>1502</ele>
        <time>2022-06-08T21:59:22Z</time>
      </trkpt>
      <trkpt lat="44.14718" lon="6.57022">
        <ele>1505</ele>
        <time>2022-06-08T21:59:26Z</time>
      </trkpt>
      <trkpt lat="44.14703" lon="6.57009">
        <ele>1510</ele>
        <time>2022-06-08T21:59:30Z</time>
      </trkpt>
      <trkpt lat="44.14706" lon="6.57001">
        <ele>1512</ele>
        <time>2022-06-08T21:59:31Z</time>
      </trkpt>
      <trkpt lat="44.14702" lon="6.56984">
        <ele>1517</ele>
        <time>2022-06-08T21:59:34Z</time>
      </trkpt>
      <trkpt lat="44.14684" lon="6.56982">
        <ele>1519</ele>
        <time>2022-06-08T21:59:39Z</time>
      </trkpt>
      <trkpt lat="44.14668" lon="6.56987">
        <ele>1520</ele>
        <time>2022-06-08T21:59:43Z</time>
      </trkpt>
      <trkpt lat="44.14659" lon="6.56998">
        <ele>1518</ele>
        <time>2022-06-08T21:59:45Z</time>
      </trkpt>
      <trkpt lat="44.14646" lon="6.57005">
        <ele>1517</ele>
        <time>2022-06-08T21:59:49Z</time>
      </trkpt>
      <trkpt lat="44.14631" lon="6.57008">
        <ele>1517</ele>
        <time>2022-06-08T21:59:52Z</time>
      </trkpt>
      <trkpt lat="44.14571" lon="6.56991">
        <ele>1525</ele>
        <time>2022-06-08T22:00:06Z</time>
      </trkpt>
      <trkpt lat="44.14553" lon="6.56997">
        <ele>1523</ele>
        <time>2022-06-08T22:00:11Z</time>
      </trkpt>
      <trkpt lat="44.14528" lon="6.56994">
        <ele>1523</ele>
        <time>2022-06-08T22:00:17Z</time>
      </trkpt>
      <trkpt lat="44.14453" lon="6.57006">
        <ele>1511</ele>
        <time>2022-06-08T22:00:34Z</time>
      </trkpt>
      <trkpt lat="44.14424" lon="6.57016">
        <ele>1503</ele>
        <time>2022-06-08T22:00:41Z</time>
      </trkpt>
      <trkpt lat="44.14404" lon="6.57012">
        <ele>1503</ele>
        <time>2022-06-08T22:00:46Z</time>
      </trkpt>
      <trkpt lat="44.14398" lon="6.56991">
        <ele>1508</ele>
        <time>2022-06-08T22:00:50Z</time>
      </trkpt>
      <trkpt lat="44.14384" lon="6.5698">
        <ele>1509</ele>
        <time>2022-06-08T22:00:53Z</time>
      </trkpt>
      <trkpt lat="44.1438" lon="6.56973">
        <ele>1510</ele>
        <time>2022-06-08T22:00:55Z</time>
      </trkpt>
      <trkpt lat="44.14378" lon="6.56961">
        <ele>1513</ele>
        <time>2022-06-08T22:00:57Z</time>
      </trkpt>
      <trkpt lat="44.1437" lon="6.5694">
        <ele>1517</ele>
        <time>2022-06-08T22:01:01Z</time>
      </trkpt>
      <trkpt lat="44.14348" lon="6.56894">
        <ele>1525</ele>
        <time>2022-06-08T22:01:10Z</time>
      </trkpt>
      <trkpt lat="44.14347" lon="6.56883">
        <ele>1527</ele>
        <time>2022-06-08T22:01:12Z</time>
      </trkpt>
      <trkpt lat="44.14351" lon="6.56854">
        <ele>1533</ele>
        <time>2022-06-08T22:01:17Z</time>
      </trkpt>
      <trkpt lat="44.14338" lon="6.56847">
        <ele>1535</ele>
        <time>2022-06-08T22:01:20Z</time>
      </trkpt>
      <trkpt lat="44.14305" lon="6.56851">
        <ele>1538</ele>
        <time>2022-06-08T22:01:28Z</time>
      </trkpt>
      <trkpt lat="44.14304" lon="6.56848">
        <ele>1539</ele>
        <time>2022-06-08T22:01:29Z</time>
      </trkpt>
      <trkpt lat="44.14308" lon="6.56834">
        <ele>1542</ele>
        <time>2022-06-08T22:01:31Z</time>
      </trkpt>
      <trkpt lat="44.14269" lon="6.56847">
        <ele>1545</ele>
        <time>2022-06-08T22:01:41Z</time>
      </trkpt>
      <trkpt lat="44.14257" lon="6.56841">
        <ele>1549</ele>
        <time>2022-06-08T22:01:44Z</time>
      </trkpt>
      <trkpt lat="44.14249" lon="6.56841">
        <ele>1550</ele>
        <time>2022-06-08T22:01:45Z</time>
      </trkpt>
      <trkpt lat="44.14227" lon="6.56823">
        <ele>1557</ele>
        <time>2022-06-08T22:01:51Z</time>
      </trkpt>
      <trkpt lat="44.14187" lon="6.56768">
        <ele>1573</ele>
        <time>2022-06-08T22:02:04Z</time>
      </trkpt>
      <trkpt lat="44.14177" lon="6.5676">
        <ele>1575</ele>
        <time>2022-06-08T22:02:07Z</time>
      </trkpt>
      <trkpt lat="44.14172" lon="6.56762">
        <ele>1574</ele>
        <time>2022-06-08T22:02:08Z</time>
      </trkpt>
      <trkpt lat="44.14167" lon="6.5676">
        <ele>1574</ele>
        <time>2022-06-08T22:02:10Z</time>
      </trkpt>
      <trkpt lat="44.14154" lon="6.56724">
        <ele>1581</ele>
        <time>2022-06-08T22:02:16Z</time>
      </trkpt>
      <trkpt lat="44.14135" lon="6.56697">
        <ele>1587</ele>
        <time>2022-06-08T22:02:23Z</time>
      </trkpt>
      <trkpt lat="44.14135" lon="6.56688">
        <ele>1589</ele>
        <time>2022-06-08T22:02:24Z</time>
      </trkpt>
      <trkpt lat="44.14122" lon="6.56681">
        <ele>1592</ele>
        <time>2022-06-08T22:02:27Z</time>
      </trkpt>
      <trkpt lat="44.14101" lon="6.56693">
        <ele>1593</ele>
        <time>2022-06-08T22:02:33Z</time>
      </trkpt>
      <trkpt lat="44.1409" lon="6.56693">
        <ele>1594</ele>
        <time>2022-06-08T22:02:35Z</time>
      </trkpt>
      <trkpt lat="44.14081" lon="6.567">
        <ele>1593</ele>
        <time>2022-06-08T22:02:38Z</time>
      </trkpt>
      <trkpt lat="44.14072" lon="6.567">
        <ele>1593</ele>
        <time>2022-06-08T22:02:40Z</time>
      </trkpt>
      <trkpt lat="44.14071" lon="6.56698">
        <ele>1594</ele>
        <time>2022-06-08T22:02:40Z</time>
      </trkpt>
      <trkpt lat="44.14048" lon="6.56713">
        <ele>1590</ele>
        <time>2022-06-08T22:02:46Z</time>
      </trkpt>
      <trkpt lat="44.14037" lon="6.56715">
        <ele>1589</ele>
        <time>2022-06-08T22:02:49Z</time>
      </trkpt>
      <trkpt lat="44.1403" lon="6.5671">
        <ele>1591</ele>
        <time>2022-06-08T22:02:51Z</time>
      </trkpt>
      <trkpt lat="44.13999" lon="6.56648">
        <ele>1608</ele>
        <time>2022-06-08T22:03:03Z</time>
      </trkpt>
      <trkpt lat="44.13969" lon="6.5654">
        <ele>1616</ele>
        <time>2022-06-08T22:03:23Z</time>
      </trkpt>
      <trkpt lat="44.13968" lon="6.56537">
        <ele>1616</ele>
        <time>2022-06-08T22:03:23Z</time>
      </trkpt>
      <trkpt lat="44.13965" lon="6.56537">
        <ele>1614</ele>
        <time>2022-06-08T22:03:24Z</time>
      </trkpt>
      <trkpt lat="44.13963" lon="6.56516">
        <ele>1616</ele>
        <time>2022-06-08T22:03:27Z</time>
      </trkpt>
      <trkpt lat="44.13964" lon="6.5648">
        <ele>1618</ele>
        <time>2022-06-08T22:03:33Z</time>
      </trkpt>
      <trkpt lat="44.13983" lon="6.56411">
        <ele>1629</ele>
        <time>2022-06-08T22:03:46Z</time>
      </trkpt>
      <trkpt lat="44.13994" lon="6.56388">
        <ele>1634</ele>
        <time>2022-06-08T22:03:51Z</time>
      </trkpt>
      <trkpt lat="44.14009" lon="6.56369">
        <ele>1642</ele>
        <time>2022-06-08T22:03:55Z</time>
      </trkpt>
      <trkpt lat="44.14013" lon="6.56354">
        <ele>1643</ele>
        <time>2022-06-08T22:03:58Z</time>
      </trkpt>
      <trkpt lat="44.14045" lon="6.56307">
        <ele>1664</ele>
        <time>2022-06-08T22:04:09Z</time>
      </trkpt>
      <trkpt lat="44.14055" lon="6.56266">
        <ele>1671</ele>
        <time>2022-06-08T22:04:16Z</time>
      </trkpt>
      <trkpt lat="44.14054" lon="6.56226">
        <ele>1673</ele>
        <time>2022-06-08T22:04:23Z</time>
      </trkpt>
      <trkpt lat="44.14058" lon="6.56214">
        <ele>1676</ele>
        <time>2022-06-08T22:04:25Z</time>
      </trkpt>
      <trkpt lat="44.14061" lon="6.56185">
        <ele>1680</ele>
        <time>2022-06-08T22:04:30Z</time>
      </trkpt>
      <trkpt lat="44.14066" lon="6.56173">
        <ele>1684</ele>
        <time>2022-06-08T22:04:32Z</time>
      </trkpt>
      <trkpt lat="44.14069" lon="6.56153">
        <ele>1687</ele>
        <time>2022-06-08T22:04:36Z</time>
      </trkpt>
      <trkpt lat="44.14066" lon="6.56148">
        <ele>1686</ele>
        <time>2022-06-08T22:04:37Z</time>
      </trkpt>
      <trkpt lat="44.14072" lon="6.56134">
        <ele>1691</ele>
        <time>2022-06-08T22:04:39Z</time>
      </trkpt>
      <trkpt lat="44.14074" lon="6.56116">
        <ele>1693</ele>
        <time>2022-06-08T22:04:43Z</time>
      </trkpt>
      <trkpt lat="44.14073" lon="6.56102">
        <ele>1694</ele>
        <time>2022-06-08T22:04:45Z</time>
      </trkpt>
      <trkpt lat="44.14064" lon="6.56072">
        <ele>1693</ele>
        <time>2022-06-08T22:04:50Z</time>
      </trkpt>
      <trkpt lat="44.14049" lon="6.56038">
        <ele>1691</ele>
        <time>2022-06-08T22:04:57Z</time>
      </trkpt>
      <trkpt lat="44.14047" lon="6.56002">
        <ele>1694</ele>
        <time>2022-06-08T22:05:03Z</time>
      </trkpt>
      <trkpt lat="44.14055" lon="6.55975">
        <ele>1699</ele>
        <time>2022-06-08T22:05:08Z</time>
      </trkpt>
      <trkpt lat="44.1407" lon="6.55964">
        <ele>1702</ele>
        <time>2022-06-08T22:05:12Z</time>
      </trkpt>
      <trkpt lat="44.14079" lon="6.55962">
        <ele>1703</ele>
        <time>2022-06-08T22:05:14Z</time>
      </trkpt>
      <trkpt lat="44.14082" lon="6.55965">
        <ele>1703</ele>
        <time>2022-06-08T22:05:15Z</time>
      </trkpt>
      <trkpt lat="44.14101" lon="6.55958">
        <ele>1707</ele>
        <time>2022-06-08T22:05:19Z</time>
      </trkpt>
      <trkpt lat="44.14107" lon="6.55961">
        <ele>1708</ele>
        <time>2022-06-08T22:05:21Z</time>
      </trkpt>
      <trkpt lat="44.14124" lon="6.55957">
        <ele>1712</ele>
        <time>2022-06-08T22:05:25Z</time>
      </trkpt>
      <trkpt lat="44.14174" lon="6.55962">
        <ele>1722</ele>
        <time>2022-06-08T22:05:37Z</time>
      </trkpt>
      <trkpt lat="44.14184" lon="6.55952">
        <ele>1724</ele>
        <time>2022-06-08T22:05:40Z</time>
      </trkpt>
      <trkpt lat="44.142" lon="6.55923">
        <ele>1726</ele>
        <time>2022-06-08T22:05:46Z</time>
      </trkpt>
      <trkpt lat="44.14208" lon="6.55915">
        <ele>1727</ele>
        <time>2022-06-08T22:05:48Z</time>
      </trkpt>
      <trkpt lat="44.14211" lon="6.55916">
        <ele>1728</ele>
        <time>2022-06-08T22:05:49Z</time>
      </trkpt>
      <trkpt lat="44.14215" lon="6.55913">
        <ele>1729</ele>
        <time>2022-06-08T22:05:50Z</time>
      </trkpt>
      <trkpt lat="44.1423" lon="6.55911">
        <ele>1732</ele>
        <time>2022-06-08T22:05:53Z</time>
      </trkpt>
      <trkpt lat="44.14268" lon="6.55895">
        <ele>1739</ele>
        <time>2022-06-08T22:06:03Z</time>
      </trkpt>
      <trkpt lat="44.14282" lon="6.55893">
        <ele>1741</ele>
        <time>2022-06-08T22:06:06Z</time>
      </trkpt>
      <trkpt lat="44.14292" lon="6.55895">
        <ele>1743</ele>
        <time>2022-06-08T22:06:08Z</time>
      </trkpt>
      <trkpt lat="44.14303" lon="6.55894">
        <ele>1745</ele>
        <time>2022-06-08T22:06:11Z</time>
      </trkpt>
      <trkpt lat="44.14317" lon="6.55885">
        <ele>1747</ele>
        <time>2022-06-08T22:06:14Z</time>
      </trkpt>
      <trkpt lat="44.14326" lon="6.55884">
        <ele>1748</ele>
        <time>2022-06-08T22:06:17Z</time>
      </trkpt>
      <trkpt lat="44.14341" lon="6.55875">
        <ele>1751</ele>
        <time>2022-06-08T22:06:20Z</time>
      </trkpt>
      <trkpt lat="44.14355" lon="6.5586">
        <ele>1753</ele>
        <time>2022-06-08T22:06:24Z</time>
      </trkpt>
      <trkpt lat="44.14406" lon="6.55828">
        <ele>1763</ele>
        <time>2022-06-08T22:06:38Z</time>
      </trkpt>
      <trkpt lat="44.14418" lon="6.5581">
        <ele>1767</ele>
        <time>2022-06-08T22:06:42Z</time>
      </trkpt>
      <trkpt lat="44.14439" lon="6.55794">
        <ele>1775</ele>
        <time>2022-06-08T22:06:47Z</time>
      </trkpt>
      <trkpt lat="44.14444" lon="6.55793">
        <ele>1777</ele>
        <time>2022-06-08T22:06:48Z</time>
      </trkpt>
      <trkpt lat="44.14461" lon="6.55771">
        <ele>1781</ele>
        <time>2022-06-08T22:06:54Z</time>
      </trkpt>
      <trkpt lat="44.14463" lon="6.55772">
        <ele>1782</ele>
        <time>2022-06-08T22:06:54Z</time>
      </trkpt>
      <trkpt lat="44.14473" lon="6.55765">
        <ele>1784</ele>
        <time>2022-06-08T22:06:57Z</time>
      </trkpt>
      <trkpt lat="44.14494" lon="6.55761">
        <ele>1789</ele>
        <time>2022-06-08T22:07:02Z</time>
      </trkpt>
      <trkpt lat="44.145" lon="6.55756">
        <ele>1790</ele>
        <time>2022-06-08T22:07:04Z</time>
      </trkpt>
      <trkpt lat="44.14515" lon="6.55742">
        <ele>1796</ele>
        <time>2022-06-08T22:07:08Z</time>
      </trkpt>
      <trkpt lat="44.14516" lon="6.55735">
        <ele>1797</ele>
        <time>2022-06-08T22:07:09Z</time>
      </trkpt>
      <trkpt lat="44.14529" lon="6.55718">
        <ele>1802</ele>
        <time>2022-06-08T22:07:13Z</time>
      </trkpt>
      <trkpt lat="44.14526" lon="6.55715">
        <ele>1801</ele>
        <time>2022-06-08T22:07:14Z</time>
      </trkpt>
      <trkpt lat="44.14525" lon="6.55719">
        <ele>1801</ele>
        <time>2022-06-08T22:07:15Z</time>
      </trkpt>
      <trkpt lat="44.14522" lon="6.55718">
        <ele>1800</ele>
        <time>2022-06-08T22:07:15Z</time>
      </trkpt>
      <trkpt lat="44.14523" lon="6.55711">
        <ele>1801</ele>
        <time>2022-06-08T22:07:17Z</time>
      </trkpt>
      <trkpt lat="44.14526" lon="6.55717">
        <ele>1801</ele>
        <time>2022-06-08T22:07:18Z</time>
      </trkpt>
      <trkpt lat="44.14527" lon="6.55708">
        <ele>1802</ele>
        <time>2022-06-08T22:07:19Z</time>
      </trkpt>
      <trkpt lat="44.14524" lon="6.55708">
        <ele>1801</ele>
        <time>2022-06-08T22:07:20Z</time>
      </trkpt>
      <trkpt lat="44.14527" lon="6.55716">
        <ele>1802</ele>
        <time>2022-06-08T22:07:22Z</time>
      </trkpt>
      <trkpt lat="44.14525" lon="6.55711">
        <ele>1801</ele>
        <time>2022-06-08T22:07:22Z</time>
      </trkpt>
      <trkpt lat="44.14527" lon="6.55713">
        <ele>1802</ele>
        <time>2022-06-08T22:07:23Z</time>
      </trkpt>
      <trkpt lat="44.14526" lon="6.55718">
        <ele>1801</ele>
        <time>2022-06-08T22:07:24Z</time>
      </trkpt>
      <trkpt lat="44.14524" lon="6.55718">
        <ele>1801</ele>
        <time>2022-06-08T22:07:24Z</time>
      </trkpt>
      <trkpt lat="44.14526" lon="6.55728">
        <ele>1801</ele>
        <time>2022-06-08T22:07:26Z</time>
      </trkpt>
      <trkpt lat="44.14527" lon="6.55716">
        <ele>1802</ele>
        <time>2022-06-08T22:07:28Z</time>
      </trkpt>
      <trkpt lat="44.14535" lon="6.55707">
        <ele>1805</ele>
        <time>2022-06-08T22:07:31Z</time>
      </trkpt>
      <trkpt lat="44.14549" lon="6.55699">
        <ele>1810</ele>
        <time>2022-06-08T22:07:34Z</time>
      </trkpt>
      <trkpt lat="44.14563" lon="6.55686">
        <ele>1814</ele>
        <time>2022-06-08T22:07:38Z</time>
      </trkpt>
      <trkpt lat="44.14565" lon="6.55681">
        <ele>1814</ele>
        <time>2022-06-08T22:07:39Z</time>
      </trkpt>
      <trkpt lat="44.14583" lon="6.55699">
        <ele>1820</ele>
        <time>2022-06-08T22:07:44Z</time>
      </trkpt>
      <trkpt lat="44.1459" lon="6.55686">
        <ele>1823</ele>
        <time>2022-06-08T22:07:47Z</time>
      </trkpt>
      <trkpt lat="44.14594" lon="6.55686">
        <ele>1825</ele>
        <time>2022-06-08T22:07:48Z</time>
      </trkpt>
      <trkpt lat="44.14596" lon="6.55689">
        <ele>1826</ele>
        <time>2022-06-08T22:07:49Z</time>
      </trkpt>
      <trkpt lat="44.14599" lon="6.55686">
        <ele>1827</ele>
        <time>2022-06-08T22:07:49Z</time>
      </trkpt>
      <trkpt lat="44.14603" lon="6.55666">
        <ele>1828</ele>
        <time>2022-06-08T22:07:53Z</time>
      </trkpt>
      <trkpt lat="44.1461" lon="6.55647">
        <ele>1836</ele>
        <time>2022-06-08T22:07:56Z</time>
      </trkpt>
      <trkpt lat="44.14616" lon="6.55655">
        <ele>1837</ele>
        <time>2022-06-08T22:07:58Z</time>
      </trkpt>
      <trkpt lat="44.14629" lon="6.5565">
        <ele>1843</ele>
        <time>2022-06-08T22:08:02Z</time>
      </trkpt>
      <trkpt lat="44.14636" lon="6.55659">
        <ele>1845</ele>
        <time>2022-06-08T22:08:04Z</time>
      </trkpt>
      <trkpt lat="44.14639" lon="6.55657">
        <ele>1846</ele>
        <time>2022-06-08T22:08:05Z</time>
      </trkpt>
      <trkpt lat="44.14643" lon="6.55661">
        <ele>1847</ele>
        <time>2022-06-08T22:08:06Z</time>
      </trkpt>
      <trkpt lat="44.1465" lon="6.55663">
        <ele>1850</ele>
        <time>2022-06-08T22:08:07Z</time>
      </trkpt>
      <trkpt lat="44.14654" lon="6.55659">
        <ele>1852</ele>
        <time>2022-06-08T22:08:08Z</time>
      </trkpt>
      <trkpt lat="44.14658" lon="6.55647">
        <ele>1856</ele>
        <time>2022-06-08T22:08:11Z</time>
      </trkpt>
      <trkpt lat="44.14663" lon="6.55642">
        <ele>1859</ele>
        <time>2022-06-08T22:08:12Z</time>
      </trkpt>
      <trkpt lat="44.14679" lon="6.55658">
        <ele>1864</ele>
        <time>2022-06-08T22:08:17Z</time>
      </trkpt>
      <trkpt lat="44.14683" lon="6.55656">
        <ele>1867</ele>
        <time>2022-06-08T22:08:18Z</time>
      </trkpt>
      <trkpt lat="44.1469" lon="6.55659">
        <ele>1870</ele>
        <time>2022-06-08T22:08:19Z</time>
      </trkpt>
      <trkpt lat="44.14691" lon="6.55641">
        <ele>1872</ele>
        <time>2022-06-08T22:08:22Z</time>
      </trkpt>
      <trkpt lat="44.14701" lon="6.55643">
        <ele>1877</ele>
        <time>2022-06-08T22:08:25Z</time>
      </trkpt>
      <trkpt lat="44.14706" lon="6.55649">
        <ele>1879</ele>
        <time>2022-06-08T22:08:26Z</time>
      </trkpt>
      <trkpt lat="44.14713" lon="6.55667">
        <ele>1880</ele>
        <time>2022-06-08T22:08:30Z</time>
      </trkpt>
      <trkpt lat="44.14721" lon="6.55665">
        <ele>1885</ele>
        <time>2022-06-08T22:08:32Z</time>
      </trkpt>
      <trkpt lat="44.14728" lon="6.55645">
        <ele>1890</ele>
        <time>2022-06-08T22:08:35Z</time>
      </trkpt>
      <trkpt lat="44.14734" lon="6.55646">
        <ele>1893</ele>
        <time>2022-06-08T22:08:37Z</time>
      </trkpt>
      <trkpt lat="44.14742" lon="6.55642">
        <ele>1897</ele>
        <time>2022-06-08T22:08:39Z</time>
      </trkpt>
      <trkpt lat="44.14742" lon="6.55635">
        <ele>1898</ele>
        <time>2022-06-08T22:08:40Z</time>
      </trkpt>
      <trkpt lat="44.14747" lon="6.55629">
        <ele>1901</ele>
        <time>2022-06-08T22:08:42Z</time>
      </trkpt>
      <trkpt lat="44.14755" lon="6.55626">
        <ele>1904</ele>
        <time>2022-06-08T22:08:43Z</time>
      </trkpt>
      <trkpt lat="44.14763" lon="6.55633">
        <ele>1905</ele>
        <time>2022-06-08T22:08:46Z</time>
      </trkpt>
      <trkpt lat="44.14766" lon="6.55631">
        <ele>1906</ele>
        <time>2022-06-08T22:08:46Z</time>
      </trkpt>
      <trkpt lat="44.14773" lon="6.55613">
        <ele>1909</ele>
        <time>2022-06-08T22:08:50Z</time>
      </trkpt>
      <trkpt lat="44.1478" lon="6.55602">
        <ele>1912</ele>
        <time>2022-06-08T22:08:52Z</time>
      </trkpt>
      <trkpt lat="44.14794" lon="6.55592">
        <ele>1915</ele>
        <time>2022-06-08T22:08:56Z</time>
      </trkpt>
      <trkpt lat="44.14811" lon="6.55566">
        <ele>1921</ele>
        <time>2022-06-08T22:09:02Z</time>
      </trkpt>
      <trkpt lat="44.14812" lon="6.55556">
        <ele>1922</ele>
        <time>2022-06-08T22:09:04Z</time>
      </trkpt>
      <trkpt lat="44.1482" lon="6.55543">
        <ele>1924</ele>
        <time>2022-06-08T22:09:06Z</time>
      </trkpt>
      <trkpt lat="44.14816" lon="6.55533">
        <ele>1925</ele>
        <time>2022-06-08T22:09:08Z</time>
      </trkpt>
      <trkpt lat="44.14817" lon="6.55535">
        <ele>1925</ele>
        <time>2022-06-08T22:09:09Z</time>
      </trkpt>
      <trkpt lat="44.14817" lon="6.55524">
        <ele>1926</ele>
        <time>2022-06-08T22:09:11Z</time>
      </trkpt>
      <trkpt lat="44.14813" lon="6.55506">
        <ele>1927</ele>
        <time>2022-06-08T22:09:14Z</time>
      </trkpt>
      <trkpt lat="44.14786" lon="6.55399">
        <ele>1936</ele>
        <time>2022-06-08T22:09:33Z</time>
      </trkpt>
      <trkpt lat="44.14785" lon="6.5537">
        <ele>1940</ele>
        <time>2022-06-08T22:09:38Z</time>
      </trkpt>
      <trkpt lat="44.1478" lon="6.55338">
        <ele>1944</ele>
        <time>2022-06-08T22:09:43Z</time>
      </trkpt>
      <trkpt lat="44.14773" lon="6.55312">
        <ele>1949</ele>
        <time>2022-06-08T22:09:48Z</time>
      </trkpt>
      <trkpt lat="44.14764" lon="6.55295">
        <ele>1953</ele>
        <time>2022-06-08T22:09:51Z</time>
      </trkpt>
      <trkpt lat="44.1476" lon="6.55276">
        <ele>1956</ele>
        <time>2022-06-08T22:09:55Z</time>
      </trkpt>
      <trkpt lat="44.14747" lon="6.552">
        <ele>1963</ele>
        <time>2022-06-08T22:10:08Z</time>
      </trkpt>
      <trkpt lat="44.14744" lon="6.55165">
        <ele>1965</ele>
        <time>2022-06-08T22:10:14Z</time>
      </trkpt>
      <trkpt lat="44.14761" lon="6.55079">
        <ele>1967</ele>
        <time>2022-06-08T22:10:29Z</time>
      </trkpt>
      <trkpt lat="44.14772" lon="6.55053">
        <ele>1968</ele>
        <time>2022-06-08T22:10:34Z</time>
      </trkpt>
      <trkpt lat="44.14796" lon="6.55013">
        <ele>1972</ele>
        <time>2022-06-08T22:10:42Z</time>
      </trkpt>
      <trkpt lat="44.14804" lon="6.54977">
        <ele>1973</ele>
        <time>2022-06-08T22:10:49Z</time>
      </trkpt>
      <trkpt lat="44.14797" lon="6.54934">
        <ele>1972</ele>
        <time>2022-06-08T22:10:56Z</time>
      </trkpt>
      <trkpt lat="44.1479" lon="6.5492">
        <ele>1972</ele>
        <time>2022-06-08T22:10:59Z</time>
      </trkpt>
      <trkpt lat="44.14801" lon="6.54886">
        <ele>1972</ele>
        <time>2022-06-08T22:11:05Z</time>
      </trkpt>
      <trkpt lat="44.14824" lon="6.54853">
        <ele>1970</ele>
        <time>2022-06-08T22:11:13Z</time>
      </trkpt>
      <trkpt lat="44.14846" lon="6.54816">
        <ele>1970</ele>
        <time>2022-06-08T22:11:21Z</time>
      </trkpt>
      <trkpt lat="44.14859" lon="6.54803">
        <ele>1972</ele>
        <time>2022-06-08T22:11:25Z</time>
      </trkpt>
      <trkpt lat="44.14891" lon="6.54725">
        <ele>1970</ele>
        <time>2022-06-08T22:11:40Z</time>
      </trkpt>
      <trkpt lat="44.14902" lon="6.54708">
        <ele>1966</ele>
        <time>2022-06-08T22:11:44Z</time>
      </trkpt>
      <trkpt lat="44.1492" lon="6.54666">
        <ele>1959</ele>
        <time>2022-06-08T22:11:52Z</time>
      </trkpt>
      <trkpt lat="44.14933" lon="6.54623">
        <ele>1956</ele>
        <time>2022-06-08T22:12:00Z</time>
      </trkpt>
      <trkpt lat="44.1495" lon="6.54579">
        <ele>1951</ele>
        <time>2022-06-08T22:12:08Z</time>
      </trkpt>
      <trkpt lat="44.14963" lon="6.54559">
        <ele>1948</ele>
        <time>2022-06-08T22:12:13Z</time>
      </trkpt>
      <trkpt lat="44.14985" lon="6.54513">
        <ele>1939</ele>
        <time>2022-06-08T22:12:22Z</time>
      </trkpt>
      <trkpt lat="44.15016" lon="6.54462">
        <ele>1930</ele>
        <time>2022-06-08T22:12:33Z</time>
      </trkpt>
      <trkpt lat="44.15034" lon="6.54442">
        <ele>1927</ele>
        <time>2022-06-08T22:12:38Z</time>
      </trkpt>
      <trkpt lat="44.15064" lon="6.54419">
        <ele>1922</ele>
        <time>2022-06-08T22:12:46Z</time>
      </trkpt>
      <trkpt lat="44.15074" lon="6.54406">
        <ele>1921</ele>
        <time>2022-06-08T22:12:50Z</time>
      </trkpt>
      <trkpt lat="44.15074" lon="6.54398">
        <ele>1921</ele>
        <time>2022-06-08T22:12:51Z</time>
      </trkpt>
      <trkpt lat="44.15073" lon="6.54396">
        <ele>1922</ele>
        <time>2022-06-08T22:12:51Z</time>
      </trkpt>
      <trkpt lat="44.15071" lon="6.5441">
        <ele>1921</ele>
        <time>2022-06-08T22:12:54Z</time>
      </trkpt>
      <trkpt lat="44.15065" lon="6.54415">
        <ele>1922</ele>
        <time>2022-06-08T22:12:55Z</time>
      </trkpt>
      <trkpt lat="44.15055" lon="6.54417">
        <ele>1923</ele>
        <time>2022-06-08T22:12:58Z</time>
      </trkpt>
      <trkpt lat="44.15044" lon="6.54391">
        <ele>1926</ele>
        <time>2022-06-08T22:13:03Z</time>
      </trkpt>
      <trkpt lat="44.15051" lon="6.54339">
        <ele>1928</ele>
        <time>2022-06-08T22:13:12Z</time>
      </trkpt>
      <trkpt lat="44.15051" lon="6.54185">
        <ele>1923</ele>
        <time>2022-06-08T22:13:37Z</time>
      </trkpt>
      <trkpt lat="44.15049" lon="6.54162">
        <ele>1922</ele>
        <time>2022-06-08T22:13:41Z</time>
      </trkpt>
      <trkpt lat="44.15035" lon="6.54101">
        <ele>1921</ele>
        <time>2022-06-08T22:13:52Z</time>
      </trkpt>
      <trkpt lat="44.15021" lon="6.54055">
        <ele>1919</ele>
        <time>2022-06-08T22:14:00Z</time>
      </trkpt>
      <trkpt lat="44.14999" lon="6.53995">
        <ele>1911</ele>
        <time>2022-06-08T22:14:12Z</time>
      </trkpt>
      <trkpt lat="44.14978" lon="6.53952">
        <ele>1911</ele>
        <time>2022-06-08T22:14:20Z</time>
      </trkpt>
      <trkpt lat="44.14922" lon="6.53873">
        <ele>1898</ele>
        <time>2022-06-08T22:14:39Z</time>
      </trkpt>
      <trkpt lat="44.14899" lon="6.53843">
        <ele>1894</ele>
        <time>2022-06-08T22:14:46Z</time>
      </trkpt>
      <trkpt lat="44.14886" lon="6.53831">
        <ele>1892</ele>
        <time>2022-06-08T22:14:50Z</time>
      </trkpt>
      <trkpt lat="44.14856" lon="6.53782">
        <ele>1884</ele>
        <time>2022-06-08T22:15:01Z</time>
      </trkpt>
      <trkpt lat="44.14819" lon="6.53703">
        <ele>1871</ele>
        <time>2022-06-08T22:15:17Z</time>
      </trkpt>
      <trkpt lat="44.14801" lon="6.53639">
        <ele>1865</ele>
        <time>2022-06-08T22:15:28Z</time>
      </trkpt>
      <trkpt lat="44.14793" lon="6.53625">
        <ele>1863</ele>
        <time>2022-06-08T22:15:31Z</time>
      </trkpt>
      <trkpt lat="44.14767" lon="6.53563">
        <ele>1856</ele>
        <time>2022-06-08T22:15:43Z</time>
      </trkpt>
      <trkpt lat="44.14758" lon="6.5355">
        <ele>1853</ele>
        <time>2022-06-08T22:15:46Z</time>
      </trkpt>
      <trkpt lat="44.14734" lon="6.53531">
        <ele>1847</ele>
        <time>2022-06-08T22:15:53Z</time>
      </trkpt>
      <trkpt lat="44.14703" lon="6.53522">
        <ele>1837</ele>
        <time>2022-06-08T22:16:00Z</time>
      </trkpt>
      <trkpt lat="44.14692" lon="6.53522">
        <ele>1833</ele>
        <time>2022-06-08T22:16:03Z</time>
      </trkpt>
      <trkpt lat="44.1468" lon="6.5353">
        <ele>1829</ele>
        <time>2022-06-08T22:16:06Z</time>
      </trkpt>
      <trkpt lat="44.14672" lon="6.53532">
        <ele>1827</ele>
        <time>2022-06-08T22:16:08Z</time>
      </trkpt>
      <trkpt lat="44.14663" lon="6.5352">
        <ele>1824</ele>
        <time>2022-06-08T22:16:11Z</time>
      </trkpt>
      <trkpt lat="44.14625" lon="6.53508">
        <ele>1812</ele>
        <time>2022-06-08T22:16:20Z</time>
      </trkpt>
      <trkpt lat="44.1461" lon="6.53487">
        <ele>1808</ele>
        <time>2022-06-08T22:16:25Z</time>
      </trkpt>
      <trkpt lat="44.14574" lon="6.53459">
        <ele>1800</ele>
        <time>2022-06-08T22:16:34Z</time>
      </trkpt>
      <trkpt lat="44.14547" lon="6.53432">
        <ele>1794</ele>
        <time>2022-06-08T22:16:42Z</time>
      </trkpt>
      <trkpt lat="44.14536" lon="6.53417">
        <ele>1790</ele>
        <time>2022-06-08T22:16:46Z</time>
      </trkpt>
      <trkpt lat="44.14528" lon="6.53413">
        <ele>1787</ele>
        <time>2022-06-08T22:16:48Z</time>
      </trkpt>
      <trkpt lat="44.14521" lon="6.53414">
        <ele>1785</ele>
        <time>2022-06-08T22:16:49Z</time>
      </trkpt>
      <trkpt lat="44.14518" lon="6.53423">
        <ele>1784</ele>
        <time>2022-06-08T22:16:51Z</time>
      </trkpt>
      <trkpt lat="44.14522" lon="6.53452">
        <ele>1788</ele>
        <time>2022-06-08T22:16:56Z</time>
      </trkpt>
      <trkpt lat="44.14512" lon="6.53456">
        <ele>1786</ele>
        <time>2022-06-08T22:16:58Z</time>
      </trkpt>
      <trkpt lat="44.14487" lon="6.53443">
        <ele>1779</ele>
        <time>2022-06-08T22:17:04Z</time>
      </trkpt>
      <trkpt lat="44.14468" lon="6.53418">
        <ele>1769</ele>
        <time>2022-06-08T22:17:11Z</time>
      </trkpt>
      <trkpt lat="44.14459" lon="6.5341">
        <ele>1768</ele>
        <time>2022-06-08T22:17:13Z</time>
      </trkpt>
      <trkpt lat="44.1444" lon="6.53395">
        <ele>1763</ele>
        <time>2022-06-08T22:17:18Z</time>
      </trkpt>
      <trkpt lat="44.14411" lon="6.53378">
        <ele>1756</ele>
        <time>2022-06-08T22:17:26Z</time>
      </trkpt>
      <trkpt lat="44.14374" lon="6.53348">
        <ele>1744</ele>
        <time>2022-06-08T22:17:36Z</time>
      </trkpt>
      <trkpt lat="44.14362" lon="6.53334">
        <ele>1738</ele>
        <time>2022-06-08T22:17:39Z</time>
      </trkpt>
      <trkpt lat="44.14348" lon="6.5333">
        <ele>1734</ele>
        <time>2022-06-08T22:17:43Z</time>
      </trkpt>
      <trkpt lat="44.14327" lon="6.53319">
        <ele>1728</ele>
        <time>2022-06-08T22:17:48Z</time>
      </trkpt>
      <trkpt lat="44.1427" lon="6.53267">
        <ele>1711</ele>
        <time>2022-06-08T22:18:04Z</time>
      </trkpt>
      <trkpt lat="44.14241" lon="6.53259">
        <ele>1699</ele>
        <time>2022-06-08T22:18:11Z</time>
      </trkpt>
      <trkpt lat="44.14214" lon="6.53243">
        <ele>1690</ele>
        <time>2022-06-08T22:18:17Z</time>
      </trkpt>
      <trkpt lat="44.14201" lon="6.53233">
        <ele>1687</ele>
        <time>2022-06-08T22:18:21Z</time>
      </trkpt>
      <trkpt lat="44.1419" lon="6.53218">
        <ele>1684</ele>
        <time>2022-06-08T22:18:24Z</time>
      </trkpt>
      <trkpt lat="44.14169" lon="6.532">
        <ele>1678</ele>
        <time>2022-06-08T22:18:30Z</time>
      </trkpt>
      <trkpt lat="44.14129" lon="6.53199">
        <ele>1664</ele>
        <time>2022-06-08T22:18:40Z</time>
      </trkpt>
      <trkpt lat="44.14113" lon="6.53188">
        <ele>1658</ele>
        <time>2022-06-08T22:18:44Z</time>
      </trkpt>
      <trkpt lat="44.14079" lon="6.53173">
        <ele>1644</ele>
        <time>2022-06-08T22:18:52Z</time>
      </trkpt>
      <trkpt lat="44.14079" lon="6.53189">
        <ele>1647</ele>
        <time>2022-06-08T22:18:55Z</time>
      </trkpt>
      <trkpt lat="44.14075" lon="6.53193">
        <ele>1646</ele>
        <time>2022-06-08T22:18:56Z</time>
      </trkpt>
      <trkpt lat="44.14066" lon="6.53193">
        <ele>1644</ele>
        <time>2022-06-08T22:18:58Z</time>
      </trkpt>
      <trkpt lat="44.14028" lon="6.53169">
        <ele>1627</ele>
        <time>2022-06-08T22:19:08Z</time>
      </trkpt>
      <trkpt lat="44.13985" lon="6.53163">
        <ele>1613</ele>
        <time>2022-06-08T22:19:18Z</time>
      </trkpt>
      <trkpt lat="44.13918" lon="6.53166">
        <ele>1592</ele>
        <time>2022-06-08T22:19:33Z</time>
      </trkpt>
      <trkpt lat="44.13902" lon="6.5317">
        <ele>1590</ele>
        <time>2022-06-08T22:19:37Z</time>
      </trkpt>
      <trkpt lat="44.13876" lon="6.53184">
        <ele>1590</ele>
        <time>2022-06-08T22:19:44Z</time>
      </trkpt>
      <trkpt lat="44.13869" lon="6.53185">
        <ele>1589</ele>
        <time>2022-06-08T22:19:45Z</time>
      </trkpt>
      <trkpt lat="44.13849" lon="6.5318">
        <ele>1584</ele>
        <time>2022-06-08T22:19:50Z</time>
      </trkpt>
      <trkpt lat="44.13836" lon="6.53165">
        <ele>1578</ele>
        <time>2022-06-08T22:19:54Z</time>
      </trkpt>
      <trkpt lat="44.13824" lon="6.53143">
        <ele>1578</ele>
        <time>2022-06-08T22:19:59Z</time>
      </trkpt>
      <trkpt lat="44.1382" lon="6.53123">
        <ele>1576</ele>
        <time>2022-06-08T22:20:02Z</time>
      </trkpt>
      <trkpt lat="44.13811" lon="6.53103">
        <ele>1575</ele>
        <time>2022-06-08T22:20:06Z</time>
      </trkpt>
      <trkpt lat="44.13812" lon="6.53095">
        <ele>1574</ele>
        <time>2022-06-08T22:20:08Z</time>
      </trkpt>
      <trkpt lat="44.13807" lon="6.53064">
        <ele>1571</ele>
        <time>2022-06-08T22:20:13Z</time>
      </trkpt>
      <trkpt lat="44.138" lon="6.53045">
        <ele>1570</ele>
        <time>2022-06-08T22:20:16Z</time>
      </trkpt>
      <trkpt lat="44.138" lon="6.5302">
        <ele>1566</ele>
        <time>2022-06-08T22:20:21Z</time>
      </trkpt>
      <trkpt lat="44.13804" lon="6.52984">
        <ele>1561</ele>
        <time>2022-06-08T22:20:27Z</time>
      </trkpt>
      <trkpt lat="44.13777" lon="6.52949">
        <ele>1554</ele>
        <time>2022-06-08T22:20:35Z</time>
      </trkpt>
      <trkpt lat="44.1376" lon="6.52902">
        <ele>1540</ele>
        <time>2022-06-08T22:20:44Z</time>
      </trkpt>
      <trkpt lat="44.13752" lon="6.52866">
        <ele>1531</ele>
        <time>2022-06-08T22:20:51Z</time>
      </trkpt>
      <trkpt lat="44.13742" lon="6.52791">
        <ele>1511</ele>
        <time>2022-06-08T22:21:03Z</time>
      </trkpt>
      <trkpt lat="44.13732" lon="6.52758">
        <ele>1501</ele>
        <time>2022-06-08T22:21:09Z</time>
      </trkpt>
      <trkpt lat="44.13723" lon="6.5274">
        <ele>1496</ele>
        <time>2022-06-08T22:21:13Z</time>
      </trkpt>
      <trkpt lat="44.13724" lon="6.5272">
        <ele>1492</ele>
        <time>2022-06-08T22:21:16Z</time>
      </trkpt>
      <trkpt lat="44.13721" lon="6.52709">
        <ele>1489</ele>
        <time>2022-06-08T22:21:18Z</time>
      </trkpt>
      <trkpt lat="44.13717" lon="6.52704">
        <ele>1487</ele>
        <time>2022-06-08T22:21:20Z</time>
      </trkpt>
      <trkpt lat="44.13696" lon="6.527">
        <ele>1484</ele>
        <time>2022-06-08T22:21:25Z</time>
      </trkpt>
      <trkpt lat="44.1369" lon="6.52681">
        <ele>1478</ele>
        <time>2022-06-08T22:21:28Z</time>
      </trkpt>
      <trkpt lat="44.13673" lon="6.52658">
        <ele>1468</ele>
        <time>2022-06-08T22:21:34Z</time>
      </trkpt>
      <trkpt lat="44.13645" lon="6.52652">
        <ele>1467</ele>
        <time>2022-06-08T22:21:40Z</time>
      </trkpt>
      <trkpt lat="44.13635" lon="6.52648">
        <ele>1466</ele>
        <time>2022-06-08T22:21:43Z</time>
      </trkpt>
      <trkpt lat="44.13627" lon="6.52641">
        <ele>1465</ele>
        <time>2022-06-08T22:21:45Z</time>
      </trkpt>
      <trkpt lat="44.13617" lon="6.52627">
        <ele>1461</ele>
        <time>2022-06-08T22:21:48Z</time>
      </trkpt>
      <trkpt lat="44.13612" lon="6.52606">
        <ele>1456</ele>
        <time>2022-06-08T22:21:52Z</time>
      </trkpt>
      <trkpt lat="44.13601" lon="6.52576">
        <ele>1447</ele>
        <time>2022-06-08T22:21:57Z</time>
      </trkpt>
      <trkpt lat="44.13579" lon="6.52539">
        <ele>1439</ele>
        <time>2022-06-08T22:22:05Z</time>
      </trkpt>
      <trkpt lat="44.13569" lon="6.52488">
        <ele>1429</ele>
        <time>2022-06-08T22:22:14Z</time>
      </trkpt>
      <trkpt lat="44.13572" lon="6.52457">
        <ele>1420</ele>
        <time>2022-06-08T22:22:20Z</time>
      </trkpt>
      <trkpt lat="44.13566" lon="6.52439">
        <ele>1417</ele>
        <time>2022-06-08T22:22:23Z</time>
      </trkpt>
      <trkpt lat="44.13573" lon="6.52429">
        <ele>1413</ele>
        <time>2022-06-08T22:22:25Z</time>
      </trkpt>
      <trkpt lat="44.13573" lon="6.52419">
        <ele>1411</ele>
        <time>2022-06-08T22:22:27Z</time>
      </trkpt>
      <trkpt lat="44.13562" lon="6.52398">
        <ele>1407</ele>
        <time>2022-06-08T22:22:31Z</time>
      </trkpt>
      <trkpt lat="44.13545" lon="6.52343">
        <ele>1395</ele>
        <time>2022-06-08T22:22:41Z</time>
      </trkpt>
      <trkpt lat="44.13546" lon="6.52333">
        <ele>1393</ele>
        <time>2022-06-08T22:22:43Z</time>
      </trkpt>
      <trkpt lat="44.13543" lon="6.52318">
        <ele>1391</ele>
        <time>2022-06-08T22:22:46Z</time>
      </trkpt>
      <trkpt lat="44.13547" lon="6.52299">
        <ele>1389</ele>
        <time>2022-06-08T22:22:49Z</time>
      </trkpt>
      <trkpt lat="44.13543" lon="6.52289">
        <ele>1387</ele>
        <time>2022-06-08T22:22:51Z</time>
      </trkpt>
      <trkpt lat="44.1354" lon="6.5227">
        <ele>1385</ele>
        <time>2022-06-08T22:22:54Z</time>
      </trkpt>
      <trkpt lat="44.1354" lon="6.52246">
        <ele>1382</ele>
        <time>2022-06-08T22:22:58Z</time>
      </trkpt>
      <trkpt lat="44.13535" lon="6.52229">
        <ele>1380</ele>
        <time>2022-06-08T22:23:01Z</time>
      </trkpt>
      <trkpt lat="44.13534" lon="6.52205">
        <ele>1376</ele>
        <time>2022-06-08T22:23:05Z</time>
      </trkpt>
      <trkpt lat="44.13543" lon="6.52181">
        <ele>1374</ele>
        <time>2022-06-08T22:23:10Z</time>
      </trkpt>
      <trkpt lat="44.13538" lon="6.52172">
        <ele>1372</ele>
        <time>2022-06-08T22:23:12Z</time>
      </trkpt>
      <trkpt lat="44.13531" lon="6.52136">
        <ele>1367</ele>
        <time>2022-06-08T22:23:18Z</time>
      </trkpt>
      <trkpt lat="44.13517" lon="6.52098">
        <ele>1359</ele>
        <time>2022-06-08T22:23:25Z</time>
      </trkpt>
      <trkpt lat="44.13507" lon="6.52078">
        <ele>1355</ele>
        <time>2022-06-08T22:23:29Z</time>
      </trkpt>
      <trkpt lat="44.13495" lon="6.5204">
        <ele>1345</ele>
        <time>2022-06-08T22:23:36Z</time>
      </trkpt>
      <trkpt lat="44.13492" lon="6.52019">
        <ele>1340</ele>
        <time>2022-06-08T22:23:40Z</time>
      </trkpt>
      <trkpt lat="44.13488" lon="6.5201">
        <ele>1337</ele>
        <time>2022-06-08T22:23:42Z</time>
      </trkpt>
      <trkpt lat="44.13488" lon="6.51969">
        <ele>1329</ele>
        <time>2022-06-08T22:23:48Z</time>
      </trkpt>
      <trkpt lat="44.13483" lon="6.51953">
        <ele>1325</ele>
        <time>2022-06-08T22:23:51Z</time>
      </trkpt>
      <trkpt lat="44.13461" lon="6.5192">
        <ele>1315</ele>
        <time>2022-06-08T22:23:59Z</time>
      </trkpt>
      <trkpt lat="44.13449" lon="6.51872">
        <ele>1308</ele>
        <time>2022-06-08T22:24:07Z</time>
      </trkpt>
      <trkpt lat="44.13436" lon="6.51845">
        <ele>1303</ele>
        <time>2022-06-08T22:24:13Z</time>
      </trkpt>
      <trkpt lat="44.13428" lon="6.51818">
        <ele>1299</ele>
        <time>2022-06-08T22:24:18Z</time>
      </trkpt>
      <trkpt lat="44.13408" lon="6.51785">
        <ele>1292</ele>
        <time>2022-06-08T22:24:25Z</time>
      </trkpt>
      <trkpt lat="44.13383" lon="6.51799">
        <ele>1291</ele>
        <time>2022-06-08T22:24:31Z</time>
      </trkpt>
      <trkpt lat="44.13359" lon="6.51832">
        <ele>1291</ele>
        <time>2022-06-08T22:24:39Z</time>
      </trkpt>
      <trkpt lat="44.13353" lon="6.51826">
        <ele>1289</ele>
        <time>2022-06-08T22:24:41Z</time>
      </trkpt>
      <trkpt lat="44.13355" lon="6.51723">
        <ele>1282</ele>
        <time>2022-06-08T22:24:58Z</time>
      </trkpt>
      <trkpt lat="44.13344" lon="6.51661">
        <ele>1279</ele>
        <time>2022-06-08T22:25:09Z</time>
      </trkpt>
      <trkpt lat="44.13344" lon="6.51708">
        <ele>1281</ele>
        <time>2022-06-08T22:25:17Z</time>
      </trkpt>
      <trkpt lat="44.13327" lon="6.51746">
        <ele>1281</ele>
        <time>2022-06-08T22:25:24Z</time>
      </trkpt>
      <trkpt lat="44.13301" lon="6.5177">
        <ele>1281</ele>
        <time>2022-06-08T22:25:32Z</time>
      </trkpt>
      <trkpt lat="44.13273" lon="6.51777">
        <ele>1280</ele>
        <time>2022-06-08T22:25:38Z</time>
      </trkpt>
      <trkpt lat="44.13256" lon="6.51778">
        <ele>1279</ele>
        <time>2022-06-08T22:25:42Z</time>
      </trkpt>
      <trkpt lat="44.13243" lon="6.51782">
        <ele>1279</ele>
        <time>2022-06-08T22:25:45Z</time>
      </trkpt>
      <trkpt lat="44.13235" lon="6.51788">
        <ele>1280</ele>
        <time>2022-06-08T22:25:47Z</time>
      </trkpt>
      <trkpt lat="44.13165" lon="6.51776">
        <ele>1278</ele>
        <time>2022-06-08T22:26:04Z</time>
      </trkpt>
      <trkpt lat="44.13156" lon="6.51768">
        <ele>1276</ele>
        <time>2022-06-08T22:26:06Z</time>
      </trkpt>
      <trkpt lat="44.13144" lon="6.51768">
        <ele>1277</ele>
        <time>2022-06-08T22:26:09Z</time>
      </trkpt>
      <trkpt lat="44.13129" lon="6.51762">
        <ele>1276</ele>
        <time>2022-06-08T22:26:13Z</time>
      </trkpt>
      <trkpt lat="44.13124" lon="6.51755">
        <ele>1274</ele>
        <time>2022-06-08T22:26:14Z</time>
      </trkpt>
      <trkpt lat="44.13119" lon="6.51753">
        <ele>1274</ele>
        <time>2022-06-08T22:26:16Z</time>
      </trkpt>
      <trkpt lat="44.13097" lon="6.51757">
        <ele>1275</ele>
        <time>2022-06-08T22:26:21Z</time>
      </trkpt>
      <trkpt lat="44.13087" lon="6.51756">
        <ele>1275</ele>
        <time>2022-06-08T22:26:23Z</time>
      </trkpt>
      <trkpt lat="44.13084" lon="6.51753">
        <ele>1275</ele>
        <time>2022-06-08T22:26:24Z</time>
      </trkpt>
      <trkpt lat="44.13078" lon="6.51756">
        <ele>1275</ele>
        <time>2022-06-08T22:26:26Z</time>
      </trkpt>
      <trkpt lat="44.13068" lon="6.51767">
        <ele>1277</ele>
        <time>2022-06-08T22:26:28Z</time>
      </trkpt>
      <trkpt lat="44.13038" lon="6.51751">
        <ele>1273</ele>
        <time>2022-06-08T22:26:36Z</time>
      </trkpt>
      <trkpt lat="44.13008" lon="6.51754">
        <ele>1273</ele>
        <time>2022-06-08T22:26:43Z</time>
      </trkpt>
      <trkpt lat="44.12993" lon="6.51747">
        <ele>1272</ele>
        <time>2022-06-08T22:26:47Z</time>
      </trkpt>
      <trkpt lat="44.12986" lon="6.5174">
        <ele>1271</ele>
        <time>2022-06-08T22:26:49Z</time>
      </trkpt>
      <trkpt lat="44.12972" lon="6.51756">
        <ele>1273</ele>
        <time>2022-06-08T22:26:53Z</time>
      </trkpt>
      <trkpt lat="44.12955" lon="6.51742">
        <ele>1271</ele>
        <time>2022-06-08T22:26:58Z</time>
      </trkpt>
      <trkpt lat="44.12918" lon="6.5172">
        <ele>1267</ele>
        <time>2022-06-08T22:27:07Z</time>
      </trkpt>
      <trkpt lat="44.12891" lon="6.51691">
        <ele>1264</ele>
        <time>2022-06-08T22:27:15Z</time>
      </trkpt>
      <trkpt lat="44.12863" lon="6.5167">
        <ele>1263</ele>
        <time>2022-06-08T22:27:22Z</time>
      </trkpt>
      <trkpt lat="44.12838" lon="6.51678">
        <ele>1264</ele>
        <time>2022-06-08T22:27:28Z</time>
      </trkpt>
      <trkpt lat="44.12813" lon="6.51681">
        <ele>1266</ele>
        <time>2022-06-08T22:27:34Z</time>
      </trkpt>
      <trkpt lat="44.1281" lon="6.51688">
        <ele>1267</ele>
        <time>2022-06-08T22:27:36Z</time>
      </trkpt>
      <trkpt lat="44.12807" lon="6.51687">
        <ele>1267</ele>
        <time>2022-06-08T22:27:36Z</time>
      </trkpt>
      <trkpt lat="44.12798" lon="6.51696">
        <ele>1269</ele>
        <time>2022-06-08T22:27:39Z</time>
      </trkpt>
      <trkpt lat="44.12791" lon="6.517">
        <ele>1270</ele>
        <time>2022-06-08T22:27:41Z</time>
      </trkpt>
      <trkpt lat="44.12781" lon="6.51701">
        <ele>1271</ele>
        <time>2022-06-08T22:27:43Z</time>
      </trkpt>
      <trkpt lat="44.12769" lon="6.51692">
        <ele>1271</ele>
        <time>2022-06-08T22:27:46Z</time>
      </trkpt>
      <trkpt lat="44.12736" lon="6.51645">
        <ele>1266</ele>
        <time>2022-06-08T22:27:57Z</time>
      </trkpt>
      <trkpt lat="44.12723" lon="6.51636">
        <ele>1265</ele>
        <time>2022-06-08T22:28:01Z</time>
      </trkpt>
      <trkpt lat="44.12724" lon="6.51634">
        <ele>1264</ele>
        <time>2022-06-08T22:28:01Z</time>
      </trkpt>
      <trkpt lat="44.12724" lon="6.51637">
        <ele>1265</ele>
        <time>2022-06-08T22:28:01Z</time>
      </trkpt>
      <trkpt lat="44.12725" lon="6.51635">
        <ele>1265</ele>
        <time>2022-06-08T22:28:02Z</time>
      </trkpt>
      <trkpt lat="44.12722" lon="6.51636">
        <ele>1265</ele>
        <time>2022-06-08T22:28:03Z</time>
      </trkpt>
      <trkpt lat="44.12722" lon="6.51598">
        <ele>1260</ele>
        <time>2022-06-08T22:28:09Z</time>
      </trkpt>
      <trkpt lat="44.1272" lon="6.51595">
        <ele>1260</ele>
        <time>2022-06-08T22:28:10Z</time>
      </trkpt>
      <trkpt lat="44.12702" lon="6.51589">
        <ele>1259</ele>
        <time>2022-06-08T22:28:14Z</time>
      </trkpt>
      <trkpt lat="44.12663" lon="6.51583">
        <ele>1257</ele>
        <time>2022-06-08T22:28:23Z</time>
      </trkpt>
      <trkpt lat="44.12632" lon="6.51584">
        <ele>1257</ele>
        <time>2022-06-08T22:28:30Z</time>
      </trkpt>
      <trkpt lat="44.12616" lon="6.51603">
        <ele>1260</ele>
        <time>2022-06-08T22:28:35Z</time>
      </trkpt>
      <trkpt lat="44.12607" lon="6.51621">
        <ele>1262</ele>
        <time>2022-06-08T22:28:39Z</time>
      </trkpt>
      <trkpt lat="44.12603" lon="6.51622">
        <ele>1263</ele>
        <time>2022-06-08T22:28:40Z</time>
      </trkpt>
      <trkpt lat="44.12589" lon="6.51605">
        <ele>1260</ele>
        <time>2022-06-08T22:28:44Z</time>
      </trkpt>
      <trkpt lat="44.12589" lon="6.516">
        <ele>1260</ele>
        <time>2022-06-08T22:28:45Z</time>
      </trkpt>
      <trkpt lat="44.12567" lon="6.51582">
        <ele>1256</ele>
        <time>2022-06-08T22:28:51Z</time>
      </trkpt>
      <trkpt lat="44.12547" lon="6.5157">
        <ele>1255</ele>
        <time>2022-06-08T22:28:56Z</time>
      </trkpt>
      <trkpt lat="44.12512" lon="6.51557">
        <ele>1252</ele>
        <time>2022-06-08T22:29:05Z</time>
      </trkpt>
      <trkpt lat="44.1251" lon="6.51563">
        <ele>1253</ele>
        <time>2022-06-08T22:29:06Z</time>
      </trkpt>
      <trkpt lat="44.12502" lon="6.51551">
        <ele>1252</ele>
        <time>2022-06-08T22:29:08Z</time>
      </trkpt>
      <trkpt lat="44.12494" lon="6.51546">
        <ele>1251</ele>
        <time>2022-06-08T22:29:11Z</time>
      </trkpt>
      <trkpt lat="44.12494" lon="6.51533">
        <ele>1249</ele>
        <time>2022-06-08T22:29:13Z</time>
      </trkpt>
      <trkpt lat="44.12507" lon="6.51505">
        <ele>1247</ele>
        <time>2022-06-08T22:29:18Z</time>
      </trkpt>
      <trkpt lat="44.12499" lon="6.51476">
        <ele>1246</ele>
        <time>2022-06-08T22:29:23Z</time>
      </trkpt>
      <trkpt lat="44.12496" lon="6.51477">
        <ele>1246</ele>
        <time>2022-06-08T22:29:24Z</time>
      </trkpt>
      <trkpt lat="44.12492" lon="6.51472">
        <ele>1245</ele>
        <time>2022-06-08T22:29:25Z</time>
      </trkpt>
      <trkpt lat="44.12494" lon="6.51448">
        <ele>1245</ele>
        <time>2022-06-08T22:29:30Z</time>
      </trkpt>
      <trkpt lat="44.12499" lon="6.51436">
        <ele>1245</ele>
        <time>2022-06-08T22:29:32Z</time>
      </trkpt>
      <trkpt lat="44.12503" lon="6.51436">
        <ele>1245</ele>
        <time>2022-06-08T22:29:33Z</time>
      </trkpt>
      <trkpt lat="44.12506" lon="6.51433">
        <ele>1245</ele>
        <time>2022-06-08T22:29:34Z</time>
      </trkpt>
      <trkpt lat="44.12507" lon="6.51427">
        <ele>1245</ele>
        <time>2022-06-08T22:29:35Z</time>
      </trkpt>
      <trkpt lat="44.12504" lon="6.51432">
        <ele>1245</ele>
        <time>2022-06-08T22:29:36Z</time>
      </trkpt>
      <trkpt lat="44.12507" lon="6.51427">
        <ele>1245</ele>
        <time>2022-06-08T22:29:37Z</time>
      </trkpt>
      <trkpt lat="44.12508" lon="6.51434">
        <ele>1245</ele>
        <time>2022-06-08T22:29:38Z</time>
      </trkpt>
      <trkpt lat="44.12507" lon="6.51432">
        <ele>1245</ele>
        <time>2022-06-08T22:29:38Z</time>
      </trkpt>
      <trkpt lat="44.12511" lon="6.51427">
        <ele>1246</ele>
        <time>2022-06-08T22:29:40Z</time>
      </trkpt>
      <trkpt lat="44.12513" lon="6.51419">
        <ele>1245</ele>
        <time>2022-06-08T22:29:41Z</time>
      </trkpt>
      <trkpt lat="44.12508" lon="6.51423">
        <ele>1245</ele>
        <time>2022-06-08T22:29:42Z</time>
      </trkpt>
      <trkpt lat="44.12512" lon="6.51417">
        <ele>1245</ele>
        <time>2022-06-08T22:29:44Z</time>
      </trkpt>
      <trkpt lat="44.12514" lon="6.5142">
        <ele>1246</ele>
        <time>2022-06-08T22:29:45Z</time>
      </trkpt>
      <trkpt lat="44.12512" lon="6.51422">
        <ele>1245</ele>
        <time>2022-06-08T22:29:45Z</time>
      </trkpt>
      <trkpt lat="44.12514" lon="6.51422">
        <ele>1246</ele>
        <time>2022-06-08T22:29:46Z</time>
      </trkpt>
      <trkpt lat="44.12541" lon="6.51404">
        <ele>1248</ele>
        <time>2022-06-08T22:29:53Z</time>
      </trkpt>
      <trkpt lat="44.12559" lon="6.51405">
        <ele>1249</ele>
        <time>2022-06-08T22:29:57Z</time>
      </trkpt>
      <trkpt lat="44.12574" lon="6.51387">
        <ele>1251</ele>
        <time>2022-06-08T22:30:01Z</time>
      </trkpt>
      <trkpt lat="44.12581" lon="6.51365">
        <ele>1254</ele>
        <time>2022-06-08T22:30:05Z</time>
      </trkpt>
      <trkpt lat="44.12575" lon="6.51356">
        <ele>1255</ele>
        <time>2022-06-08T22:30:07Z</time>
      </trkpt>
      <trkpt lat="44.12541" lon="6.51359">
        <ele>1254</ele>
        <time>2022-06-08T22:30:15Z</time>
      </trkpt>
      <trkpt lat="44.12514" lon="6.51367">
        <ele>1252</ele>
        <time>2022-06-08T22:30:22Z</time>
      </trkpt>
      <trkpt lat="44.12499" lon="6.51369">
        <ele>1251</ele>
        <time>2022-06-08T22:30:25Z</time>
      </trkpt>
      <trkpt lat="44.1239" lon="6.51362">
        <ele>1246</ele>
        <time>2022-06-08T22:30:51Z</time>
      </trkpt>
      <trkpt lat="44.12373" lon="6.51358">
        <ele>1245</ele>
        <time>2022-06-08T22:30:55Z</time>
      </trkpt>
      <trkpt lat="44.12328" lon="6.51337">
        <ele>1244</ele>
        <time>2022-06-08T22:31:06Z</time>
      </trkpt>
      <trkpt lat="44.12305" lon="6.51336">
        <ele>1245</ele>
        <time>2022-06-08T22:31:11Z</time>
      </trkpt>
      <trkpt lat="44.12299" lon="6.51338">
        <ele>1245</ele>
        <time>2022-06-08T22:31:13Z</time>
      </trkpt>
      <trkpt lat="44.12291" lon="6.51345">
        <ele>1245</ele>
        <time>2022-06-08T22:31:15Z</time>
      </trkpt>
      <trkpt lat="44.12267" lon="6.51377">
        <ele>1243</ele>
        <time>2022-06-08T22:31:23Z</time>
      </trkpt>
      <trkpt lat="44.12256" lon="6.51382">
        <ele>1243</ele>
        <time>2022-06-08T22:31:25Z</time>
      </trkpt>
      <trkpt lat="44.12233" lon="6.51387">
        <ele>1242</ele>
        <time>2022-06-08T22:31:31Z</time>
      </trkpt>
      <trkpt lat="44.12175" lon="6.51414">
        <ele>1238</ele>
        <time>2022-06-08T22:31:45Z</time>
      </trkpt>
      <trkpt lat="44.12146" lon="6.51417">
        <ele>1236</ele>
        <time>2022-06-08T22:31:52Z</time>
      </trkpt>
      <trkpt lat="44.12074" lon="6.51411">
        <ele>1234</ele>
        <time>2022-06-08T22:32:09Z</time>
      </trkpt>
      <trkpt lat="44.12033" lon="6.51392">
        <ele>1231</ele>
        <time>2022-06-08T22:32:19Z</time>
      </trkpt>
      <trkpt lat="44.11983" lon="6.51377">
        <ele>1227</ele>
        <time>2022-06-08T22:32:31Z</time>
      </trkpt>
      <trkpt lat="44.11781" lon="6.51414">
        <ele>1222</ele>
        <time>2022-06-08T22:33:18Z</time>
      </trkpt>
      <trkpt lat="44.11768" lon="6.51412">
        <ele>1222</ele>
        <time>2022-06-08T22:33:22Z</time>
      </trkpt>
      <trkpt lat="44.11676" lon="6.51372">
        <ele>1229</ele>
        <time>2022-06-08T22:33:44Z</time>
      </trkpt>
      <trkpt lat="44.11621" lon="6.51352">
        <ele>1229</ele>
        <time>2022-06-08T22:33:57Z</time>
      </trkpt>
      <trkpt lat="44.11615" lon="6.5135">
        <ele>1229</ele>
        <time>2022-06-08T22:33:59Z</time>
      </trkpt>
      <trkpt lat="44.11577" lon="6.51352">
        <ele>1225</ele>
        <time>2022-06-08T22:34:08Z</time>
      </trkpt>
      <trkpt lat="44.11538" lon="6.51333">
        <ele>1224</ele>
        <time>2022-06-08T22:34:17Z</time>
      </trkpt>
      <trkpt lat="44.11522" lon="6.51332">
        <ele>1223</ele>
        <time>2022-06-08T22:34:21Z</time>
      </trkpt>
      <trkpt lat="44.11474" lon="6.51346">
        <ele>1218</ele>
        <time>2022-06-08T22:34:32Z</time>
      </trkpt>
      <trkpt lat="44.11429" lon="6.51356">
        <ele>1216</ele>
        <time>2022-06-08T22:34:43Z</time>
      </trkpt>
      <trkpt lat="44.11413" lon="6.51357">
        <ele>1216</ele>
        <time>2022-06-08T22:34:47Z</time>
      </trkpt>
      <trkpt lat="44.11339" lon="6.51347">
        <ele>1212</ele>
        <time>2022-06-08T22:35:04Z</time>
      </trkpt>
      <trkpt lat="44.1131" lon="6.51346">
        <ele>1211</ele>
        <time>2022-06-08T22:35:11Z</time>
      </trkpt>
      <trkpt lat="44.1127" lon="6.51337">
        <ele>1210</ele>
        <time>2022-06-08T22:35:20Z</time>
      </trkpt>
      <trkpt lat="44.11133" lon="6.51294">
        <ele>1207</ele>
        <time>2022-06-08T22:35:53Z</time>
      </trkpt>
      <trkpt lat="44.11042" lon="6.51285">
        <ele>1204</ele>
        <time>2022-06-08T22:36:15Z</time>
      </trkpt>
      <trkpt lat="44.10997" lon="6.51275">
        <ele>1204</ele>
        <time>2022-06-08T22:36:25Z</time>
      </trkpt>
      <trkpt lat="44.10947" lon="6.51258">
        <ele>1204</ele>
        <time>2022-06-08T22:36:37Z</time>
      </trkpt>
      <trkpt lat="44.1093" lon="6.51259">
        <ele>1204</ele>
        <time>2022-06-08T22:36:41Z</time>
      </trkpt>
      <trkpt lat="44.10835" lon="6.51288">
        <ele>1203</ele>
        <time>2022-06-08T22:37:04Z</time>
      </trkpt>
      <trkpt lat="44.10803" lon="6.51287">
        <ele>1203</ele>
        <time>2022-06-08T22:37:11Z</time>
      </trkpt>
      <trkpt lat="44.10761" lon="6.51295">
        <ele>1202</ele>
        <time>2022-06-08T22:37:21Z</time>
      </trkpt>
      <trkpt lat="44.10723" lon="6.51285">
        <ele>1203</ele>
        <time>2022-06-08T22:37:30Z</time>
      </trkpt>
      <trkpt lat="44.10688" lon="6.51296">
        <ele>1198</ele>
        <time>2022-06-08T22:37:39Z</time>
      </trkpt>
      <trkpt lat="44.10666" lon="6.51309">
        <ele>1193</ele>
        <time>2022-06-08T22:37:44Z</time>
      </trkpt>
      <trkpt lat="44.10652" lon="6.5131">
        <ele>1191</ele>
        <time>2022-06-08T22:37:48Z</time>
      </trkpt>
      <trkpt lat="44.10639" lon="6.51307">
        <ele>1191</ele>
        <time>2022-06-08T22:37:51Z</time>
      </trkpt>
      <trkpt lat="44.10622" lon="6.51294">
        <ele>1191</ele>
        <time>2022-06-08T22:37:55Z</time>
      </trkpt>
      <trkpt lat="44.10594" lon="6.51257">
        <ele>1190</ele>
        <time>2022-06-08T22:38:04Z</time>
      </trkpt>
      <trkpt lat="44.10588" lon="6.51252">
        <ele>1189</ele>
        <time>2022-06-08T22:38:06Z</time>
      </trkpt>
      <trkpt lat="44.1057" lon="6.51241">
        <ele>1189</ele>
        <time>2022-06-08T22:38:10Z</time>
      </trkpt>
      <trkpt lat="44.10515" lon="6.51216">
        <ele>1186</ele>
        <time>2022-06-08T22:38:24Z</time>
      </trkpt>
      <trkpt lat="44.10405" lon="6.5114">
        <ele>1184</ele>
        <time>2022-06-08T22:38:53Z</time>
      </trkpt>
      <trkpt lat="44.10385" lon="6.51123">
        <ele>1184</ele>
        <time>2022-06-08T22:38:58Z</time>
      </trkpt>
      <trkpt lat="44.10332" lon="6.51049">
        <ele>1184</ele>
        <time>2022-06-08T22:39:16Z</time>
      </trkpt>
      <trkpt lat="44.10262" lon="6.50987">
        <ele>1184</ele>
        <time>2022-06-08T22:39:35Z</time>
      </trkpt>
      <trkpt lat="44.10249" lon="6.50978">
        <ele>1184</ele>
        <time>2022-06-08T22:39:38Z</time>
      </trkpt>
      <trkpt lat="44.10213" lon="6.50964">
        <ele>1182</ele>
        <time>2022-06-08T22:39:47Z</time>
      </trkpt>
      <trkpt lat="44.10158" lon="6.50927">
        <ele>1178</ele>
        <time>2022-06-08T22:40:01Z</time>
      </trkpt>
      <trkpt lat="44.10115" lon="6.50882">
        <ele>1179</ele>
        <time>2022-06-08T22:40:14Z</time>
      </trkpt>
      <trkpt lat="44.10107" lon="6.50866">
        <ele>1179</ele>
        <time>2022-06-08T22:40:17Z</time>
      </trkpt>
      <trkpt lat="44.10079" lon="6.50796">
        <ele>1175</ele>
        <time>2022-06-08T22:40:31Z</time>
      </trkpt>
      <trkpt lat="44.1007" lon="6.50766">
        <ele>1176</ele>
        <time>2022-06-08T22:40:36Z</time>
      </trkpt>
      <trkpt lat="44.10044" lon="6.5071">
        <ele>1176</ele>
        <time>2022-06-08T22:40:47Z</time>
      </trkpt>
      <trkpt lat="44.10022" lon="6.50622">
        <ele>1178</ele>
        <time>2022-06-08T22:41:03Z</time>
      </trkpt>
      <trkpt lat="44.09994" lon="6.50572">
        <ele>1169</ele>
        <time>2022-06-08T22:41:13Z</time>
      </trkpt>
      <trkpt lat="44.0994" lon="6.50441">
        <ele>1168</ele>
        <time>2022-06-08T22:41:39Z</time>
      </trkpt>
      <trkpt lat="44.09907" lon="6.5038">
        <ele>1165</ele>
        <time>2022-06-08T22:41:52Z</time>
      </trkpt>
      <trkpt lat="44.09799" lon="6.50286">
        <ele>1153</ele>
        <time>2022-06-08T22:42:21Z</time>
      </trkpt>
      <trkpt lat="44.09745" lon="6.50259">
        <ele>1151</ele>
        <time>2022-06-08T22:42:35Z</time>
      </trkpt>
      <trkpt lat="44.09727" lon="6.50245">
        <ele>1150</ele>
        <time>2022-06-08T22:42:40Z</time>
      </trkpt>
      <trkpt lat="44.09695" lon="6.50195">
        <ele>1152</ele>
        <time>2022-06-08T22:42:51Z</time>
      </trkpt>
      <trkpt lat="44.09654" lon="6.50168">
        <ele>1150</ele>
        <time>2022-06-08T22:43:01Z</time>
      </trkpt>
      <trkpt lat="44.09616" lon="6.50124">
        <ele>1152</ele>
        <time>2022-06-08T22:43:13Z</time>
      </trkpt>
      <trkpt lat="44.09606" lon="6.50117">
        <ele>1151</ele>
        <time>2022-06-08T22:43:16Z</time>
      </trkpt>
      <trkpt lat="44.09579" lon="6.50106">
        <ele>1147</ele>
        <time>2022-06-08T22:43:22Z</time>
      </trkpt>
      <trkpt lat="44.09506" lon="6.50045">
        <ele>1142</ele>
        <time>2022-06-08T22:43:42Z</time>
      </trkpt>
      <trkpt lat="44.09483" lon="6.50023">
        <ele>1141</ele>
        <time>2022-06-08T22:43:49Z</time>
      </trkpt>
      <trkpt lat="44.09443" lon="6.50048">
        <ele>1140</ele>
        <time>2022-06-08T22:43:59Z</time>
      </trkpt>
      <trkpt lat="44.09433" lon="6.50051">
        <ele>1140</ele>
        <time>2022-06-08T22:44:01Z</time>
      </trkpt>
      <trkpt lat="44.09428" lon="6.5005">
        <ele>1140</ele>
        <time>2022-06-08T22:44:02Z</time>
      </trkpt>
      <trkpt lat="44.0942" lon="6.50044">
        <ele>1140</ele>
        <time>2022-06-08T22:44:04Z</time>
      </trkpt>
      <trkpt lat="44.09406" lon="6.50025">
        <ele>1139</ele>
        <time>2022-06-08T22:44:09Z</time>
      </trkpt>
      <trkpt lat="44.09396" lon="6.5002">
        <ele>1139</ele>
        <time>2022-06-08T22:44:11Z</time>
      </trkpt>
      <trkpt lat="44.09294" lon="6.50006">
        <ele>1137</ele>
        <time>2022-06-08T22:44:35Z</time>
      </trkpt>
      <trkpt lat="44.09253" lon="6.49995">
        <ele>1138</ele>
        <time>2022-06-08T22:44:45Z</time>
      </trkpt>
      <trkpt lat="44.09244" lon="6.4999">
        <ele>1138</ele>
        <time>2022-06-08T22:44:47Z</time>
      </trkpt>
      <trkpt lat="44.09198" lon="6.49939">
        <ele>1138</ele>
        <time>2022-06-08T22:45:01Z</time>
      </trkpt>
      <trkpt lat="44.09165" lon="6.49932">
        <ele>1138</ele>
        <time>2022-06-08T22:45:09Z</time>
      </trkpt>
      <trkpt lat="44.09153" lon="6.49941">
        <ele>1137</ele>
        <time>2022-06-08T22:45:12Z</time>
      </trkpt>
      <trkpt lat="44.09123" lon="6.49956">
        <ele>1135</ele>
        <time>2022-06-08T22:45:20Z</time>
      </trkpt>
      <trkpt lat="44.09111" lon="6.49958">
        <ele>1133</ele>
        <time>2022-06-08T22:45:22Z</time>
      </trkpt>
      <trkpt lat="44.09111" lon="6.49954">
        <ele>1134</ele>
        <time>2022-06-08T22:45:23Z</time>
      </trkpt>
      <trkpt lat="44.09108" lon="6.49964">
        <ele>1133</ele>
        <time>2022-06-08T22:45:25Z</time>
      </trkpt>
      <trkpt lat="44.09112" lon="6.49964">
        <ele>1134</ele>
        <time>2022-06-08T22:45:26Z</time>
      </trkpt>
      <trkpt lat="44.0911" lon="6.49961">
        <ele>1133</ele>
        <time>2022-06-08T22:45:27Z</time>
      </trkpt>
      <trkpt lat="44.09112" lon="6.49964">
        <ele>1134</ele>
        <time>2022-06-08T22:45:27Z</time>
      </trkpt>
      <trkpt lat="44.09112" lon="6.49961">
        <ele>1134</ele>
        <time>2022-06-08T22:45:28Z</time>
      </trkpt>
      <trkpt lat="44.0911" lon="6.49962">
        <ele>1133</ele>
        <time>2022-06-08T22:45:28Z</time>
      </trkpt>
      <trkpt lat="44.09123" lon="6.49958">
        <ele>1135</ele>
        <time>2022-06-08T22:45:31Z</time>
      </trkpt>
      <trkpt lat="44.09111" lon="6.4996">
        <ele>1133</ele>
        <time>2022-06-08T22:45:34Z</time>
      </trkpt>
      <trkpt lat="44.09108" lon="6.49965">
        <ele>1133</ele>
        <time>2022-06-08T22:45:35Z</time>
      </trkpt>
      <trkpt lat="44.09109" lon="6.49968">
        <ele>1133</ele>
        <time>2022-06-08T22:45:36Z</time>
      </trkpt>
      <trkpt lat="44.09113" lon="6.49963">
        <ele>1134</ele>
        <time>2022-06-08T22:45:37Z</time>
      </trkpt>
      <trkpt lat="44.09116" lon="6.49964">
        <ele>1134</ele>
        <time>2022-06-08T22:45:38Z</time>
      </trkpt>
      <trkpt lat="44.09123" lon="6.49956">
        <ele>1135</ele>
        <time>2022-06-08T22:45:40Z</time>
      </trkpt>
      <trkpt lat="44.09128" lon="6.49956">
        <ele>1135</ele>
        <time>2022-06-08T22:45:41Z</time>
      </trkpt>
      <trkpt lat="44.09155" lon="6.49938">
        <ele>1137</ele>
        <time>2022-06-08T22:45:48Z</time>
      </trkpt>
      <trkpt lat="44.09146" lon="6.49854">
        <ele>1138</ele>
        <time>2022-06-08T22:46:02Z</time>
      </trkpt>
      <trkpt lat="44.09145" lon="6.49788">
        <ele>1139</ele>
        <time>2022-06-08T22:46:13Z</time>
      </trkpt>
      <trkpt lat="44.09147" lon="6.49725">
        <ele>1142</ele>
        <time>2022-06-08T22:46:24Z</time>
      </trkpt>
      <trkpt lat="44.09144" lon="6.49718">
        <ele>1142</ele>
        <time>2022-06-08T22:46:25Z</time>
      </trkpt>
      <trkpt lat="44.09153" lon="6.49681">
        <ele>1147</ele>
        <time>2022-06-08T22:46:32Z</time>
      </trkpt>
      <trkpt lat="44.09145" lon="6.49643">
        <ele>1149</ele>
        <time>2022-06-08T22:46:38Z</time>
      </trkpt>
      <trkpt lat="44.09131" lon="6.49604">
        <ele>1150</ele>
        <time>2022-06-08T22:46:46Z</time>
      </trkpt>
      <trkpt lat="44.09127" lon="6.49576">
        <ele>1153</ele>
        <time>2022-06-08T22:46:51Z</time>
      </trkpt>
      <trkpt lat="44.09123" lon="6.49575">
        <ele>1153</ele>
        <time>2022-06-08T22:46:52Z</time>
      </trkpt>
      <trkpt lat="44.09118" lon="6.49557">
        <ele>1154</ele>
        <time>2022-06-08T22:46:55Z</time>
      </trkpt>
      <trkpt lat="44.09103" lon="6.49478">
        <ele>1164</ele>
        <time>2022-06-08T22:47:08Z</time>
      </trkpt>
      <trkpt lat="44.09096" lon="6.49465">
        <ele>1166</ele>
        <time>2022-06-08T22:47:11Z</time>
      </trkpt>
      <trkpt lat="44.09079" lon="6.49455">
        <ele>1167</ele>
        <time>2022-06-08T22:47:16Z</time>
      </trkpt>
      <trkpt lat="44.09074" lon="6.49455">
        <ele>1166</ele>
        <time>2022-06-08T22:47:17Z</time>
      </trkpt>
      <trkpt lat="44.09056" lon="6.49436">
        <ele>1163</ele>
        <time>2022-06-08T22:47:22Z</time>
      </trkpt>
      <trkpt lat="44.0905" lon="6.49402">
        <ele>1165</ele>
        <time>2022-06-08T22:47:28Z</time>
      </trkpt>
      <trkpt lat="44.09045" lon="6.49393">
        <ele>1165</ele>
        <time>2022-06-08T22:47:30Z</time>
      </trkpt>
      <trkpt lat="44.0905" lon="6.49376">
        <ele>1169</ele>
        <time>2022-06-08T22:47:33Z</time>
      </trkpt>
      <trkpt lat="44.09049" lon="6.49372">
        <ele>1169</ele>
        <time>2022-06-08T22:47:34Z</time>
      </trkpt>
      <trkpt lat="44.09031" lon="6.49354">
        <ele>1168</ele>
        <time>2022-06-08T22:47:39Z</time>
      </trkpt>
      <trkpt lat="44.09021" lon="6.49348">
        <ele>1166</ele>
        <time>2022-06-08T22:47:41Z</time>
      </trkpt>
      <trkpt lat="44.09011" lon="6.49336">
        <ele>1166</ele>
        <time>2022-06-08T22:47:44Z</time>
      </trkpt>
      <trkpt lat="44.09001" lon="6.49313">
        <ele>1168</ele>
        <time>2022-06-08T22:47:49Z</time>
      </trkpt>
      <trkpt lat="44.09" lon="6.49298">
        <ele>1171</ele>
        <time>2022-06-08T22:47:51Z</time>
      </trkpt>
      <trkpt lat="44.08994" lon="6.49295">
        <ele>1170</ele>
        <time>2022-06-08T22:47:53Z</time>
      </trkpt>
      <trkpt lat="44.08983" lon="6.49299">
        <ele>1165</ele>
        <time>2022-06-08T22:47:56Z</time>
      </trkpt>
      <trkpt lat="44.08963" lon="6.49287">
        <ele>1159</ele>
        <time>2022-06-08T22:48:01Z</time>
      </trkpt>
      <trkpt lat="44.08945" lon="6.49283">
        <ele>1153</ele>
        <time>2022-06-08T22:48:05Z</time>
      </trkpt>
      <trkpt lat="44.08943" lon="6.49275">
        <ele>1153</ele>
        <time>2022-06-08T22:48:06Z</time>
      </trkpt>
      <trkpt lat="44.08948" lon="6.49258">
        <ele>1157</ele>
        <time>2022-06-08T22:48:09Z</time>
      </trkpt>
      <trkpt lat="44.08948" lon="6.4922">
        <ele>1159</ele>
        <time>2022-06-08T22:48:16Z</time>
      </trkpt>
      <trkpt lat="44.08952" lon="6.49201">
        <ele>1161</ele>
        <time>2022-06-08T22:48:19Z</time>
      </trkpt>
      <trkpt lat="44.08958" lon="6.4919">
        <ele>1164</ele>
        <time>2022-06-08T22:48:21Z</time>
      </trkpt>
      <trkpt lat="44.08965" lon="6.49168">
        <ele>1167</ele>
        <time>2022-06-08T22:48:25Z</time>
      </trkpt>
      <trkpt lat="44.08972" lon="6.4916">
        <ele>1171</ele>
        <time>2022-06-08T22:48:28Z</time>
      </trkpt>
      <trkpt lat="44.08979" lon="6.49129">
        <ele>1176</ele>
        <time>2022-06-08T22:48:33Z</time>
      </trkpt>
      <trkpt lat="44.08976" lon="6.49131">
        <ele>1175</ele>
        <time>2022-06-08T22:48:34Z</time>
      </trkpt>
      <trkpt lat="44.08961" lon="6.49103">
        <ele>1174</ele>
        <time>2022-06-08T22:48:40Z</time>
      </trkpt>
      <trkpt lat="44.08953" lon="6.49103">
        <ele>1172</ele>
        <time>2022-06-08T22:48:41Z</time>
      </trkpt>
      <trkpt lat="44.08944" lon="6.49097">
        <ele>1171</ele>
        <time>2022-06-08T22:48:44Z</time>
      </trkpt>
      <trkpt lat="44.08934" lon="6.49106">
        <ele>1167</ele>
        <time>2022-06-08T22:48:47Z</time>
      </trkpt>
      <trkpt lat="44.08931" lon="6.49106">
        <ele>1166</ele>
        <time>2022-06-08T22:48:47Z</time>
      </trkpt>
      <trkpt lat="44.0892" lon="6.49091">
        <ele>1166</ele>
        <time>2022-06-08T22:48:51Z</time>
      </trkpt>
      <trkpt lat="44.08905" lon="6.49102">
        <ele>1161</ele>
        <time>2022-06-08T22:48:55Z</time>
      </trkpt>
      <trkpt lat="44.08859" lon="6.49112">
        <ele>1149</ele>
        <time>2022-06-08T22:49:06Z</time>
      </trkpt>
      <trkpt lat="44.08848" lon="6.49113">
        <ele>1146</ele>
        <time>2022-06-08T22:49:08Z</time>
      </trkpt>
      <trkpt lat="44.08845" lon="6.49111">
        <ele>1146</ele>
        <time>2022-06-08T22:49:09Z</time>
      </trkpt>
      <trkpt lat="44.08835" lon="6.49091">
        <ele>1147</ele>
        <time>2022-06-08T22:49:13Z</time>
      </trkpt>
      <trkpt lat="44.08831" lon="6.49064">
        <ele>1149</ele>
        <time>2022-06-08T22:49:18Z</time>
      </trkpt>
      <trkpt lat="44.08827" lon="6.49056">
        <ele>1149</ele>
        <time>2022-06-08T22:49:19Z</time>
      </trkpt>
      <trkpt lat="44.08827" lon="6.4904">
        <ele>1151</ele>
        <time>2022-06-08T22:49:22Z</time>
      </trkpt>
      <trkpt lat="44.08824" lon="6.49033">
        <ele>1150</ele>
        <time>2022-06-08T22:49:23Z</time>
      </trkpt>
      <trkpt lat="44.08827" lon="6.49004">
        <ele>1155</ele>
        <time>2022-06-08T22:49:28Z</time>
      </trkpt>
      <trkpt lat="44.08783" lon="6.48967">
        <ele>1142</ele>
        <time>2022-06-08T22:49:40Z</time>
      </trkpt>
      <trkpt lat="44.08771" lon="6.48946">
        <ele>1139</ele>
        <time>2022-06-08T22:49:45Z</time>
      </trkpt>
      <trkpt lat="44.08772" lon="6.48932">
        <ele>1139</ele>
        <time>2022-06-08T22:49:47Z</time>
      </trkpt>
      <trkpt lat="44.08778" lon="6.4892">
        <ele>1141</ele>
        <time>2022-06-08T22:49:50Z</time>
      </trkpt>
      <trkpt lat="44.08783" lon="6.48883">
        <ele>1141</ele>
        <time>2022-06-08T22:49:56Z</time>
      </trkpt>
      <trkpt lat="44.08794" lon="6.48867">
        <ele>1143</ele>
        <time>2022-06-08T22:50:00Z</time>
      </trkpt>
      <trkpt lat="44.08811" lon="6.48861">
        <ele>1147</ele>
        <time>2022-06-08T22:50:04Z</time>
      </trkpt>
      <trkpt lat="44.08818" lon="6.4885">
        <ele>1148</ele>
        <time>2022-06-08T22:50:06Z</time>
      </trkpt>
      <trkpt lat="44.08815" lon="6.48842">
        <ele>1146</ele>
        <time>2022-06-08T22:50:08Z</time>
      </trkpt>
      <trkpt lat="44.08815" lon="6.4883">
        <ele>1146</ele>
        <time>2022-06-08T22:50:10Z</time>
      </trkpt>
      <trkpt lat="44.08808" lon="6.48831">
        <ele>1144</ele>
        <time>2022-06-08T22:50:11Z</time>
      </trkpt>
      <trkpt lat="44.08798" lon="6.48825">
        <ele>1142</ele>
        <time>2022-06-08T22:50:14Z</time>
      </trkpt>
      <trkpt lat="44.0881" lon="6.48796">
        <ele>1147</ele>
        <time>2022-06-08T22:50:20Z</time>
      </trkpt>
      <trkpt lat="44.08817" lon="6.48761">
        <ele>1151</ele>
        <time>2022-06-08T22:50:26Z</time>
      </trkpt>
      <trkpt lat="44.08802" lon="6.48765">
        <ele>1148</ele>
        <time>2022-06-08T22:50:29Z</time>
      </trkpt>
      <trkpt lat="44.08794" lon="6.48762">
        <ele>1146</ele>
        <time>2022-06-08T22:50:31Z</time>
      </trkpt>
      <trkpt lat="44.08767" lon="6.48739">
        <ele>1144</ele>
        <time>2022-06-08T22:50:39Z</time>
      </trkpt>
      <trkpt lat="44.08753" lon="6.48732">
        <ele>1143</ele>
        <time>2022-06-08T22:50:42Z</time>
      </trkpt>
      <trkpt lat="44.08741" lon="6.48701">
        <ele>1144</ele>
        <time>2022-06-08T22:50:48Z</time>
      </trkpt>
      <trkpt lat="44.08742" lon="6.48692">
        <ele>1145</ele>
        <time>2022-06-08T22:50:50Z</time>
      </trkpt>
      <trkpt lat="44.08726" lon="6.48646">
        <ele>1144</ele>
        <time>2022-06-08T22:50:58Z</time>
      </trkpt>
      <trkpt lat="44.08719" lon="6.48636">
        <ele>1142</ele>
        <time>2022-06-08T22:51:00Z</time>
      </trkpt>
      <trkpt lat="44.08715" lon="6.4862">
        <ele>1142</ele>
        <time>2022-06-08T22:51:03Z</time>
      </trkpt>
      <trkpt lat="44.08706" lon="6.48601">
        <ele>1139</ele>
        <time>2022-06-08T22:51:07Z</time>
      </trkpt>
      <trkpt lat="44.08704" lon="6.48575">
        <ele>1139</ele>
        <time>2022-06-08T22:51:11Z</time>
      </trkpt>
      <trkpt lat="44.08713" lon="6.48546">
        <ele>1138</ele>
        <time>2022-06-08T22:51:17Z</time>
      </trkpt>
      <trkpt lat="44.0871" lon="6.48533">
        <ele>1135</ele>
        <time>2022-06-08T22:51:19Z</time>
      </trkpt>
      <trkpt lat="44.08711" lon="6.48494">
        <ele>1130</ele>
        <time>2022-06-08T22:51:26Z</time>
      </trkpt>
      <trkpt lat="44.08707" lon="6.48484">
        <ele>1127</ele>
        <time>2022-06-08T22:51:28Z</time>
      </trkpt>
      <trkpt lat="44.08697" lon="6.48488">
        <ele>1125</ele>
        <time>2022-06-08T22:51:30Z</time>
      </trkpt>
      <trkpt lat="44.08693" lon="6.48485">
        <ele>1123</ele>
        <time>2022-06-08T22:51:31Z</time>
      </trkpt>
      <trkpt lat="44.08679" lon="6.48485">
        <ele>1120</ele>
        <time>2022-06-08T22:51:34Z</time>
      </trkpt>
      <trkpt lat="44.08669" lon="6.48482">
        <ele>1117</ele>
        <time>2022-06-08T22:51:37Z</time>
      </trkpt>
      <trkpt lat="44.08653" lon="6.48485">
        <ele>1114</ele>
        <time>2022-06-08T22:51:40Z</time>
      </trkpt>
      <trkpt lat="44.08626" lon="6.48503">
        <ele>1109</ele>
        <time>2022-06-08T22:51:47Z</time>
      </trkpt>
      <trkpt lat="44.08617" lon="6.48505">
        <ele>1107</ele>
        <time>2022-06-08T22:51:50Z</time>
      </trkpt>
      <trkpt lat="44.08598" lon="6.48502">
        <ele>1102</ele>
        <time>2022-06-08T22:51:54Z</time>
      </trkpt>
      <trkpt lat="44.08595" lon="6.48498">
        <ele>1101</ele>
        <time>2022-06-08T22:51:55Z</time>
      </trkpt>
      <trkpt lat="44.08612" lon="6.48417">
        <ele>1097</ele>
        <time>2022-06-08T22:52:09Z</time>
      </trkpt>
      <trkpt lat="44.08628" lon="6.48299">
        <ele>1096</ele>
        <time>2022-06-08T22:52:29Z</time>
      </trkpt>
      <trkpt lat="44.08624" lon="6.48158">
        <ele>1095</ele>
        <time>2022-06-08T22:52:53Z</time>
      </trkpt>
      <trkpt lat="44.08613" lon="6.48042">
        <ele>1097</ele>
        <time>2022-06-08T22:53:13Z</time>
      </trkpt>
      <trkpt lat="44.08597" lon="6.47966">
        <ele>1098</ele>
        <time>2022-06-08T22:53:26Z</time>
      </trkpt>
      <trkpt lat="44.08593" lon="6.47956">
        <ele>1098</ele>
        <time>2022-06-08T22:53:28Z</time>
      </trkpt>
      <trkpt lat="44.08594" lon="6.47953">
        <ele>1098</ele>
        <time>2022-06-08T22:53:28Z</time>
      </trkpt>
      <trkpt lat="44.08599" lon="6.47951">
        <ele>1099</ele>
        <time>2022-06-08T22:53:30Z</time>
      </trkpt>
      <trkpt lat="44.08625" lon="6.47956">
        <ele>1100</ele>
        <time>2022-06-08T22:53:36Z</time>
      </trkpt>
      <trkpt lat="44.08629" lon="6.47966">
        <ele>1100</ele>
        <time>2022-06-08T22:53:38Z</time>
      </trkpt>
      <trkpt lat="44.08656" lon="6.48008">
        <ele>1099</ele>
        <time>2022-06-08T22:53:47Z</time>
      </trkpt>
      <trkpt lat="44.0866" lon="6.48008">
        <ele>1099</ele>
        <time>2022-06-08T22:53:48Z</time>
      </trkpt>
      <trkpt lat="44.0865" lon="6.48019">
        <ele>1099</ele>
        <time>2022-06-08T22:53:51Z</time>
      </trkpt>
      <trkpt lat="44.08635" lon="6.4805">
        <ele>1097</ele>
        <time>2022-06-08T22:53:57Z</time>
      </trkpt>
      <trkpt lat="44.08633" lon="6.48049">
        <ele>1097</ele>
        <time>2022-06-08T22:53:58Z</time>
      </trkpt>
      <trkpt lat="44.08637" lon="6.48049">
        <ele>1097</ele>
        <time>2022-06-08T22:53:59Z</time>
      </trkpt>
      <trkpt lat="44.08654" lon="6.48011">
        <ele>1099</ele>
        <time>2022-06-08T22:54:06Z</time>
      </trkpt>
      <trkpt lat="44.08652" lon="6.48007">
        <ele>1099</ele>
        <time>2022-06-08T22:54:07Z</time>
      </trkpt>
      <trkpt lat="44.08659" lon="6.48006">
        <ele>1099</ele>
        <time>2022-06-08T22:54:09Z</time>
      </trkpt>
      <trkpt lat="44.08653" lon="6.48008">
        <ele>1099</ele>
        <time>2022-06-08T22:54:10Z</time>
      </trkpt>
      <trkpt lat="44.08654" lon="6.48006">
        <ele>1099</ele>
        <time>2022-06-08T22:54:11Z</time>
      </trkpt>
      <trkpt lat="44.08646" lon="6.47983">
        <ele>1100</ele>
        <time>2022-06-08T22:54:15Z</time>
      </trkpt>
      <trkpt lat="44.08631" lon="6.47967">
        <ele>1100</ele>
        <time>2022-06-08T22:54:19Z</time>
      </trkpt>
      <trkpt lat="44.08599" lon="6.47951">
        <ele>1099</ele>
        <time>2022-06-08T22:54:27Z</time>
      </trkpt>
      <trkpt lat="44.08586" lon="6.4795">
        <ele>1098</ele>
        <time>2022-06-08T22:54:30Z</time>
      </trkpt>
      <trkpt lat="44.08541" lon="6.47934">
        <ele>1097</ele>
        <time>2022-06-08T22:54:41Z</time>
      </trkpt>
      <trkpt lat="44.08494" lon="6.47948">
        <ele>1095</ele>
        <time>2022-06-08T22:54:52Z</time>
      </trkpt>
      <trkpt lat="44.08441" lon="6.4795">
        <ele>1095</ele>
        <time>2022-06-08T22:55:05Z</time>
      </trkpt>
      <trkpt lat="44.08267" lon="6.47893">
        <ele>1094</ele>
        <time>2022-06-08T22:55:46Z</time>
      </trkpt>
      <trkpt lat="44.08238" lon="6.47887">
        <ele>1094</ele>
        <time>2022-06-08T22:55:53Z</time>
      </trkpt>
      <trkpt lat="44.08232" lon="6.47883">
        <ele>1094</ele>
        <time>2022-06-08T22:55:55Z</time>
      </trkpt>
      <trkpt lat="44.08217" lon="6.47845">
        <ele>1097</ele>
        <time>2022-06-08T22:56:02Z</time>
      </trkpt>
      <trkpt lat="44.08194" lon="6.4784">
        <ele>1098</ele>
        <time>2022-06-08T22:56:08Z</time>
      </trkpt>
      <trkpt lat="44.0812" lon="6.4784">
        <ele>1099</ele>
        <time>2022-06-08T22:56:25Z</time>
      </trkpt>
      <trkpt lat="44.08089" lon="6.47835">
        <ele>1101</ele>
        <time>2022-06-08T22:56:32Z</time>
      </trkpt>
      <trkpt lat="44.08042" lon="6.47721">
        <ele>1103</ele>
        <time>2022-06-08T22:56:54Z</time>
      </trkpt>
      <trkpt lat="44.07908" lon="6.47443">
        <ele>1112</ele>
        <time>2022-06-08T22:57:50Z</time>
      </trkpt>
      <trkpt lat="44.07888" lon="6.47393">
        <ele>1114</ele>
        <time>2022-06-08T22:58:00Z</time>
      </trkpt>
      <trkpt lat="44.07872" lon="6.47339">
        <ele>1116</ele>
        <time>2022-06-08T22:58:10Z</time>
      </trkpt>
      <trkpt lat="44.07858" lon="6.47278">
        <ele>1119</ele>
        <time>2022-06-08T22:58:20Z</time>
      </trkpt>
      <trkpt lat="44.07814" lon="6.47165">
        <ele>1119</ele>
        <time>2022-06-08T22:58:42Z</time>
      </trkpt>
      <trkpt lat="44.07808" lon="6.47146">
        <ele>1117</ele>
        <time>2022-06-08T22:58:45Z</time>
      </trkpt>
      <trkpt lat="44.07805" lon="6.47126">
        <ele>1116</ele>
        <time>2022-06-08T22:58:49Z</time>
      </trkpt>
      <trkpt lat="44.07818" lon="6.46993">
        <ele>1115</ele>
        <time>2022-06-08T22:59:11Z</time>
      </trkpt>
      <trkpt lat="44.0784" lon="6.46855">
        <ele>1118</ele>
        <time>2022-06-08T22:59:35Z</time>
      </trkpt>
      <trkpt lat="44.07858" lon="6.4676">
        <ele>1123</ele>
        <time>2022-06-08T22:59:52Z</time>
      </trkpt>
      <trkpt lat="44.07872" lon="6.46733">
        <ele>1127</ele>
        <time>2022-06-08T22:59:57Z</time>
      </trkpt>
      <trkpt lat="44.07886" lon="6.46688">
        <ele>1131</ele>
        <time>2022-06-08T23:00:05Z</time>
      </trkpt>
      <trkpt lat="44.07905" lon="6.466">
        <ele>1134</ele>
        <time>2022-06-08T23:00:21Z</time>
      </trkpt>
      <trkpt lat="44.07904" lon="6.46522">
        <ele>1131</ele>
        <time>2022-06-08T23:00:34Z</time>
      </trkpt>
      <trkpt lat="44.07913" lon="6.46444">
        <ele>1131</ele>
        <time>2022-06-08T23:00:47Z</time>
      </trkpt>
      <trkpt lat="44.07914" lon="6.46372">
        <ele>1135</ele>
        <time>2022-06-08T23:00:59Z</time>
      </trkpt>
      <trkpt lat="44.07907" lon="6.46225">
        <ele>1145</ele>
        <time>2022-06-08T23:01:24Z</time>
      </trkpt>
      <trkpt lat="44.07878" lon="6.46063">
        <ele>1153</ele>
        <time>2022-06-08T23:01:52Z</time>
      </trkpt>
      <trkpt lat="44.07865" lon="6.46015">
        <ele>1155</ele>
        <time>2022-06-08T23:02:01Z</time>
      </trkpt>
      <trkpt lat="44.07855" lon="6.45927">
        <ele>1158</ele>
        <time>2022-06-08T23:02:16Z</time>
      </trkpt>
      <trkpt lat="44.07864" lon="6.45886">
        <ele>1162</ele>
        <time>2022-06-08T23:02:23Z</time>
      </trkpt>
      <trkpt lat="44.07879" lon="6.45852">
        <ele>1163</ele>
        <time>2022-06-08T23:02:29Z</time>
      </trkpt>
      <trkpt lat="44.07901" lon="6.45817">
        <ele>1163</ele>
        <time>2022-06-08T23:02:37Z</time>
      </trkpt>
      <trkpt lat="44.07923" lon="6.458">
        <ele>1164</ele>
        <time>2022-06-08T23:02:43Z</time>
      </trkpt>
      <trkpt lat="44.07968" lon="6.45747">
        <ele>1166</ele>
        <time>2022-06-08T23:02:57Z</time>
      </trkpt>
      <trkpt lat="44.07984" lon="6.45713">
        <ele>1169</ele>
        <time>2022-06-08T23:03:04Z</time>
      </trkpt>
      <trkpt lat="44.08006" lon="6.45685">
        <ele>1167</ele>
        <time>2022-06-08T23:03:11Z</time>
      </trkpt>
      <trkpt lat="44.0807" lon="6.45625">
        <ele>1180</ele>
        <time>2022-06-08T23:03:29Z</time>
      </trkpt>
      <trkpt lat="44.0809" lon="6.45593">
        <ele>1178</ele>
        <time>2022-06-08T23:03:36Z</time>
      </trkpt>
      <trkpt lat="44.08097" lon="6.45565">
        <ele>1180</ele>
        <time>2022-06-08T23:03:41Z</time>
      </trkpt>
      <trkpt lat="44.08116" lon="6.45532">
        <ele>1183</ele>
        <time>2022-06-08T23:03:48Z</time>
      </trkpt>
      <trkpt lat="44.08189" lon="6.45477">
        <ele>1186</ele>
        <time>2022-06-08T23:04:07Z</time>
      </trkpt>
      <trkpt lat="44.0821" lon="6.45451">
        <ele>1189</ele>
        <time>2022-06-08T23:04:14Z</time>
      </trkpt>
      <trkpt lat="44.08214" lon="6.45436">
        <ele>1188</ele>
        <time>2022-06-08T23:04:16Z</time>
      </trkpt>
      <trkpt lat="44.08212" lon="6.4543">
        <ele>1187</ele>
        <time>2022-06-08T23:04:18Z</time>
      </trkpt>
      <trkpt lat="44.08207" lon="6.45425">
        <ele>1186</ele>
        <time>2022-06-08T23:04:19Z</time>
      </trkpt>
      <trkpt lat="44.08204" lon="6.45428">
        <ele>1186</ele>
        <time>2022-06-08T23:04:20Z</time>
      </trkpt>
      <trkpt lat="44.08208" lon="6.45423">
        <ele>1186</ele>
        <time>2022-06-08T23:04:21Z</time>
      </trkpt>
      <trkpt lat="44.08186" lon="6.45414">
        <ele>1184</ele>
        <time>2022-06-08T23:04:27Z</time>
      </trkpt>
      <trkpt lat="44.08161" lon="6.45416">
        <ele>1184</ele>
        <time>2022-06-08T23:04:32Z</time>
      </trkpt>
      <trkpt lat="44.08141" lon="6.4541">
        <ele>1190</ele>
        <time>2022-06-08T23:04:37Z</time>
      </trkpt>
      <trkpt lat="44.08123" lon="6.4536">
        <ele>1205</ele>
        <time>2022-06-08T23:04:47Z</time>
      </trkpt>
      <trkpt lat="44.08117" lon="6.45332">
        <ele>1212</ele>
        <time>2022-06-08T23:04:51Z</time>
      </trkpt>
      <trkpt lat="44.08101" lon="6.45293">
        <ele>1221</ele>
        <time>2022-06-08T23:04:59Z</time>
      </trkpt>
      <trkpt lat="44.08088" lon="6.4528">
        <ele>1222</ele>
        <time>2022-06-08T23:05:03Z</time>
      </trkpt>
      <trkpt lat="44.08072" lon="6.45249">
        <ele>1231</ele>
        <time>2022-06-08T23:05:09Z</time>
      </trkpt>
      <trkpt lat="44.08065" lon="6.45223">
        <ele>1240</ele>
        <time>2022-06-08T23:05:14Z</time>
      </trkpt>
      <trkpt lat="44.08066" lon="6.45167">
        <ele>1251</ele>
        <time>2022-06-08T23:05:23Z</time>
      </trkpt>
      <trkpt lat="44.08056" lon="6.45144">
        <ele>1257</ele>
        <time>2022-06-08T23:05:28Z</time>
      </trkpt>
      <trkpt lat="44.08052" lon="6.45121">
        <ele>1262</ele>
        <time>2022-06-08T23:05:32Z</time>
      </trkpt>
      <trkpt lat="44.08052" lon="6.45107">
        <ele>1265</ele>
        <time>2022-06-08T23:05:34Z</time>
      </trkpt>
      <trkpt lat="44.08049" lon="6.45101">
        <ele>1266</ele>
        <time>2022-06-08T23:05:35Z</time>
      </trkpt>
      <trkpt lat="44.08051" lon="6.45082">
        <ele>1269</ele>
        <time>2022-06-08T23:05:38Z</time>
      </trkpt>
      <trkpt lat="44.0805" lon="6.45055">
        <ele>1273</ele>
        <time>2022-06-08T23:05:43Z</time>
      </trkpt>
      <trkpt lat="44.08046" lon="6.45047">
        <ele>1274</ele>
        <time>2022-06-08T23:05:45Z</time>
      </trkpt>
      <trkpt lat="44.08042" lon="6.45045">
        <ele>1274</ele>
        <time>2022-06-08T23:05:46Z</time>
      </trkpt>
      <trkpt lat="44.08034" lon="6.45027">
        <ele>1276</ele>
        <time>2022-06-08T23:05:49Z</time>
      </trkpt>
      <trkpt lat="44.08035" lon="6.44976">
        <ele>1283</ele>
        <time>2022-06-08T23:05:58Z</time>
      </trkpt>
      <trkpt lat="44.08041" lon="6.4496">
        <ele>1286</ele>
        <time>2022-06-08T23:06:01Z</time>
      </trkpt>
      <trkpt lat="44.08041" lon="6.44945">
        <ele>1288</ele>
        <time>2022-06-08T23:06:03Z</time>
      </trkpt>
      <trkpt lat="44.08044" lon="6.44932">
        <ele>1291</ele>
        <time>2022-06-08T23:06:06Z</time>
      </trkpt>
      <trkpt lat="44.08051" lon="6.44916">
        <ele>1294</ele>
        <time>2022-06-08T23:06:09Z</time>
      </trkpt>
      <trkpt lat="44.08051" lon="6.449">
        <ele>1296</ele>
        <time>2022-06-08T23:06:11Z</time>
      </trkpt>
      <trkpt lat="44.0804" lon="6.44858">
        <ele>1299</ele>
        <time>2022-06-08T23:06:19Z</time>
      </trkpt>
      <trkpt lat="44.08033" lon="6.44844">
        <ele>1299</ele>
        <time>2022-06-08T23:06:22Z</time>
      </trkpt>
      <trkpt lat="44.08011" lon="6.44824">
        <ele>1297</ele>
        <time>2022-06-08T23:06:28Z</time>
      </trkpt>
      <trkpt lat="44.08003" lon="6.4481">
        <ele>1298</ele>
        <time>2022-06-08T23:06:31Z</time>
      </trkpt>
      <trkpt lat="44.07998" lon="6.44793">
        <ele>1300</ele>
        <time>2022-06-08T23:06:34Z</time>
      </trkpt>
      <trkpt lat="44.07997" lon="6.44753">
        <ele>1305</ele>
        <time>2022-06-08T23:06:41Z</time>
      </trkpt>
      <trkpt lat="44.07993" lon="6.44718">
        <ele>1312</ele>
        <time>2022-06-08T23:06:47Z</time>
      </trkpt>
      <trkpt lat="44.07987" lon="6.44713">
        <ele>1315</ele>
        <time>2022-06-08T23:06:48Z</time>
      </trkpt>
      <trkpt lat="44.07986" lon="6.44693">
        <ele>1318</ele>
        <time>2022-06-08T23:06:52Z</time>
      </trkpt>
      <trkpt lat="44.07983" lon="6.44691">
        <ele>1319</ele>
        <time>2022-06-08T23:06:52Z</time>
      </trkpt>
      <trkpt lat="44.07979" lon="6.44668">
        <ele>1323</ele>
        <time>2022-06-08T23:06:56Z</time>
      </trkpt>
      <trkpt lat="44.07976" lon="6.44663">
        <ele>1325</ele>
        <time>2022-06-08T23:06:57Z</time>
      </trkpt>
      <trkpt lat="44.07973" lon="6.44641">
        <ele>1330</ele>
        <time>2022-06-08T23:07:01Z</time>
      </trkpt>
      <trkpt lat="44.07975" lon="6.44631">
        <ele>1332</ele>
        <time>2022-06-08T23:07:03Z</time>
      </trkpt>
      <trkpt lat="44.07974" lon="6.44619">
        <ele>1335</ele>
        <time>2022-06-08T23:07:05Z</time>
      </trkpt>
      <trkpt lat="44.0797" lon="6.44618">
        <ele>1335</ele>
        <time>2022-06-08T23:07:06Z</time>
      </trkpt>
      <trkpt lat="44.07967" lon="6.44613">
        <ele>1336</ele>
        <time>2022-06-08T23:07:07Z</time>
      </trkpt>
      <trkpt lat="44.07949" lon="6.44607">
        <ele>1337</ele>
        <time>2022-06-08T23:07:11Z</time>
      </trkpt>
      <trkpt lat="44.07948" lon="6.4461">
        <ele>1337</ele>
        <time>2022-06-08T23:07:12Z</time>
      </trkpt>
      <trkpt lat="44.07939" lon="6.44611">
        <ele>1337</ele>
        <time>2022-06-08T23:07:14Z</time>
      </trkpt>
      <trkpt lat="44.07933" lon="6.44615">
        <ele>1336</ele>
        <time>2022-06-08T23:07:16Z</time>
      </trkpt>
      <trkpt lat="44.07928" lon="6.44613">
        <ele>1337</ele>
        <time>2022-06-08T23:07:17Z</time>
      </trkpt>
      <trkpt lat="44.07919" lon="6.44604">
        <ele>1338</ele>
        <time>2022-06-08T23:07:19Z</time>
      </trkpt>
      <trkpt lat="44.07921" lon="6.44599">
        <ele>1338</ele>
        <time>2022-06-08T23:07:20Z</time>
      </trkpt>
      <trkpt lat="44.07919" lon="6.44593">
        <ele>1338</ele>
        <time>2022-06-08T23:07:21Z</time>
      </trkpt>
      <trkpt lat="44.0791" lon="6.44586">
        <ele>1341</ele>
        <time>2022-06-08T23:07:24Z</time>
      </trkpt>
      <trkpt lat="44.07909" lon="6.44579">
        <ele>1342</ele>
        <time>2022-06-08T23:07:25Z</time>
      </trkpt>
      <trkpt lat="44.07898" lon="6.44563">
        <ele>1347</ele>
        <time>2022-06-08T23:07:29Z</time>
      </trkpt>
      <trkpt lat="44.07879" lon="6.44558">
        <ele>1353</ele>
        <time>2022-06-08T23:07:33Z</time>
      </trkpt>
      <trkpt lat="44.07867" lon="6.44545">
        <ele>1357</ele>
        <time>2022-06-08T23:07:37Z</time>
      </trkpt>
      <trkpt lat="44.07864" lon="6.44535">
        <ele>1358</ele>
        <time>2022-06-08T23:07:39Z</time>
      </trkpt>
      <trkpt lat="44.07862" lon="6.4451">
        <ele>1360</ele>
        <time>2022-06-08T23:07:43Z</time>
      </trkpt>
      <trkpt lat="44.07862" lon="6.44475">
        <ele>1365</ele>
        <time>2022-06-08T23:07:49Z</time>
      </trkpt>
      <trkpt lat="44.07853" lon="6.4446">
        <ele>1369</ele>
        <time>2022-06-08T23:07:52Z</time>
      </trkpt>
      <trkpt lat="44.07846" lon="6.44453">
        <ele>1372</ele>
        <time>2022-06-08T23:07:54Z</time>
      </trkpt>
      <trkpt lat="44.07843" lon="6.44438">
        <ele>1375</ele>
        <time>2022-06-08T23:07:57Z</time>
      </trkpt>
      <trkpt lat="44.07828" lon="6.44412">
        <ele>1381</ele>
        <time>2022-06-08T23:08:02Z</time>
      </trkpt>
      <trkpt lat="44.07816" lon="6.44408">
        <ele>1385</ele>
        <time>2022-06-08T23:08:05Z</time>
      </trkpt>
      <trkpt lat="44.07809" lon="6.44402">
        <ele>1388</ele>
        <time>2022-06-08T23:08:07Z</time>
      </trkpt>
      <trkpt lat="44.07807" lon="6.44396">
        <ele>1388</ele>
        <time>2022-06-08T23:08:08Z</time>
      </trkpt>
      <trkpt lat="44.07808" lon="6.44379">
        <ele>1388</ele>
        <time>2022-06-08T23:08:11Z</time>
      </trkpt>
      <trkpt lat="44.07801" lon="6.44351">
        <ele>1389</ele>
        <time>2022-06-08T23:08:16Z</time>
      </trkpt>
      <trkpt lat="44.07794" lon="6.44349">
        <ele>1389</ele>
        <time>2022-06-08T23:08:18Z</time>
      </trkpt>
      <trkpt lat="44.07796" lon="6.44348">
        <ele>1389</ele>
        <time>2022-06-08T23:08:18Z</time>
      </trkpt>
      <trkpt lat="44.07793" lon="6.44347">
        <ele>1389</ele>
        <time>2022-06-08T23:08:19Z</time>
      </trkpt>
      <trkpt lat="44.07795" lon="6.44347">
        <ele>1389</ele>
        <time>2022-06-08T23:08:19Z</time>
      </trkpt>
      <trkpt lat="44.07793" lon="6.4435">
        <ele>1389</ele>
        <time>2022-06-08T23:08:20Z</time>
      </trkpt>
      <trkpt lat="44.07796" lon="6.44343">
        <ele>1389</ele>
        <time>2022-06-08T23:08:21Z</time>
      </trkpt>
      <trkpt lat="44.07793" lon="6.44342">
        <ele>1389</ele>
        <time>2022-06-08T23:08:22Z</time>
      </trkpt>
      <trkpt lat="44.07794" lon="6.44344">
        <ele>1389</ele>
        <time>2022-06-08T23:08:23Z</time>
      </trkpt>
      <trkpt lat="44.0779" lon="6.44321">
        <ele>1387</ele>
        <time>2022-06-08T23:08:26Z</time>
      </trkpt>
      <trkpt lat="44.0779" lon="6.44304">
        <ele>1385</ele>
        <time>2022-06-08T23:08:29Z</time>
      </trkpt>
      <trkpt lat="44.07787" lon="6.44305">
        <ele>1385</ele>
        <time>2022-06-08T23:08:30Z</time>
      </trkpt>
      <trkpt lat="44.07789" lon="6.44241">
        <ele>1378</ele>
        <time>2022-06-08T23:08:41Z</time>
      </trkpt>
      <trkpt lat="44.07797" lon="6.44162">
        <ele>1368</ele>
        <time>2022-06-08T23:08:54Z</time>
      </trkpt>
      <trkpt lat="44.07808" lon="6.44143">
        <ele>1373</ele>
        <time>2022-06-08T23:08:58Z</time>
      </trkpt>
      <trkpt lat="44.07808" lon="6.44139">
        <ele>1373</ele>
        <time>2022-06-08T23:08:59Z</time>
      </trkpt>
      <trkpt lat="44.07797" lon="6.44131">
        <ele>1368</ele>
        <time>2022-06-08T23:09:02Z</time>
      </trkpt>
      <trkpt lat="44.07769" lon="6.4413">
        <ele>1356</ele>
        <time>2022-06-08T23:09:08Z</time>
      </trkpt>
      <trkpt lat="44.07761" lon="6.44127">
        <ele>1353</ele>
        <time>2022-06-08T23:09:10Z</time>
      </trkpt>
      <trkpt lat="44.07744" lon="6.44109">
        <ele>1346</ele>
        <time>2022-06-08T23:09:15Z</time>
      </trkpt>
      <trkpt lat="44.07704" lon="6.44055">
        <ele>1336</ele>
        <time>2022-06-08T23:09:28Z</time>
      </trkpt>
      <trkpt lat="44.07678" lon="6.44037">
        <ele>1330</ele>
        <time>2022-06-08T23:09:35Z</time>
      </trkpt>
      <trkpt lat="44.07667" lon="6.44033">
        <ele>1326</ele>
        <time>2022-06-08T23:09:38Z</time>
      </trkpt>
      <trkpt lat="44.07652" lon="6.44023">
        <ele>1322</ele>
        <time>2022-06-08T23:09:42Z</time>
      </trkpt>
      <trkpt lat="44.07635" lon="6.44004">
        <ele>1317</ele>
        <time>2022-06-08T23:09:47Z</time>
      </trkpt>
      <trkpt lat="44.07618" lon="6.43994">
        <ele>1311</ele>
        <time>2022-06-08T23:09:51Z</time>
      </trkpt>
      <trkpt lat="44.07583" lon="6.43963">
        <ele>1303</ele>
        <time>2022-06-08T23:10:01Z</time>
      </trkpt>
      <trkpt lat="44.0756" lon="6.43929">
        <ele>1300</ele>
        <time>2022-06-08T23:10:09Z</time>
      </trkpt>
      <trkpt lat="44.07534" lon="6.43906">
        <ele>1293</ele>
        <time>2022-06-08T23:10:16Z</time>
      </trkpt>
      <trkpt lat="44.07517" lon="6.43881">
        <ele>1288</ele>
        <time>2022-06-08T23:10:22Z</time>
      </trkpt>
      <trkpt lat="44.07499" lon="6.4386">
        <ele>1281</ele>
        <time>2022-06-08T23:10:27Z</time>
      </trkpt>
      <trkpt lat="44.07479" lon="6.43828">
        <ele>1276</ele>
        <time>2022-06-08T23:10:34Z</time>
      </trkpt>
      <trkpt lat="44.07469" lon="6.43823">
        <ele>1273</ele>
        <time>2022-06-08T23:10:37Z</time>
      </trkpt>
      <trkpt lat="44.07432" lon="6.43815">
        <ele>1262</ele>
        <time>2022-06-08T23:10:45Z</time>
      </trkpt>
      <trkpt lat="44.07423" lon="6.43811">
        <ele>1259</ele>
        <time>2022-06-08T23:10:48Z</time>
      </trkpt>
      <trkpt lat="44.07396" lon="6.4379">
        <ele>1253</ele>
        <time>2022-06-08T23:10:55Z</time>
      </trkpt>
      <trkpt lat="44.07354" lon="6.43789">
        <ele>1247</ele>
        <time>2022-06-08T23:11:05Z</time>
      </trkpt>
      <trkpt lat="44.07324" lon="6.43777">
        <ele>1241</ele>
        <time>2022-06-08T23:11:12Z</time>
      </trkpt>
      <trkpt lat="44.07287" lon="6.43768">
        <ele>1235</ele>
        <time>2022-06-08T23:11:21Z</time>
      </trkpt>
      <trkpt lat="44.07205" lon="6.43724">
        <ele>1223</ele>
        <time>2022-06-08T23:11:41Z</time>
      </trkpt>
      <trkpt lat="44.07194" lon="6.43716">
        <ele>1223</ele>
        <time>2022-06-08T23:11:44Z</time>
      </trkpt>
      <trkpt lat="44.07191" lon="6.4371">
        <ele>1222</ele>
        <time>2022-06-08T23:11:45Z</time>
      </trkpt>
      <trkpt lat="44.07203" lon="6.43702">
        <ele>1223</ele>
        <time>2022-06-08T23:11:48Z</time>
      </trkpt>
      <trkpt lat="44.07211" lon="6.43699">
        <ele>1224</ele>
        <time>2022-06-08T23:11:50Z</time>
      </trkpt>
      <trkpt lat="44.07214" lon="6.437">
        <ele>1224</ele>
        <time>2022-06-08T23:11:51Z</time>
      </trkpt>
      <trkpt lat="44.07229" lon="6.43693">
        <ele>1224</ele>
        <time>2022-06-08T23:11:55Z</time>
      </trkpt>
      <trkpt lat="44.07253" lon="6.4367">
        <ele>1225</ele>
        <time>2022-06-08T23:12:02Z</time>
      </trkpt>
      <trkpt lat="44.07261" lon="6.43634">
        <ele>1230</ele>
        <time>2022-06-08T23:12:08Z</time>
      </trkpt>
      <trkpt lat="44.07262" lon="6.43579">
        <ele>1236</ele>
        <time>2022-06-08T23:12:17Z</time>
      </trkpt>
      <trkpt lat="44.07267" lon="6.43552">
        <ele>1239</ele>
        <time>2022-06-08T23:12:22Z</time>
      </trkpt>
      <trkpt lat="44.07275" lon="6.43533">
        <ele>1240</ele>
        <time>2022-06-08T23:12:25Z</time>
      </trkpt>
      <trkpt lat="44.07283" lon="6.43522">
        <ele>1241</ele>
        <time>2022-06-08T23:12:28Z</time>
      </trkpt>
      <trkpt lat="44.07295" lon="6.43516">
        <ele>1241</ele>
        <time>2022-06-08T23:12:31Z</time>
      </trkpt>
      <trkpt lat="44.0732" lon="6.43479">
        <ele>1244</ele>
        <time>2022-06-08T23:12:40Z</time>
      </trkpt>
      <trkpt lat="44.07335" lon="6.43438">
        <ele>1249</ele>
        <time>2022-06-08T23:12:47Z</time>
      </trkpt>
      <trkpt lat="44.07354" lon="6.43407">
        <ele>1256</ele>
        <time>2022-06-08T23:12:54Z</time>
      </trkpt>
      <trkpt lat="44.0736" lon="6.43392">
        <ele>1258</ele>
        <time>2022-06-08T23:12:57Z</time>
      </trkpt>
      <trkpt lat="44.07382" lon="6.43313">
        <ele>1264</ele>
        <time>2022-06-08T23:13:11Z</time>
      </trkpt>
      <trkpt lat="44.07385" lon="6.43282">
        <ele>1265</ele>
        <time>2022-06-08T23:13:17Z</time>
      </trkpt>
      <trkpt lat="44.0741" lon="6.43235">
        <ele>1267</ele>
        <time>2022-06-08T23:13:26Z</time>
      </trkpt>
      <trkpt lat="44.07411" lon="6.43199">
        <ele>1270</ele>
        <time>2022-06-08T23:13:32Z</time>
      </trkpt>
      <trkpt lat="44.07395" lon="6.43179">
        <ele>1273</ele>
        <time>2022-06-08T23:13:37Z</time>
      </trkpt>
      <trkpt lat="44.07362" lon="6.43214">
        <ele>1272</ele>
        <time>2022-06-08T23:13:47Z</time>
      </trkpt>
      <trkpt lat="44.07354" lon="6.43232">
        <ele>1270</ele>
        <time>2022-06-08T23:13:51Z</time>
      </trkpt>
      <trkpt lat="44.07322" lon="6.43259">
        <ele>1269</ele>
        <time>2022-06-08T23:13:59Z</time>
      </trkpt>
      <trkpt lat="44.07312" lon="6.43258">
        <ele>1271</ele>
        <time>2022-06-08T23:14:02Z</time>
      </trkpt>
      <trkpt lat="44.07274" lon="6.43275">
        <ele>1276</ele>
        <time>2022-06-08T23:14:11Z</time>
      </trkpt>
      <trkpt lat="44.07253" lon="6.4328">
        <ele>1279</ele>
        <time>2022-06-08T23:14:16Z</time>
      </trkpt>
      <trkpt lat="44.07235" lon="6.4328">
        <ele>1281</ele>
        <time>2022-06-08T23:14:20Z</time>
      </trkpt>
      <trkpt lat="44.07202" lon="6.43255">
        <ele>1288</ele>
        <time>2022-06-08T23:14:29Z</time>
      </trkpt>
      <trkpt lat="44.07184" lon="6.43234">
        <ele>1295</ele>
        <time>2022-06-08T23:14:34Z</time>
      </trkpt>
      <trkpt lat="44.07159" lon="6.43227">
        <ele>1299</ele>
        <time>2022-06-08T23:14:40Z</time>
      </trkpt>
      <trkpt lat="44.07145" lon="6.43214">
        <ele>1305</ele>
        <time>2022-06-08T23:14:44Z</time>
      </trkpt>
      <trkpt lat="44.07122" lon="6.43213">
        <ele>1307</ele>
        <time>2022-06-08T23:14:50Z</time>
      </trkpt>
      <trkpt lat="44.07078" lon="6.43219">
        <ele>1310</ele>
        <time>2022-06-08T23:15:00Z</time>
      </trkpt>
      <trkpt lat="44.07063" lon="6.43211">
        <ele>1316</ele>
        <time>2022-06-08T23:15:04Z</time>
      </trkpt>
      <trkpt lat="44.07041" lon="6.43211">
        <ele>1320</ele>
        <time>2022-06-08T23:15:09Z</time>
      </trkpt>
      <trkpt lat="44.07034" lon="6.43213">
        <ele>1321</ele>
        <time>2022-06-08T23:15:11Z</time>
      </trkpt>
      <trkpt lat="44.07021" lon="6.43226">
        <ele>1321</ele>
        <time>2022-06-08T23:15:14Z</time>
      </trkpt>
      <trkpt lat="44.06993" lon="6.43221">
        <ele>1327</ele>
        <time>2022-06-08T23:15:21Z</time>
      </trkpt>
      <trkpt lat="44.06986" lon="6.43217">
        <ele>1330</ele>
        <time>2022-06-08T23:15:23Z</time>
      </trkpt>
      <trkpt lat="44.06967" lon="6.43225">
        <ele>1331</ele>
        <time>2022-06-08T23:15:27Z</time>
      </trkpt>
      <trkpt lat="44.06952" lon="6.43239">
        <ele>1329</ele>
        <time>2022-06-08T23:15:32Z</time>
      </trkpt>
      <trkpt lat="44.06942" lon="6.43245">
        <ele>1329</ele>
        <time>2022-06-08T23:15:34Z</time>
      </trkpt>
      <trkpt lat="44.06931" lon="6.43248">
        <ele>1330</ele>
        <time>2022-06-08T23:15:37Z</time>
      </trkpt>
      <trkpt lat="44.06916" lon="6.43247">
        <ele>1332</ele>
        <time>2022-06-08T23:15:40Z</time>
      </trkpt>
      <trkpt lat="44.06912" lon="6.43244">
        <ele>1333</ele>
        <time>2022-06-08T23:15:41Z</time>
      </trkpt>
      <trkpt lat="44.06885" lon="6.43201">
        <ele>1344</ele>
        <time>2022-06-08T23:15:51Z</time>
      </trkpt>
      <trkpt lat="44.06853" lon="6.43156">
        <ele>1354</ele>
        <time>2022-06-08T23:16:02Z</time>
      </trkpt>
      <trkpt lat="44.06851" lon="6.4315">
        <ele>1356</ele>
        <time>2022-06-08T23:16:03Z</time>
      </trkpt>
      <trkpt lat="44.06838" lon="6.43139">
        <ele>1358</ele>
        <time>2022-06-08T23:16:06Z</time>
      </trkpt>
      <trkpt lat="44.06819" lon="6.43137">
        <ele>1357</ele>
        <time>2022-06-08T23:16:11Z</time>
      </trkpt>
      <trkpt lat="44.06779" lon="6.43149">
        <ele>1352</ele>
        <time>2022-06-08T23:16:20Z</time>
      </trkpt>
      <trkpt lat="44.06769" lon="6.43148">
        <ele>1352</ele>
        <time>2022-06-08T23:16:23Z</time>
      </trkpt>
      <trkpt lat="44.06749" lon="6.43138">
        <ele>1351</ele>
        <time>2022-06-08T23:16:27Z</time>
      </trkpt>
      <trkpt lat="44.06736" lon="6.43117">
        <ele>1349</ele>
        <time>2022-06-08T23:16:32Z</time>
      </trkpt>
      <trkpt lat="44.06737" lon="6.43064">
        <ele>1355</ele>
        <time>2022-06-08T23:16:41Z</time>
      </trkpt>
      <trkpt lat="44.06727" lon="6.43029">
        <ele>1359</ele>
        <time>2022-06-08T23:16:47Z</time>
      </trkpt>
      <trkpt lat="44.06717" lon="6.43035">
        <ele>1356</ele>
        <time>2022-06-08T23:16:50Z</time>
      </trkpt>
      <trkpt lat="44.06687" lon="6.43034">
        <ele>1352</ele>
        <time>2022-06-08T23:16:57Z</time>
      </trkpt>
      <trkpt lat="44.06655" lon="6.43028">
        <ele>1350</ele>
        <time>2022-06-08T23:17:04Z</time>
      </trkpt>
      <trkpt lat="44.06604" lon="6.4299">
        <ele>1356</ele>
        <time>2022-06-08T23:17:18Z</time>
      </trkpt>
      <trkpt lat="44.06573" lon="6.42977">
        <ele>1357</ele>
        <time>2022-06-08T23:17:26Z</time>
      </trkpt>
      <trkpt lat="44.06527" lon="6.42976">
        <ele>1356</ele>
        <time>2022-06-08T23:17:36Z</time>
      </trkpt>
      <trkpt lat="44.06517" lon="6.42971">
        <ele>1356</ele>
        <time>2022-06-08T23:17:39Z</time>
      </trkpt>
      <trkpt lat="44.06512" lon="6.42973">
        <ele>1356</ele>
        <time>2022-06-08T23:17:40Z</time>
      </trkpt>
      <trkpt lat="44.06511" lon="6.42977">
        <ele>1356</ele>
        <time>2022-06-08T23:17:41Z</time>
      </trkpt>
      <trkpt lat="44.06514" lon="6.42974">
        <ele>1356</ele>
        <time>2022-06-08T23:17:42Z</time>
      </trkpt>
      <trkpt lat="44.06509" lon="6.42965">
        <ele>1355</ele>
        <time>2022-06-08T23:17:43Z</time>
      </trkpt>
      <trkpt lat="44.06488" lon="6.42967">
        <ele>1354</ele>
        <time>2022-06-08T23:17:48Z</time>
      </trkpt>
      <trkpt lat="44.06467" lon="6.42961">
        <ele>1351</ele>
        <time>2022-06-08T23:17:53Z</time>
      </trkpt>
      <trkpt lat="44.06454" lon="6.42964">
        <ele>1350</ele>
        <time>2022-06-08T23:17:56Z</time>
      </trkpt>
      <trkpt lat="44.06422" lon="6.42952">
        <ele>1345</ele>
        <time>2022-06-08T23:18:04Z</time>
      </trkpt>
      <trkpt lat="44.06415" lon="6.42946">
        <ele>1343</ele>
        <time>2022-06-08T23:18:06Z</time>
      </trkpt>
      <trkpt lat="44.06406" lon="6.42915">
        <ele>1335</ele>
        <time>2022-06-08T23:18:12Z</time>
      </trkpt>
      <trkpt lat="44.06391" lon="6.42891">
        <ele>1328</ele>
        <time>2022-06-08T23:18:17Z</time>
      </trkpt>
      <trkpt lat="44.06372" lon="6.42851">
        <ele>1314</ele>
        <time>2022-06-08T23:18:25Z</time>
      </trkpt>
      <trkpt lat="44.06344" lon="6.42841">
        <ele>1310</ele>
        <time>2022-06-08T23:18:32Z</time>
      </trkpt>
      <trkpt lat="44.06267" lon="6.42827">
        <ele>1304</ele>
        <time>2022-06-08T23:18:50Z</time>
      </trkpt>
      <trkpt lat="44.06317" lon="6.42834">
        <ele>1307</ele>
        <time>2022-06-08T23:19:02Z</time>
      </trkpt>
      <trkpt lat="44.06335" lon="6.42834">
        <ele>1307</ele>
        <time>2022-06-08T23:19:06Z</time>
      </trkpt>
      <trkpt lat="44.0635" lon="6.42842">
        <ele>1311</ele>
        <time>2022-06-08T23:19:10Z</time>
      </trkpt>
      <trkpt lat="44.06368" lon="6.42845">
        <ele>1312</ele>
        <time>2022-06-08T23:19:14Z</time>
      </trkpt>
      <trkpt lat="44.0637" lon="6.42843">
        <ele>1311</ele>
        <time>2022-06-08T23:19:14Z</time>
      </trkpt>
      <trkpt lat="44.06368" lon="6.42844">
        <ele>1312</ele>
        <time>2022-06-08T23:19:15Z</time>
      </trkpt>
      <trkpt lat="44.06349" lon="6.42817">
        <ele>1302</ele>
        <time>2022-06-08T23:19:21Z</time>
      </trkpt>
      <trkpt lat="44.06345" lon="6.42807">
        <ele>1299</ele>
        <time>2022-06-08T23:19:23Z</time>
      </trkpt>
      <trkpt lat="44.06323" lon="6.42798">
        <ele>1295</ele>
        <time>2022-06-08T23:19:29Z</time>
      </trkpt>
      <trkpt lat="44.06312" lon="6.42785">
        <ele>1289</ele>
        <time>2022-06-08T23:19:32Z</time>
      </trkpt>
      <trkpt lat="44.06304" lon="6.42781">
        <ele>1287</ele>
        <time>2022-06-08T23:19:34Z</time>
      </trkpt>
      <trkpt lat="44.06272" lon="6.42773">
        <ele>1282</ele>
        <time>2022-06-08T23:19:42Z</time>
      </trkpt>
      <trkpt lat="44.06249" lon="6.42741">
        <ele>1266</ele>
        <time>2022-06-08T23:19:49Z</time>
      </trkpt>
      <trkpt lat="44.0624" lon="6.4274">
        <ele>1266</ele>
        <time>2022-06-08T23:19:51Z</time>
      </trkpt>
      <trkpt lat="44.06229" lon="6.42733">
        <ele>1263</ele>
        <time>2022-06-08T23:19:54Z</time>
      </trkpt>
      <trkpt lat="44.06217" lon="6.42731">
        <ele>1262</ele>
        <time>2022-06-08T23:19:57Z</time>
      </trkpt>
      <trkpt lat="44.06176" lon="6.42714">
        <ele>1257</ele>
        <time>2022-06-08T23:20:07Z</time>
      </trkpt>
      <trkpt lat="44.06149" lon="6.42659">
        <ele>1238</ele>
        <time>2022-06-08T23:20:18Z</time>
      </trkpt>
      <trkpt lat="44.06115" lon="6.42615">
        <ele>1225</ele>
        <time>2022-06-08T23:20:29Z</time>
      </trkpt>
      <trkpt lat="44.06118" lon="6.42608">
        <ele>1223</ele>
        <time>2022-06-08T23:20:30Z</time>
      </trkpt>
      <trkpt lat="44.06108" lon="6.42572">
        <ele>1213</ele>
        <time>2022-06-08T23:20:37Z</time>
      </trkpt>
      <trkpt lat="44.06121" lon="6.42572">
        <ele>1213</ele>
        <time>2022-06-08T23:20:40Z</time>
      </trkpt>
      <trkpt lat="44.06118" lon="6.42563">
        <ele>1211</ele>
        <time>2022-06-08T23:20:41Z</time>
      </trkpt>
      <trkpt lat="44.06096" lon="6.42541">
        <ele>1204</ele>
        <time>2022-06-08T23:20:48Z</time>
      </trkpt>
      <trkpt lat="44.06079" lon="6.42529">
        <ele>1200</ele>
        <time>2022-06-08T23:20:52Z</time>
      </trkpt>
      <trkpt lat="44.06062" lon="6.42524">
        <ele>1198</ele>
        <time>2022-06-08T23:20:56Z</time>
      </trkpt>
      <trkpt lat="44.06048" lon="6.42524">
        <ele>1198</ele>
        <time>2022-06-08T23:21:00Z</time>
      </trkpt>
      <trkpt lat="44.0604" lon="6.42527">
        <ele>1198</ele>
        <time>2022-06-08T23:21:01Z</time>
      </trkpt>
      <trkpt lat="44.0603" lon="6.42479">
        <ele>1188</ele>
        <time>2022-06-08T23:21:10Z</time>
      </trkpt>
      <trkpt lat="44.06029" lon="6.42446">
        <ele>1181</ele>
        <time>2022-06-08T23:21:15Z</time>
      </trkpt>
      <trkpt lat="44.06023" lon="6.42438">
        <ele>1180</ele>
        <time>2022-06-08T23:21:17Z</time>
      </trkpt>
      <trkpt lat="44.06001" lon="6.42421">
        <ele>1177</ele>
        <time>2022-06-08T23:21:23Z</time>
      </trkpt>
      <trkpt lat="44.05971" lon="6.42384">
        <ele>1173</ele>
        <time>2022-06-08T23:21:33Z</time>
      </trkpt>
      <trkpt lat="44.05947" lon="6.42375">
        <ele>1174</ele>
        <time>2022-06-08T23:21:38Z</time>
      </trkpt>
      <trkpt lat="44.05941" lon="6.42364">
        <ele>1173</ele>
        <time>2022-06-08T23:21:41Z</time>
      </trkpt>
      <trkpt lat="44.05946" lon="6.42329">
        <ele>1167</ele>
        <time>2022-06-08T23:21:47Z</time>
      </trkpt>
      <trkpt lat="44.05931" lon="6.42261">
        <ele>1157</ele>
        <time>2022-06-08T23:21:59Z</time>
      </trkpt>
      <trkpt lat="44.05942" lon="6.4226">
        <ele>1155</ele>
        <time>2022-06-08T23:22:01Z</time>
      </trkpt>
      <trkpt lat="44.05971" lon="6.42284">
        <ele>1155</ele>
        <time>2022-06-08T23:22:09Z</time>
      </trkpt>
      <trkpt lat="44.05975" lon="6.42283">
        <ele>1154</ele>
        <time>2022-06-08T23:22:10Z</time>
      </trkpt>
      <trkpt lat="44.05986" lon="6.42274">
        <ele>1150</ele>
        <time>2022-06-08T23:22:13Z</time>
      </trkpt>
      <trkpt lat="44.0603" lon="6.42216">
        <ele>1136</ele>
        <time>2022-06-08T23:22:27Z</time>
      </trkpt>
      <trkpt lat="44.06035" lon="6.42214">
        <ele>1136</ele>
        <time>2022-06-08T23:22:28Z</time>
      </trkpt>
      <trkpt lat="44.0605" lon="6.42216">
        <ele>1135</ele>
        <time>2022-06-08T23:22:32Z</time>
      </trkpt>
      <trkpt lat="44.06052" lon="6.42214">
        <ele>1135</ele>
        <time>2022-06-08T23:22:32Z</time>
      </trkpt>
      <trkpt lat="44.06044" lon="6.42201">
        <ele>1133</ele>
        <time>2022-06-08T23:22:35Z</time>
      </trkpt>
      <trkpt lat="44.06002" lon="6.42178">
        <ele>1132</ele>
        <time>2022-06-08T23:22:46Z</time>
      </trkpt>
      <trkpt lat="44.06037" lon="6.42143">
        <ele>1123</ele>
        <time>2022-06-08T23:22:56Z</time>
      </trkpt>
      <trkpt lat="44.06045" lon="6.42143">
        <ele>1122</ele>
        <time>2022-06-08T23:22:58Z</time>
      </trkpt>
      <trkpt lat="44.06054" lon="6.4215">
        <ele>1123</ele>
        <time>2022-06-08T23:23:00Z</time>
      </trkpt>
      <trkpt lat="44.06077" lon="6.4216">
        <ele>1123</ele>
        <time>2022-06-08T23:23:06Z</time>
      </trkpt>
      <trkpt lat="44.0609" lon="6.42161">
        <ele>1123</ele>
        <time>2022-06-08T23:23:09Z</time>
      </trkpt>
      <trkpt lat="44.0609" lon="6.42155">
        <ele>1121</ele>
        <time>2022-06-08T23:23:10Z</time>
      </trkpt>
      <trkpt lat="44.06073" lon="6.42125">
        <ele>1115</ele>
        <time>2022-06-08T23:23:16Z</time>
      </trkpt>
      <trkpt lat="44.06052" lon="6.4208">
        <ele>1108</ele>
        <time>2022-06-08T23:23:25Z</time>
      </trkpt>
      <trkpt lat="44.06032" lon="6.41997">
        <ele>1100</ele>
        <time>2022-06-08T23:23:40Z</time>
      </trkpt>
      <trkpt lat="44.06009" lon="6.41965">
        <ele>1098</ele>
        <time>2022-06-08T23:23:48Z</time>
      </trkpt>
      <trkpt lat="44.06007" lon="6.41959">
        <ele>1097</ele>
        <time>2022-06-08T23:23:49Z</time>
      </trkpt>
      <trkpt lat="44.06008" lon="6.41949">
        <ele>1096</ele>
        <time>2022-06-08T23:23:50Z</time>
      </trkpt>
      <trkpt lat="44.06011" lon="6.41944">
        <ele>1095</ele>
        <time>2022-06-08T23:23:52Z</time>
      </trkpt>
      <trkpt lat="44.06039" lon="6.4193">
        <ele>1092</ele>
        <time>2022-06-08T23:23:58Z</time>
      </trkpt>
      <trkpt lat="44.06045" lon="6.41916">
        <ele>1090</ele>
        <time>2022-06-08T23:24:01Z</time>
      </trkpt>
      <trkpt lat="44.06043" lon="6.4191">
        <ele>1090</ele>
        <time>2022-06-08T23:24:02Z</time>
      </trkpt>
      <trkpt lat="44.06018" lon="6.41879">
        <ele>1088</ele>
        <time>2022-06-08T23:24:10Z</time>
      </trkpt>
      <trkpt lat="44.06017" lon="6.41874">
        <ele>1088</ele>
        <time>2022-06-08T23:24:11Z</time>
      </trkpt>
      <trkpt lat="44.06069" lon="6.41765">
        <ele>1076</ele>
        <time>2022-06-08T23:24:33Z</time>
      </trkpt>
      <trkpt lat="44.06087" lon="6.41736">
        <ele>1072</ele>
        <time>2022-06-08T23:24:39Z</time>
      </trkpt>
      <trkpt lat="44.061" lon="6.41725">
        <ele>1070</ele>
        <time>2022-06-08T23:24:43Z</time>
      </trkpt>
      <trkpt lat="44.06117" lon="6.41715">
        <ele>1068</ele>
        <time>2022-06-08T23:24:47Z</time>
      </trkpt>
      <trkpt lat="44.0612" lon="6.41682">
        <ele>1063</ele>
        <time>2022-06-08T23:24:53Z</time>
      </trkpt>
      <trkpt lat="44.06132" lon="6.41641">
        <ele>1057</ele>
        <time>2022-06-08T23:25:00Z</time>
      </trkpt>
      <trkpt lat="44.06135" lon="6.41612">
        <ele>1053</ele>
        <time>2022-06-08T23:25:05Z</time>
      </trkpt>
      <trkpt lat="44.06145" lon="6.41572">
        <ele>1048</ele>
        <time>2022-06-08T23:25:12Z</time>
      </trkpt>
      <trkpt lat="44.06155" lon="6.41509">
        <ele>1040</ele>
        <time>2022-06-08T23:25:23Z</time>
      </trkpt>
      <trkpt lat="44.06152" lon="6.41544">
        <ele>1044</ele>
        <time>2022-06-08T23:25:29Z</time>
      </trkpt>
      <trkpt lat="44.06159" lon="6.41546">
        <ele>1045</ele>
        <time>2022-06-08T23:25:31Z</time>
      </trkpt>
      <trkpt lat="44.06168" lon="6.41545">
        <ele>1044</ele>
        <time>2022-06-08T23:25:33Z</time>
      </trkpt>
      <trkpt lat="44.06179" lon="6.41534">
        <ele>1042</ele>
        <time>2022-06-08T23:25:36Z</time>
      </trkpt>
      <trkpt lat="44.06176" lon="6.41452">
        <ele>1032</ele>
        <time>2022-06-08T23:25:50Z</time>
      </trkpt>
      <trkpt lat="44.06172" lon="6.41442">
        <ele>1031</ele>
        <time>2022-06-08T23:25:52Z</time>
      </trkpt>
      <trkpt lat="44.06153" lon="6.41424">
        <ele>1030</ele>
        <time>2022-06-08T23:25:57Z</time>
      </trkpt>
      <trkpt lat="44.06141" lon="6.41416">
        <ele>1030</ele>
        <time>2022-06-08T23:26:00Z</time>
      </trkpt>
      <trkpt lat="44.0614" lon="6.41387">
        <ele>1028</ele>
        <time>2022-06-08T23:26:05Z</time>
      </trkpt>
      <trkpt lat="44.06142" lon="6.41376">
        <ele>1027</ele>
        <time>2022-06-08T23:26:07Z</time>
      </trkpt>
      <trkpt lat="44.06146" lon="6.41369">
        <ele>1026</ele>
        <time>2022-06-08T23:26:08Z</time>
      </trkpt>
      <trkpt lat="44.06151" lon="6.41367">
        <ele>1026</ele>
        <time>2022-06-08T23:26:10Z</time>
      </trkpt>
      <trkpt lat="44.0616" lon="6.41356">
        <ele>1024</ele>
        <time>2022-06-08T23:26:12Z</time>
      </trkpt>
      <trkpt lat="44.06181" lon="6.41305">
        <ele>1018</ele>
        <time>2022-06-08T23:26:22Z</time>
      </trkpt>
      <trkpt lat="44.06194" lon="6.4128">
        <ele>1015</ele>
        <time>2022-06-08T23:26:27Z</time>
      </trkpt>
      <trkpt lat="44.06301" lon="6.40942">
        <ele>989</ele>
        <time>2022-06-08T23:27:29Z</time>
      </trkpt>
      <trkpt lat="44.06302" lon="6.40919">
        <ele>987</ele>
        <time>2022-06-08T23:27:33Z</time>
      </trkpt>
      <trkpt lat="44.06287" lon="6.40816">
        <ele>980</ele>
        <time>2022-06-08T23:27:51Z</time>
      </trkpt>
      <trkpt lat="44.06286" lon="6.40756">
        <ele>976</ele>
        <time>2022-06-08T23:28:01Z</time>
      </trkpt>
      <trkpt lat="44.06291" lon="6.40732">
        <ele>976</ele>
        <time>2022-06-08T23:28:05Z</time>
      </trkpt>
      <trkpt lat="44.063" lon="6.40712">
        <ele>975</ele>
        <time>2022-06-08T23:28:09Z</time>
      </trkpt>
      <trkpt lat="44.06312" lon="6.40701">
        <ele>975</ele>
        <time>2022-06-08T23:28:13Z</time>
      </trkpt>
      <trkpt lat="44.06327" lon="6.40697">
        <ele>975</ele>
        <time>2022-06-08T23:28:16Z</time>
      </trkpt>
      <trkpt lat="44.06335" lon="6.40682">
        <ele>975</ele>
        <time>2022-06-08T23:28:19Z</time>
      </trkpt>
      <trkpt lat="44.06334" lon="6.4065">
        <ele>975</ele>
        <time>2022-06-08T23:28:25Z</time>
      </trkpt>
      <trkpt lat="44.0633" lon="6.40619">
        <ele>975</ele>
        <time>2022-06-08T23:28:30Z</time>
      </trkpt>
      <trkpt lat="44.06331" lon="6.40589">
        <ele>976</ele>
        <time>2022-06-08T23:28:35Z</time>
      </trkpt>
      <trkpt lat="44.06326" lon="6.40523">
        <ele>974</ele>
        <time>2022-06-08T23:28:46Z</time>
      </trkpt>
      <trkpt lat="44.06319" lon="6.40499">
        <ele>973</ele>
        <time>2022-06-08T23:28:50Z</time>
      </trkpt>
      <trkpt lat="44.06316" lon="6.40462">
        <ele>970</ele>
        <time>2022-06-08T23:28:57Z</time>
      </trkpt>
      <trkpt lat="44.06307" lon="6.40436">
        <ele>967</ele>
        <time>2022-06-08T23:29:02Z</time>
      </trkpt>
      <trkpt lat="44.0628" lon="6.40386">
        <ele>963</ele>
        <time>2022-06-08T23:29:12Z</time>
      </trkpt>
      <trkpt lat="44.06277" lon="6.40376">
        <ele>962</ele>
        <time>2022-06-08T23:29:14Z</time>
      </trkpt>
      <trkpt lat="44.06267" lon="6.40288">
        <ele>957</ele>
        <time>2022-06-08T23:29:29Z</time>
      </trkpt>
      <trkpt lat="44.06252" lon="6.40227">
        <ele>954</ele>
        <time>2022-06-08T23:29:40Z</time>
      </trkpt>
      <trkpt lat="44.06252" lon="6.40213">
        <ele>954</ele>
        <time>2022-06-08T23:29:42Z</time>
      </trkpt>
      <trkpt lat="44.06267" lon="6.40099">
        <ele>950</ele>
        <time>2022-06-08T23:30:01Z</time>
      </trkpt>
      <trkpt lat="44.0627" lon="6.40053">
        <ele>949</ele>
        <time>2022-06-08T23:30:09Z</time>
      </trkpt>
      <trkpt lat="44.06278" lon="6.40006">
        <ele>948</ele>
        <time>2022-06-08T23:30:17Z</time>
      </trkpt>
      <trkpt lat="44.06315" lon="6.39922">
        <ele>946</ele>
        <time>2022-06-08T23:30:34Z</time>
      </trkpt>
      <trkpt lat="44.06318" lon="6.39853">
        <ele>944</ele>
        <time>2022-06-08T23:30:45Z</time>
      </trkpt>
      <trkpt lat="44.06308" lon="6.39798">
        <ele>942</ele>
        <time>2022-06-08T23:30:55Z</time>
      </trkpt>
      <trkpt lat="44.0632" lon="6.3973">
        <ele>940</ele>
        <time>2022-06-08T23:31:07Z</time>
      </trkpt>
      <trkpt lat="44.06322" lon="6.39681">
        <ele>938</ele>
        <time>2022-06-08T23:31:15Z</time>
      </trkpt>
      <trkpt lat="44.06342" lon="6.39611">
        <ele>936</ele>
        <time>2022-06-08T23:31:28Z</time>
      </trkpt>
      <trkpt lat="44.06352" lon="6.39567">
        <ele>935</ele>
        <time>2022-06-08T23:31:35Z</time>
      </trkpt>
      <trkpt lat="44.06372" lon="6.39538">
        <ele>934</ele>
        <time>2022-06-08T23:31:42Z</time>
      </trkpt>
      <trkpt lat="44.06389" lon="6.39521">
        <ele>934</ele>
        <time>2022-06-08T23:31:47Z</time>
      </trkpt>
      <trkpt lat="44.06395" lon="6.39518">
        <ele>934</ele>
        <time>2022-06-08T23:31:48Z</time>
      </trkpt>
      <trkpt lat="44.06408" lon="6.39518">
        <ele>934</ele>
        <time>2022-06-08T23:31:51Z</time>
      </trkpt>
      <trkpt lat="44.06425" lon="6.39529">
        <ele>935</ele>
        <time>2022-06-08T23:31:56Z</time>
      </trkpt>
      <trkpt lat="44.0643" lon="6.3953">
        <ele>935</ele>
        <time>2022-06-08T23:31:57Z</time>
      </trkpt>
      <trkpt lat="44.0648" lon="6.39519">
        <ele>935</ele>
        <time>2022-06-08T23:32:09Z</time>
      </trkpt>
      <trkpt lat="44.06494" lon="6.39499">
        <ele>934</ele>
        <time>2022-06-08T23:32:13Z</time>
      </trkpt>
      <trkpt lat="44.06498" lon="6.39486">
        <ele>933</ele>
        <time>2022-06-08T23:32:16Z</time>
      </trkpt>
      <trkpt lat="44.06523" lon="6.39319">
        <ele>930</ele>
        <time>2022-06-08T23:32:44Z</time>
      </trkpt>
      <trkpt lat="44.06527" lon="6.39308">
        <ele>929</ele>
        <time>2022-06-08T23:32:47Z</time>
      </trkpt>
      <trkpt lat="44.06542" lon="6.39294">
        <ele>929</ele>
        <time>2022-06-08T23:32:51Z</time>
      </trkpt>
      <trkpt lat="44.06561" lon="6.39258">
        <ele>928</ele>
        <time>2022-06-08T23:32:58Z</time>
      </trkpt>
      <trkpt lat="44.06594" lon="6.39182">
        <ele>931</ele>
        <time>2022-06-08T23:33:13Z</time>
      </trkpt>
      <trkpt lat="44.06599" lon="6.3914">
        <ele>934</ele>
        <time>2022-06-08T23:33:20Z</time>
      </trkpt>
      <trkpt lat="44.06611" lon="6.39101">
        <ele>937</ele>
        <time>2022-06-08T23:33:27Z</time>
      </trkpt>
      <trkpt lat="44.06647" lon="6.39061">
        <ele>937</ele>
        <time>2022-06-08T23:33:38Z</time>
      </trkpt>
      <trkpt lat="44.06679" lon="6.39021">
        <ele>939</ele>
        <time>2022-06-08T23:33:48Z</time>
      </trkpt>
      <trkpt lat="44.06704" lon="6.38987">
        <ele>941</ele>
        <time>2022-06-08T23:33:56Z</time>
      </trkpt>
      <trkpt lat="44.06714" lon="6.38969">
        <ele>942</ele>
        <time>2022-06-08T23:34:00Z</time>
      </trkpt>
      <trkpt lat="44.06712" lon="6.38965">
        <ele>942</ele>
        <time>2022-06-08T23:34:01Z</time>
      </trkpt>
      <trkpt lat="44.06701" lon="6.38972">
        <ele>941</ele>
        <time>2022-06-08T23:34:04Z</time>
      </trkpt>
      <trkpt lat="44.06677" lon="6.38961">
        <ele>940</ele>
        <time>2022-06-08T23:34:10Z</time>
      </trkpt>
      <trkpt lat="44.06659" lon="6.38913">
        <ele>940</ele>
        <time>2022-06-08T23:34:19Z</time>
      </trkpt>
      <trkpt lat="44.06666" lon="6.38877">
        <ele>940</ele>
        <time>2022-06-08T23:34:25Z</time>
      </trkpt>
      <trkpt lat="44.06679" lon="6.38879">
        <ele>941</ele>
        <time>2022-06-08T23:34:28Z</time>
      </trkpt>
      <trkpt lat="44.0668" lon="6.38881">
        <ele>941</ele>
        <time>2022-06-08T23:34:29Z</time>
      </trkpt>
      <trkpt lat="44.06676" lon="6.38906">
        <ele>941</ele>
        <time>2022-06-08T23:34:33Z</time>
      </trkpt>
      <trkpt lat="44.06674" lon="6.38908">
        <ele>941</ele>
        <time>2022-06-08T23:34:33Z</time>
      </trkpt>
    </trkseg>
  </trk>
</gpx>